[[{"header":{"parameterUnit":"m.s-1","parameterCategory":1,"la1":31.0,"la2":29.5877,"lo1":-88.7671,"lo2":-86.6584,"dy":0.0162,"dx":0.0185,"nx":115,"ny":88,"refTime":"2023-05-25T12:00:00:Z","depth":0,"parameterNumber":2,"parameterNumberName":"U-component_of_WINDS"},"data":[0.0,0.0,0.0,0.0,0.0,0.0,0.0,0.0,0.0,0.0,0.0,0.0,0.0,0.0,0.0,0.0,0.0,0.0,0.0,0.0,0.0,0.0,0.0,0.0,0.0,0.0,0.0,0.0,0.0,0.0,0.0,0.0,0.0,0.0,0.0,0.0,0.0,0.0,0.0,0.0,0.0,0.0,0.0,0.0,0.0,0.0,0.0,0.0,0.0,0.0,0.0,0.0,0.0,0.0,0.0,0.0,0.0,0.0,0.0,0.0,0.0,0.0,0.0,0.0,0.0,0.0,0.0,0.0,0.0,0.0,0.0,0.0,0.0,0.0,0.0,0.0,0.0,0.0,0.0,0.0,0.0,0.0,0.0,0.0,0.0,0.0,0.0,0.0,0.0,0.0,0.0,0.0,0.0,0.0,0.0,0.0,0.0,0.0,0.0,0.0,0.0,0.0,0.0,0.0,0.0,0.0,0.0,0.0,0.0,0.0,0.0,0.0,0.0,0.0,0.0,0.0,0.0,0.0,0.0,0.0,0.0,0.0,0.0,0.0,0.0,0.0,0.0,0.0,0.0,0.0,0.0,0.0,0.0,0.0,0.0,0.0,0.0,0.0,0.0,0.0,0.0,0.0,0.0,0.0,0.0,0.0,0.0,0.0,0.0,0.0,0.0,0.0,0.0,0.0,0.0,0.0,0.0,0.0,0.0,0.0,0.0,0.0,0.0,0.0,0.0,0.0,0.0,0.0,0.0,0.0,0.0,0.0,0.0,0.0,0.0,0.0,0.0,0.0,0.0,0.0,0.0,0.0,0.0,0.0,0.0,0.0,0.0,0.0,0.0,0.0,0.0,0.0,0.0,0.0,0.0,0.0,0.0,0.0,0.0,0.0,0.0,0.0,0.0,0.0,0.0,0.0,0.0,0.0,0.0,0.0,0.0,0.0,0.0,0.0,0.0,0.0,0.0,0.0,0.0,0.0,0.0,0.0,0.0,0.0,0.0,0.0,0.0,0.0,0.0,0.0,0.0,0.0,0.0,0.0,0.0,0.0,0.0,0.0,0.0,0.0,0.0,0.0,0.0,0.0,0.0,0.0,0.0,0.0,0.0,0.0,0.0,0.0,0.0,0.0,0.0,0.0,0.0,0.0,0.0,0.0,0.0,0.0,0.0,0.0,0.0,0.0,0.0,0.0,0.0,0.0,0.0,0.0,0.0,0.0,0.0,0.0,0.0,0.0,0.0,0.0,0.0,0.0,0.0,0.0,0.0,0.0,0.0,0.0,0.0,0.0,0.0,0.0,0.0,0.0,0.0,0.0,0.0,0.0,0.0,0.0,0.0,0.0,0.0,0.0,0.0,0.0,0.0,0.0,0.0,0.0,0.0,0.0,0.0,0.0,0.0,0.0,0.0,0.0,0.0,0.0,0.0,0.0,0.0,0.0,0.0,0.0,0.0,0.0,0.0,0.0,0.0,0.0,0.0,0.0,0.0,0.0,0.0,0.0,0.0,0.0,0.0,0.0,0.0,0.0,0.0,0.0,0.0,0.0,0.0,0.0,0.0,0.0,0.0,0.0,0.0,0.0,0.0,0.0,0.0,0.0,0.0,0.0,0.0,0.0,0.0,0.0,0.0,0.0,0.0,0.0,0.0,0.0,0.0,0.0,0.0,0.0,0.0,0.0,0.0,0.0,0.0,0.0,0.0,0.0,0.0,0.0,0.0,0.0,0.0,0.0,0.0,0.0,0.0,0.0,0.0,0.0,0.0,0.0,0.0,0.0,0.0,0.0,0.0,0.0,0.0,0.0,0.0,0.0,0.0,0.0,0.0,0.0,0.0,0.0,0.0,0.0,0.0,0.0,0.0,0.0,0.0,0.0,0.0,0.0,0.0,0.0,0.0,0.0,0.0,0.0,0.0,0.0,0.0,0.0,0.0,0.0,0.0,0.0,0.0,0.0,0.0,0.0,0.0,0.0,0.0,0.0,0.0,0.0,0.0,0.0,0.0,0.0,0.0,0.0,0.0,0.0,0.0,0.0,0.0,0.0,0.0,0.0,0.0,0.0,0.0,0.0,0.0,0.0,0.0,0.0,0.0,0.0,0.0,0.0,0.0,0.0,0.0,0.0,0.0,0.0,0.0,0.0,0.0,0.0,0.0,0.0,0.0,0.0,0.0,0.0,0.0,0.0,0.0,0.0,0.0,0.0,0.0,0.0,0.0,0.0,0.0,0.0,0.0,0.0,0.0,0.0,0.0,0.0,0.0,0.0,0.0,0.0,0.0,0.0,0.0,0.0,0.0,0.0,0.0,0.0,0.0,0.0,0.0,0.0,0.0,0.0,0.0,0.0,0.0,0.0,0.0,0.0,0.0,0.0,0.0,0.0,0.0,0.0,0.0,0.0,0.0,0.0,0.0,0.0,0.0,0.0,0.0,0.0,0.0,0.0,0.0,0.0,0.0,0.0,0.0,0.0,0.0,0.0,0.0,0.0,0.0,0.0,0.0,0.0,0.0,0.0,0.0,0.0,0.0,0.0,0.0,0.0,0.0,0.0,0.0,0.0,0.0,0.0,0.0,0.0,0.0,0.0,0.0,0.0,0.0,0.0,0.0,0.0,0.0,0.0,0.0,0.0,0.0,0.0,0.0,0.0,0.0,0.0,0.0,0.0,0.0,0.0,0.0,0.0,0.0,0.0,0.0,0.0,0.0,0.0,0.0,0.0,0.0,0.0,0.0,0.0,0.0,0.0,0.0,0.0,0.0,0.0,0.0,0.0,0.0,0.0,0.0,0.0,0.0,0.0,0.0,0.0,0.0,0.0,0.0,0.0,0.0,0.0,0.0,0.0,0.0,0.0,0.0,0.0,0.0,0.0,0.0,0.0,0.0,0.0,0.0,0.0,0.0,0.0,0.0,0.0,0.0,0.0,0.0,0.0,0.0,0.0,0.0,0.0,0.0,0.0,0.0,0.0,0.0,0.0,0.0,0.0,0.0,0.0,0.0,0.0,0.0,0.0,0.0,0.0,0.0,0.0,0.0,0.0,0.0,0.0,0.0,0.0,0.0,0.0,0.0,0.0,0.0,0.0,0.0,0.0,0.0,0.0,0.0,0.0,0.0,0.0,0.0,0.0,0.0,0.0,0.0,0.0,0.0,0.0,0.0,0.0,0.0,0.0,0.0,0.0,0.0,0.0,0.0,0.0,0.0,0.0,0.0,0.0,0.0,0.0,0.0,0.0,0.0,0.0,0.0,0.0,0.0,0.0,0.0,0.0,0.0,0.0,0.0,0.0,0.0,0.0,0.0,0.0,0.0,0.0,0.0,0.0,0.0,0.0,0.0,0.0,0.0,0.0,0.0,0.0,0.0,0.0,0.0,0.0,0.0,0.0,0.0,0.0,0.0,0.0,0.0,0.0,0.0,0.0,0.0,0.0,0.0,0.0,0.0,0.0,0.0,0.0,0.0,0.0,0.0,0.0,0.0,0.0,0.0,0.0,0.0,0.0,0.0,0.0,0.0,0.0,0.0,0.0,0.0,0.0,0.0,0.0,0.0,0.0,0.0,0.0,0.0,0.0,0.0,0.0,0.0,0.0,0.0,0.0,0.0,0.0,0.0,0.0,0.0,0.0,0.0,0.0,0.0,0.0,0.0,0.0,0.0,0.0,0.0,0.0,0.0,0.0,0.0,0.0,0.0,0.0,0.0,0.0,0.0,0.0,0.0,0.0,0.0,0.0,0.0,0.0,0.0,0.0,0.0,0.0,0.0,0.0,0.0,0.0,0.0,0.0,0.0,0.0,0.0,0.0,0.0,0.0,0.0,0.0,0.0,0.0,0.0,0.0,0.0,0.0,0.0,0.0,0.0,0.0,0.0,0.0,0.0,0.0,0.0,0.0,0.0,0.0,0.0,0.0,0.0,0.0,0.0,0.0,0.0,0.0,0.0,0.0,0.0,0.0,0.0,0.0,0.0,0.0,0.0,0.0,0.0,0.0,0.0,0.0,0.0,0.0,0.0,0.0,0.0,0.0,0.0,0.0,0.0,0.0,0.0,0.0,0.0,0.0,0.0,0.0,0.0,0.0,0.0,0.0,0.0,0.0,0.0,0.0,0.0,0.0,0.0,0.0,0.0,0.0,0.0,0.0,0.0,0.0,0.0,0.0,0.0,0.0,0.0,0.0,0.0,0.0,0.0,0.0,0.0,0.0,0.0,0.0,0.0,0.0,0.0,0.0,0.0,0.0,0.0,0.0,0.0,0.0,0.0,0.0,0.0,0.0,0.0,0.0,0.0,0.0,1.6872,0.0,0.0,0.0,0.0,0.0,0.0,0.0,0.0,0.0,0.0,0.0,0.0,0.0,0.0,0.0,0.0,0.0,0.0,0.0,0.0,0.0,0.0,0.0,0.0,0.0,0.0,0.0,0.0,0.0,0.0,0.0,0.0,0.0,0.0,0.0,0.0,0.0,0.0,0.0,0.0,0.0,0.0,0.0,0.0,0.0,0.0,0.0,0.0,0.0,0.0,0.0,0.0,0.0,0.0,0.0,0.0,0.0,0.0,0.0,0.0,0.0,0.0,0.0,0.0,0.0,0.0,0.0,0.0,0.0,0.0,0.0,0.0,0.0,0.0,0.0,0.0,0.0,0.0,0.0,0.0,0.0,0.0,0.0,0.0,0.0,0.0,0.0,0.0,0.0,0.0,0.0,0.0,0.0,0.0,0.0,0.0,0.0,0.0,0.0,0.0,0.0,0.0,0.0,0.0,0.0,0.0,0.0,0.0,0.0,0.0,1.8031,1.7844,1.7115,1.6475,1.5869,0.0,0.0,0.0,0.0,0.0,0.0,0.0,0.0,0.0,0.0,0.0,0.0,0.0,0.0,0.0,0.0,0.0,0.0,0.0,0.0,0.0,0.0,0.0,0.0,0.0,0.0,0.0,0.0,0.0,0.0,0.0,0.0,0.0,0.0,0.0,0.0,0.0,0.0,0.0,0.0,0.0,0.0,0.0,0.0,0.0,0.0,0.0,0.0,0.0,0.0,0.0,0.0,0.0,0.0,0.0,0.0,0.0,0.0,0.0,0.0,0.0,0.0,0.0,0.0,0.0,0.0,0.0,0.0,0.0,0.0,0.0,0.0,0.0,0.0,0.0,0.0,0.0,0.0,0.0,0.0,0.0,0.0,0.0,0.0,0.0,0.0,0.0,0.0,0.0,0.0,0.0,0.0,0.0,0.0,0.0,0.0,0.0,0.0,0.0,0.0,0.0,0.0,0.0,0.0,0.0,0.0,0.0,0.0,0.0,0.0,0.0,0.0,1.5783,1.5092,1.4879,0.0,0.0,0.0,0.0,0.0,0.0,0.0,0.0,0.0,0.0,0.0,0.0,0.0,0.0,0.0,0.0,0.0,0.0,0.0,0.0,0.0,0.0,0.0,0.0,0.0,0.0,0.0,0.0,0.0,0.0,0.0,0.0,0.0,0.0,0.0,0.0,0.0,0.0,0.0,0.0,0.0,0.0,0.0,0.0,0.0,0.0,0.0,0.0,0.0,0.0,0.0,0.0,0.0,0.0,0.0,0.0,0.0,0.0,0.0,0.0,0.0,0.0,0.0,0.0,0.0,0.0,0.0,0.0,0.0,0.0,0.0,0.0,0.0,0.0,0.0,0.0,0.0,0.0,0.0,0.0,0.0,0.0,0.0,0.0,0.0,0.0,0.0,0.0,0.0,0.0,0.0,0.0,0.0,0.0,0.0,0.0,0.0,0.0,0.0,0.0,0.0,0.0,0.0,0.0,0.0,0.0,0.0,0.0,0.0,0.0,1.636,1.5748,1.5345,0.0,1.3882,0.0,0.0,0.0,0.0,0.0,0.0,0.0,0.0,0.0,0.0,0.0,0.0,0.0,0.0,0.0,0.0,0.0,0.0,0.0,0.0,0.0,0.0,0.0,0.0,0.0,0.0,0.0,0.0,0.0,0.0,0.0,0.0,0.0,0.0,0.0,0.0,0.0,0.0,0.0,0.0,0.0,0.0,0.0,0.0,0.0,0.0,0.0,0.0,0.0,0.0,0.0,0.0,0.0,0.0,0.0,0.0,0.0,0.0,0.0,0.0,0.0,0.0,0.0,0.0,0.0,0.0,0.0,0.0,0.0,0.0,0.0,0.0,0.0,0.0,0.0,0.0,0.0,0.0,0.0,0.0,0.0,0.0,0.0,0.0,0.0,0.0,0.0,0.0,0.0,0.0,0.0,0.0,0.0,0.0,0.0,0.0,0.0,0.0,0.0,0.0,0.0,0.0,0.0,0.0,0.0,0.0,0.0,0.0,0.0,0.0,1.4497,1.3587,1.2365,1.1508,0.0,0.0,0.0,0.0,0.0,0.0,0.0,0.0,0.0,0.0,0.0,0.0,0.0,0.0,0.0,0.0,0.0,0.0,0.0,0.0,0.0,0.0,0.0,0.0,0.0,0.0,0.0,0.0,0.0,0.0,0.0,0.0,0.0,0.0,0.0,0.0,0.0,0.0,0.0,0.0,0.0,0.0,0.0,0.0,0.0,0.0,0.0,0.0,0.0,0.0,0.0,0.0,0.0,0.0,0.0,0.0,0.0,0.0,0.0,0.0,0.0,0.0,0.0,0.0,0.0,0.0,0.0,0.0,0.0,0.0,0.0,0.0,0.0,0.0,0.0,0.0,0.0,0.0,0.0,0.0,0.0,0.0,0.0,0.0,0.0,0.0,0.0,0.0,0.0,0.0,0.0,0.0,0.0,0.0,0.0,0.0,0.0,0.0,0.0,0.0,0.0,0.0,0.0,0.0,0.0,0.0,0.0,0.0,0.0,0.0,1.3863,1.2691,1.1428,1.0034,0.9296,0.9296,0.0,0.0,0.0,0.0,0.0,0.0,0.0,0.0,0.0,0.0,0.0,0.0,0.0,0.0,0.0,0.0,0.0,0.0,0.0,0.0,0.0,0.0,0.0,0.0,0.0,0.0,0.0,0.0,0.0,0.0,0.0,0.0,0.0,0.0,0.0,0.0,0.0,0.0,0.0,0.0,0.0,0.0,0.0,0.0,0.0,0.0,0.0,0.0,0.0,0.0,0.0,0.0,0.0,0.0,0.0,0.0,0.0,0.0,0.0,0.0,0.0,0.0,0.0,0.0,0.0,0.0,0.0,0.0,0.0,0.0,0.0,0.0,0.0,0.0,0.0,0.0,0.0,0.0,0.0,0.0,0.0,0.0,0.0,0.0,0.0,0.0,0.0,0.0,0.0,0.0,0.0,0.0,0.0,0.0,0.0,0.0,0.0,0.0,0.0,0.0,0.0,0.0,0.0,0.0,0.0,0.0,0.0,0.0,1.2585,1.2284,1.1354,0.9518,0.9291,0.9296,0.0,0.0,0.0,0.0,0.0,0.0,0.0,0.0,0.0,0.0,0.0,0.0,0.0,0.0,0.0,0.0,0.0,0.0,0.0,0.0,0.0,0.0,0.0,0.0,0.0,0.0,0.0,0.0,0.0,0.0,0.0,0.0,0.0,0.0,0.0,0.0,0.0,0.0,0.0,0.0,0.0,0.0,0.0,0.0,0.0,0.0,0.0,0.0,0.0,0.0,0.0,0.0,0.0,0.0,0.0,0.0,0.0,0.0,0.0,0.0,0.0,0.0,0.0,0.0,0.0,0.0,0.0,0.0,0.0,0.0,0.0,0.0,0.0,0.0,0.0,0.0,0.0,0.0,0.0,0.0,0.0,0.0,0.0,0.0,0.0,0.0,0.0,0.0,0.0,0.0,0.0,0.0,0.0,0.0,0.0,0.0,0.0,0.0,0.0,0.0,0.0,0.0,0.0,0.0,0.0,0.0,0.0,0.0,0.0,1.1085,1.0159,0.9565,0.9306,0.8023,0.735,0.0,0.0,0.0,0.0,0.0,0.0,0.0,0.0,0.0,0.0,0.0,0.0,0.0,0.0,0.0,0.0,0.0,0.0,0.0,0.0,0.0,0.0,0.0,0.0,0.0,0.0,0.0,0.0,0.0,0.0,0.0,0.0,0.0,0.0,0.0,0.0,0.0,0.0,0.0,0.0,0.0,0.0,0.0,0.0,0.0,0.0,0.0,0.0,0.0,0.0,0.0,0.0,0.0,0.0,0.0,0.0,0.0,0.0,0.0,0.0,0.0,0.0,0.0,0.0,0.0,0.0,0.0,0.0,0.0,0.0,0.0,0.0,0.0,0.0,0.0,0.0,0.0,0.0,0.0,0.0,0.0,0.0,0.0,0.0,0.0,0.0,0.0,0.0,0.0,0.0,0.0,0.0,0.0,0.0,0.0,0.0,0.0,0.0,0.0,0.0,0.0,0.0,0.0,0.0,0.0,0.0,0.0,0.0,0.0,0.9578,0.0,0.5425,0.7206,0.5796,0.5055,0.0,0.0,0.0,0.0,0.0,0.0,0.0,0.0,0.0,0.0,0.0,0.0,0.0,0.0,0.0,0.0,0.0,0.0,0.0,0.0,0.0,0.0,0.0,0.0,0.0,0.0,0.0,0.0,0.0,0.0,0.0,0.0,0.0,0.0,0.0,0.0,0.0,0.0,0.0,0.0,0.0,0.0,0.0,0.0,0.0,0.0,0.0,0.0,0.0,0.0,0.0,0.0,0.0,0.0,0.0,0.0,0.0,0.0,0.0,0.0,0.0,0.0,0.0,0.0,0.0,0.0,0.0,0.0,0.0,0.0,0.0,0.0,0.0,0.0,0.0,0.0,0.0,0.0,0.0,0.0,0.0,0.0,0.0,0.0,0.0,0.0,0.0,0.0,0.0,0.0,0.0,0.0,0.0,0.0,0.0,0.0,0.0,0.0,0.0,0.0,0.0,0.0,0.0,0.0,0.0,0.0,0.0,0.0,0.982,0.7961,0.1005,-0.0769,0.2797,0.2328,0.2373,0.0,0.0,0.0,0.0,0.0,0.0,0.0,0.0,0.0,0.0,0.0,0.0,0.0,0.0,0.0,0.0,0.0,0.0,0.0,0.0,0.0,0.0,0.0,0.0,0.0,0.0,0.0,0.0,0.0,0.0,0.0,0.0,0.0,0.0,0.0,0.0,0.0,0.0,0.0,0.0,0.0,0.0,0.0,0.0,0.0,0.0,0.0,0.0,0.0,0.0,0.0,0.0,0.0,0.0,0.0,0.0,0.0,0.0,0.0,0.0,0.0,0.0,0.0,0.0,0.0,0.0,0.0,0.0,0.0,0.0,0.0,0.0,0.0,0.0,0.0,0.0,0.0,0.0,0.0,0.0,0.0,0.0,0.0,0.0,0.0,0.0,0.0,0.0,0.0,0.0,0.0,0.0,0.0,0.0,0.0,0.0,0.0,0.0,0.0,0.0,0.0,0.0,0.0,0.0,0.0,0.0,0.0,0.0,0.0,0.2563,0.0233,-0.1706,-0.3244,-0.194,-0.0515,0.0,0.0,0.0,0.0,0.0,0.0,0.0,0.0,0.0,0.0,0.0,0.0,0.0,0.0,0.0,0.0,0.0,0.0,0.0,0.0,0.0,0.0,0.0,0.0,0.0,0.0,0.0,0.0,0.0,0.0,0.0,0.0,0.0,0.0,0.0,0.0,0.0,0.0,0.0,0.0,0.0,0.0,0.0,0.0,0.0,0.0,0.0,0.0,0.0,0.0,0.0,0.0,0.0,0.0,0.0,0.0,0.0,0.0,0.0,0.0,0.0,0.0,0.0,0.0,0.0,0.0,0.0,0.0,0.0,0.0,0.0,0.0,0.0,0.0,0.0,0.0,0.0,0.0,0.0,0.0,0.0,0.0,0.0,0.0,0.0,0.0,0.0,0.0,0.0,0.0,0.0,0.0,0.0,0.0,0.0,0.0,0.0,0.0,0.0,0.0,0.0,0.0,0.0,0.0,0.0,0.0,0.0,0.0,0.0,-0.3029,-0.3103,-0.4488,-0.7343,-0.5179,-0.3334,-0.2045,0.0,0.0,0.0,0.0,0.0,0.0,0.0,0.0,0.0,0.0,0.0,0.0,0.0,0.0,0.0,0.0,0.0,0.0,0.0,0.0,0.0,0.0,0.0,0.0,0.0,0.0,0.0,0.0,0.0,0.0,0.0,0.0,0.0,0.0,0.0,0.0,0.0,0.0,0.0,0.0,0.0,0.0,0.0,0.0,0.0,0.0,0.0,0.0,0.0,0.0,0.0,0.0,0.0,0.0,0.0,0.0,0.0,0.0,0.0,0.0,0.0,0.0,0.0,0.0,0.0,0.0,0.0,0.0,0.0,0.0,0.0,0.0,0.0,0.0,0.0,0.0,0.0,0.0,0.0,0.0,0.0,0.0,0.0,0.0,0.0,0.0,0.0,0.0,0.0,0.0,0.0,0.0,0.0,0.0,0.0,0.0,0.0,0.0,0.0,0.0,0.0,0.0,0.0,0.0,0.0,0.0,0.0,0.0,-0.8574,-0.8579,-0.8793,-0.9201,-0.7233,-0.5909,0.0,0.0,0.0,0.0,0.0,0.0,0.0,0.0,0.0,0.0,0.0,0.0,0.0,0.0,0.0,0.0,0.0,0.0,0.0,0.0,0.0,0.0,0.0,0.0,0.0,0.0,0.0,0.0,0.0,0.0,0.0,0.0,0.0,0.0,0.0,0.0,0.0,0.0,0.0,0.0,0.0,0.0,0.0,0.0,0.0,0.0,0.0,0.0,0.0,0.0,0.0,0.0,0.0,0.0,0.0,0.0,0.0,0.0,0.0,0.0,0.0,0.0,0.0,0.0,0.0,0.0,0.0,0.0,0.0,0.0,0.0,0.0,0.0,0.0,0.0,0.0,0.0,0.0,0.0,0.0,0.0,0.0,0.0,0.0,0.0,0.0,0.0,0.0,0.0,0.0,0.0,0.0,0.0,0.0,0.0,0.0,0.0,0.0,0.0,0.0,0.0,0.0,0.0,0.0,0.0,0.0,0.0,0.0,0.0,-1.248,-1.239,-1.1304,-0.9365,-0.8394,-0.7158,0.0,0.0,0.0,0.0,0.0,0.0,0.0,0.0,0.0,0.0,0.0,0.0,0.0,0.0,0.0,0.0,0.0,0.0,0.0,0.0,0.0,0.0,0.0,0.0,0.0,0.0,0.0,0.0,0.0,0.0,0.0,0.0,0.0,0.0,0.0,0.0,0.0,0.0,0.0,0.0,0.0,0.0,0.0,0.0,0.0,0.0,0.0,0.0,0.0,0.0,0.0,0.0,0.0,0.0,0.0,0.0,0.0,0.0,0.0,0.0,0.0,0.0,0.0,0.0,0.0,0.0,0.0,0.0,0.0,0.0,0.0,0.0,0.0,0.0,0.0,0.0,0.0,0.0,0.0,0.0,0.0,0.0,0.0,0.0,0.0,0.0,0.0,0.0,0.0,0.0,0.0,0.0,0.0,0.0,0.0,0.0,0.0,0.0,0.0,0.0,0.0,0.0,0.0,0.0,0.0,0.0,0.0,0.0,-1.2285,-1.393,-1.3924,-1.3177,-1.1544,-1.0527,-0.9237,0.0,0.0,0.0,0.0,0.0,0.0,0.0,0.0,0.0,0.0,0.0,0.0,0.0,0.0,0.0,0.0,0.0,0.0,0.0,0.0,0.0,0.0,0.0,0.0,0.0,0.0,0.0,0.0,0.0,0.0,0.0,0.0,0.0,0.0,0.0,0.0,0.0,0.0,0.0,0.0,0.0,0.0,0.0,0.0,0.0,0.0,0.0,0.0,0.0,0.0,0.0,0.0,0.0,0.0,0.0,0.0,0.0,0.0,0.0,0.0,0.0,0.0,0.0,0.0,0.0,0.0,0.0,0.0,0.0,0.0,0.0,0.0,0.0,0.0,0.0,0.0,0.0,0.0,0.0,0.0,0.0,0.0,0.0,0.0,0.0,0.0,0.0,0.0,0.0,0.0,0.0,0.0,0.0,0.0,0.0,0.0,0.0,0.0,0.0,0.0,0.0,0.0,0.0,0.0,0.0,0.0,0.0,0.0,-1.3633,-1.3859,-1.4474,-1.473,-1.456,-1.291,-1.1451,0.0,0.0,0.0,0.0,0.0,0.0,0.0,0.0,0.0,0.0,0.0,0.0,0.0,0.0,0.0,0.0,0.0,0.0,0.0,0.0,0.0,0.0,0.0,0.0,0.0,0.0,0.0,0.0,0.0,0.0,0.0,0.0,0.0,0.0,0.0,0.0,0.0,0.0,0.0,0.0,0.0,0.0,0.0,0.0,0.0,0.0,0.0,0.0,0.0,0.0,0.0,0.0,0.0,0.0,0.0,0.0,0.0,0.0,0.0,0.0,0.0,0.0,0.0,0.0,0.0,0.0,0.0,0.0,0.0,0.0,0.0,0.0,0.0,0.0,0.0,0.0,0.0,0.0,0.0,0.0,0.0,0.0,0.0,0.0,0.0,0.0,0.0,0.0,0.0,0.0,0.0,0.0,0.0,0.0,0.0,0.0,0.0,0.0,0.0,0.0,0.0,0.0,0.0,0.0,0.0,0.0,0.0,0.0,-1.4085,-1.5368,-1.6303,-1.6252,-1.5129,-1.3173,-1.1692,0.0,0.0,0.0,0.0,0.0,0.0,0.0,0.0,0.0,0.0,0.0,0.0,0.0,0.0,0.0,0.0,0.0,0.0,0.0,0.0,0.0,0.0,0.0,0.0,0.0,0.0,0.0,0.0,0.0,0.0,0.0,0.0,0.0,0.0,0.0,0.0,0.0,0.0,0.0,0.0,0.0,0.0,0.0,0.0,0.0,0.0,0.0,0.0,-1.7392,0.0,0.0,0.0,0.0,0.0,0.0,0.0,0.0,0.0,0.0,0.0,0.0,0.0,0.0,0.0,0.0,0.0,0.0,0.0,0.0,0.0,0.0,0.0,0.0,0.0,0.0,0.0,0.0,0.0,0.0,0.0,0.0,0.0,0.0,0.0,0.0,0.0,0.0,0.0,0.0,0.0,0.0,0.0,0.0,0.0,0.0,0.0,0.0,0.0,0.0,0.0,0.0,0.0,0.0,0.0,0.0,0.0,0.0,0.0,-1.5264,-1.659,-1.6908,-1.659,-1.5701,-1.4027,-1.2656,0.0,0.0,0.0,0.0,0.0,0.0,0.0,0.0,0.0,0.0,0.0,0.0,0.0,0.0,0.0,0.0,0.0,0.0,0.0,0.0,0.0,0.0,0.0,0.0,0.0,0.0,0.0,0.0,0.0,0.0,0.0,0.0,0.0,0.0,0.0,0.0,0.0,0.0,0.0,0.0,0.0,0.0,0.0,0.0,0.0,0.0,0.0,0.0,0.0,0.0,0.0,0.0,0.0,0.0,0.0,0.0,0.0,0.0,0.0,0.0,0.0,0.0,0.0,0.0,0.0,0.0,0.0,0.0,0.0,0.0,0.0,0.0,0.0,0.0,0.0,0.0,0.0,0.0,0.0,0.0,0.0,0.0,0.0,0.0,0.0,0.0,0.0,0.0,0.0,0.0,0.0,0.0,0.0,0.0,0.0,0.0,0.0,0.0,0.0,0.0,0.0,0.0,0.0,0.0,0.0,0.0,0.0,-1.5197,-1.6458,-1.7168,-1.6816,-1.6416,-1.5977,-1.4934,-1.3752,-1.2353,0.0,0.0,0.0,0.0,0.0,0.0,0.0,0.0,0.0,0.0,0.0,0.0,0.0,0.0,0.0,0.0,0.0,0.0,0.0,0.0,0.0,0.0,0.0,0.0,0.0,0.0,0.0,0.0,0.0,0.0,0.0,0.0,0.0,0.0,0.0,0.0,0.0,0.0,-1.6821,-2.0375,0.0,0.0,0.0,0.0,0.0,0.0,0.0,0.0,-2.2033,0.0,0.0,0.0,0.0,0.0,0.0,0.0,0.0,0.0,0.0,0.0,0.0,0.0,0.0,0.0,0.0,0.0,0.0,0.0,0.0,0.0,0.0,0.0,0.0,0.0,0.0,0.0,0.0,0.0,0.0,0.0,0.0,0.0,0.0,0.0,0.0,0.0,0.0,0.0,0.0,0.0,0.0,0.0,0.0,0.0,0.0,0.0,0.0,0.0,0.0,0.0,0.0,0.0,0.0,0.0,0.0,-1.4336,-1.5416,-1.6048,-1.6299,-1.6272,-1.5967,-1.5537,-1.5332,-1.4478,-1.2899,0.0,0.0,0.0,0.0,0.0,0.0,0.0,0.0,0.0,0.0,0.0,0.0,0.0,0.0,0.0,0.0,0.0,0.0,0.0,0.0,0.0,0.0,0.0,0.0,0.0,0.0,0.0,0.0,0.0,0.0,0.0,0.0,0.0,0.0,0.0,0.0,0.0,0.0,0.0,-2.4545,-2.5722,0.0,0.0,0.0,0.0,0.0,0.0,0.0,0.0,-2.2837,0.0,0.0,0.0,0.0,0.0,0.0,0.0,0.0,0.0,0.0,0.0,0.0,0.0,0.0,0.0,0.0,0.0,0.0,0.0,0.0,0.0,0.0,0.0,0.0,0.0,0.0,0.0,0.0,0.0,0.0,0.0,0.0,0.0,0.0,0.0,0.0,0.0,0.0,0.0,0.0,0.0,0.0,0.0,0.0,0.0,0.0,0.0,0.0,0.0,0.0,0.0,0.0,0.0,0.0,0.0,-1.4542,-1.6296,-1.7076,-1.6698,-1.6657,-1.6435,-1.5999,-1.5584,-1.4638,0.0,0.0,0.0,0.0,0.0,0.0,0.0,0.0,0.0,0.0,0.0,0.0,0.0,0.0,0.0,0.0,0.0,0.0,0.0,0.0,0.0,0.0,0.0,0.0,0.0,0.0,0.0,0.0,0.0,0.0,0.0,0.0,0.0,0.0,0.0,0.0,0.0,0.0,0.0,0.0,-2.7886,-2.9001,-2.9392,0.0,0.0,0.0,0.0,0.0,0.0,-2.5752,-2.526,0.0,0.0,0.0,0.0,0.0,0.0,0.0,0.0,0.0,0.0,0.0,0.0,0.0,0.0,0.0,0.0,0.0,0.0,0.0,0.0,0.0,0.0,0.0,0.0,0.0,0.0,0.0,0.0,0.0,0.0,0.0,0.0,0.0,0.0,0.0,0.0,0.0,0.0,0.0,0.0,0.0,0.0,0.0,0.0,0.0,0.0,0.0,0.0,0.0,0.0,0.0,0.0,0.0,0.0,0.0,-1.4993,-1.7233,-1.7978,-1.7286,-1.7116,-1.6811,-1.6275,-1.569,-1.4628,0.0,0.0,0.0,0.0,0.0,0.0,0.0,0.0,0.0,0.0,0.0,0.0,0.0,0.0,0.0,0.0,0.0,0.0,0.0,0.0,0.0,0.0,0.0,0.0,0.0,0.0,0.0,0.0,0.0,0.0,0.0,0.0,0.0,0.0,0.0,0.0,0.0,0.0,0.0,0.0,0.0,-3.1827,-3.1717,-3.1325,0.0,0.0,0.0,0.0,-2.7276,-2.7686,0.0,0.0,0.0,0.0,0.0,0.0,0.0,0.0,0.0,0.0,0.0,0.0,0.0,0.0,0.0,0.0,0.0,0.0,0.0,0.0,0.0,0.0,0.0,0.0,0.0,0.0,0.0,0.0,0.0,0.0,0.0,0.0,0.0,0.0,0.0,0.0,0.0,0.0,0.0,0.0,0.0,0.0,0.0,0.0,0.0,0.0,0.0,0.0,0.0,0.0,0.0,0.0,0.0,0.0,0.0,0.0,-1.6389,-1.7397,-1.7708,-1.7362,-1.6835,-1.6269,-1.5526,-1.5459,-1.4628,0.0,0.0,0.0,0.0,0.0,0.0,0.0,0.0,0.0,0.0,0.0,0.0,0.0,0.0,0.0,0.0,0.0,0.0,0.0,0.0,0.0,0.0,0.0,0.0,0.0,0.0,0.0,0.0,0.0,0.0,0.0,0.0,0.0,0.0,0.0,0.0,0.0,0.0,0.0,0.0,0.0,-3.3157,-3.2556,-3.2426,-3.1867,0.0,0.0,-3.0101,-2.9942,-3.0058,0.0,0.0,0.0,0.0,0.0,0.0,0.0,0.0,0.0,0.0,0.0,0.0,0.0,0.0,0.0,0.0,0.0,0.0,0.0,0.0,0.0,0.0,0.0,0.0,0.0,0.0,0.0,0.0,0.0,0.0,0.0,0.0,0.0,0.0,0.0,0.0,0.0,0.0,0.0,0.0,0.0,0.0,0.0,0.0,0.0,0.0,0.0,0.0,0.0,0.0,0.0,0.0,0.0,0.0,0.0,-1.5936,-1.6626,-1.7665,-1.8126,-1.8,-1.7295,-1.6763,-1.6422,-1.5771,-1.4731,0.0,0.0,0.0,0.0,0.0,0.0,0.0,0.0,0.0,0.0,0.0,0.0,0.0,0.0,0.0,0.0,0.0,0.0,0.0,0.0,0.0,0.0,0.0,0.0,0.0,0.0,0.0,0.0,0.0,0.0,0.0,0.0,0.0,0.0,0.0,0.0,0.0,0.0,0.0,0.0,0.0,0.0,-3.4762,-3.4497,0.0,0.0,0.0,-3.1651,-3.1662,0.0,0.0,0.0,0.0,0.0,0.0,0.0,0.0,0.0,0.0,0.0,0.0,0.0,0.0,0.0,0.0,0.0,0.0,0.0,0.0,0.0,0.0,0.0,0.0,0.0,0.0,0.0,0.0,0.0,0.0,0.0,0.0,0.0,0.0,0.0,0.0,0.0,0.0,0.0,0.0,0.0,0.0,0.0,0.0,0.0,0.0,0.0,0.0,0.0,0.0,0.0,0.0,0.0,0.0,0.0,0.0,0.0,-1.7417,-1.8522,-1.901,-1.8701,-1.7919,-1.7307,-1.6711,-1.5869,0.0,0.0,0.0,0.0,0.0,0.0,0.0,0.0,0.0,0.0,0.0,0.0,0.0,0.0,0.0,0.0,0.0,0.0,0.0,0.0,0.0,0.0,0.0,0.0,0.0,0.0,0.0,-1.3943,0.0,0.0,0.0,0.0,0.0,0.0,0.0,0.0,0.0,0.0,0.0,0.0,0.0,0.0,-3.5796,-3.6487,-3.6271,-3.5734,0.0,0.0,-3.2907,-3.2725,-3.271,-3.238,0.0,0.0,0.0,0.0,0.0,0.0,0.0,0.0,0.0,0.0,0.0,0.0,0.0,0.0,0.0,0.0,0.0,0.0,0.0,0.0,0.0,0.0,0.0,0.0,0.0,0.0,0.0,0.0,0.0,0.0,0.0,0.0,0.0,0.0,0.0,0.0,0.0,0.0,0.0,0.0,0.0,0.0,0.0,0.0,0.0,0.0,0.0,0.0,0.0,0.0,0.0,0.0,0.0,0.0,0.0,-1.9614,-2.0404,-2.0296,-1.9247,-1.8723,-1.7474,-1.5585,-1.543,-1.501,0.0,0.0,0.0,0.0,0.0,0.0,0.0,0.0,0.0,0.0,0.0,0.0,0.0,0.0,0.0,0.0,0.0,0.0,0.0,0.0,0.0,0.0,0.0,0.0,0.0,0.0,0.0,0.0,0.0,0.0,0.0,0.0,0.0,0.0,0.0,0.0,0.0,0.0,0.0,0.0,0.0,-3.5745,-3.697,-3.7097,-3.6796,0.0,0.0,-3.3827,-3.317,-3.3236,-3.2664,-3.0714,0.0,0.0,0.0,0.0,0.0,0.0,0.0,0.0,0.0,0.0,0.0,0.0,0.0,0.0,0.0,0.0,0.0,0.0,0.0,0.0,0.0,0.0,0.0,0.0,0.0,0.0,0.0,0.0,0.0,0.0,0.0,0.0,0.0,0.0,0.0,0.0,0.0,0.0,0.0,0.0,0.0,0.0,0.0,0.0,0.0,0.0,0.0,0.0,0.0,0.0,0.0,0.0,0.0,-1.7617,-1.9071,-1.9147,-1.9052,-1.8884,-1.8176,-1.7276,-1.623,-1.5947,-1.5441,0.0,0.0,0.0,0.0,0.0,0.0,0.0,0.0,0.0,0.0,0.0,0.0,0.0,0.0,0.0,0.0,0.0,0.0,0.0,0.0,0.0,0.0,0.0,0.0,0.0,0.0,0.0,0.0,-2.1003,-2.2623,-2.5409,0.0,0.0,0.0,0.0,0.0,0.0,0.0,0.0,0.0,0.0,-3.6577,-3.7506,-3.7649,0.0,0.0,-3.6575,-3.5741,-3.4627,-3.457,-3.3939,-3.1849,-3.1398,0.0,0.0,0.0,0.0,0.0,0.0,0.0,0.0,0.0,0.0,0.0,0.0,0.0,0.0,0.0,0.0,0.0,0.0,0.0,0.0,0.0,0.0,0.0,0.0,0.0,0.0,0.0,0.0,0.0,0.0,0.0,0.0,0.0,0.0,0.0,0.0,0.0,0.0,0.0,0.0,0.0,0.0,0.0,0.0,0.0,0.0,0.0,0.0,0.0,0.0,0.0,0.0,-1.8049,-1.8805,-1.9076,-1.8947,-1.8606,-1.806,-1.7417,-1.6738,-1.6299,-1.5872,0.0,0.0,0.0,0.0,0.0,0.0,0.0,0.0,0.0,0.0,0.0,0.0,0.0,0.0,0.0,0.0,0.0,0.0,0.0,0.0,0.0,0.0,0.0,0.0,0.0,0.0,0.0,0.0,-2.3443,-2.5149,-2.7193,0.0,0.0,0.0,0.0,0.0,0.0,0.0,0.0,0.0,0.0,-3.6874,-3.7935,-3.8047,-3.7946,-3.7893,-3.7237,-3.6376,-3.5439,-3.5161,-3.4501,-3.2887,0.0,0.0,0.0,0.0,0.0,0.0,0.0,0.0,0.0,0.0,0.0,0.0,0.0,0.0,0.0,0.0,0.0,0.0,0.0,0.0,0.0,0.0,0.0,0.0,0.0,0.0,0.0,0.0,0.0,0.0,-1.637,0.0,0.0,0.0,0.0,0.0,0.0,0.0,0.0,0.0,0.0,0.0,0.0,0.0,0.0,0.0,0.0,0.0,0.0,0.0,0.0,0.0,0.0,-1.9561,-1.9267,-2.0782,-2.0671,-1.8691,-1.8542,-1.7974,-1.6758,-1.6309,-1.6125,-1.6064,0.0,0.0,0.0,0.0,0.0,0.0,0.0,0.0,0.0,0.0,0.0,0.0,0.0,0.0,0.0,0.0,0.0,0.0,0.0,0.0,0.0,0.0,0.0,0.0,0.0,0.0,-2.3034,-2.5572,-2.7294,0.0,0.0,0.0,0.0,0.0,0.0,0.0,0.0,0.0,0.0,-3.5598,-3.6372,-3.837,-3.8216,-3.791,-3.7928,-3.6516,-3.5387,-3.5352,-3.4762,-3.4024,0.0,0.0,0.0,0.0,0.0,0.0,0.0,0.0,0.0,0.0,0.0,0.0,0.0,0.0,0.0,0.0,0.0,0.0,0.0,0.0,0.0,0.0,0.0,0.0,0.0,0.0,0.0,-1.7491,-1.782,0.0,0.0,0.0,0.0,0.0,0.0,0.0,0.0,0.0,0.0,0.0,-1.6454,-1.718,0.0,0.0,0.0,0.0,0.0,0.0,0.0,0.0,0.0,0.0,0.0,0.0,-1.8273,-1.8432,-1.9044,-1.8971,-1.8241,-1.8175,-1.7843,-1.7178,-1.7021,-1.666,-1.6084,0.0,0.0,0.0,0.0,0.0,0.0,0.0,0.0,0.0,0.0,0.0,0.0,0.0,0.0,0.0,0.0,0.0,0.0,0.0,0.0,0.0,0.0,0.0,0.0,0.0,-2.4968,0.0,0.0,0.0,0.0,0.0,0.0,0.0,0.0,0.0,0.0,0.0,-3.4035,-3.5403,-3.5866,-3.6534,-3.7753,-3.7741,-3.7794,0.0,0.0,0.0,0.0,0.0,0.0,0.0,0.0,0.0,0.0,0.0,0.0,0.0,0.0,-3.5049,-3.2736,-3.1934,-3.1498,-3.1009,0.0,0.0,0.0,0.0,0.0,0.0,0.0,0.0,0.0,0.0,0.0,0.0,0.0,0.0,-1.9664,0.0,-1.8954,0.0,0.0,0.0,0.0,0.0,0.0,0.0,0.0,-1.8592,-1.8807,-1.795,-1.9354,-1.9964,0.0,-1.8745,-1.7767,0.0,0.0,0.0,0.0,0.0,0.0,0.0,0.0,-1.8058,-1.7998,-1.8269,-1.8269,-1.8008,-1.8008,-1.7803,-1.7402,-1.7236,-1.6816,-1.6084,-1.5771,-1.5523,0.0,0.0,0.0,0.0,0.0,0.0,0.0,0.0,0.0,0.0,0.0,0.0,0.0,0.0,0.0,0.0,0.0,0.0,0.0,0.0,0.0,0.0,0.0,-2.6887,0.0,0.0,0.0,0.0,0.0,0.0,0.0,0.0,0.0,-3.3246,-3.369,-3.4558,-3.6072,-3.6285,-3.667,-3.7753,0.0,0.0,0.0,0.0,0.0,0.0,0.0,-3.7094,-3.59,-3.53,-3.5357,-3.6469,-3.7655,-3.8122,-3.7222,0.0,0.0,-3.4954,-3.4072,-3.3616,-3.3113,-3.3161,-3.3161,-3.2756,-3.2964,-3.3074,0.0,0.0,0.0,0.0,0.0,0.0,0.0,0.0,-2.3514,-2.337,0.0,-2.2408,0.0,0.0,0.0,0.0,0.0,-1.937,0.0,0.0,-2.1141,-2.1559,-2.0848,-2.2178,-2.3112,-2.337,-2.1174,-2.0054,-2.0065,-1.9575,0.0,0.0,0.0,0.0,0.0,0.0,-1.8854,-1.8076,-1.8787,-1.8854,-1.8008,-1.8008,-1.7822,-1.7422,-1.6992,-1.6572,-1.6152,-1.6514,-1.6319,-1.557,-1.5151,0.0,0.0,0.0,0.0,0.0,0.0,0.0,0.0,0.0,0.0,0.0,0.0,0.0,0.0,0.0,0.0,0.0,0.0,0.0,0.0,-2.7554,0.0,0.0,0.0,0.0,0.0,0.0,0.0,0.0,0.0,0.0,-3.377,-3.3562,-3.4359,-3.7118,0.0,0.0,0.0,0.0,-3.791,-3.7928,-3.7542,-3.7266,-3.7248,-3.7614,-3.7755,-3.7305,0.0,0.0,-3.7248,-3.8373,-3.8837,-3.7679,-3.7923,-3.8336,-3.7725,-3.6417,-3.5613,-3.5547,-3.4969,-3.4591,-3.4539,-3.433,-3.4182,-2.7339,0.0,0.0,0.0,0.0,-2.4857,-2.4975,-2.5569,-2.4108,-2.3704,-2.4035,-2.3081,0.0,0.0,0.0,0.0,0.0,0.0,-2.168,-2.1886,-2.2446,-2.2661,-2.2694,-2.2731,-2.3368,-2.429,-2.2053,-2.073,-2.0467,-2.0926,-2.0074,-1.8076,0.0,0.0,0.0,0.0,-1.8269,-1.8018,-1.8269,-1.8269,-1.8008,-1.8008,-1.7959,-1.7832,-1.7412,-1.7139,-1.7012,-1.6836,-1.6602,-1.6329,-1.5679,0.0,0.0,0.0,0.0,0.0,0.0,0.0,0.0,0.0,0.0,0.0,0.0,0.0,0.0,0.0,0.0,0.0,0.0,0.0,-2.7739,-2.8607,-2.9444,0.0,0.0,0.0,0.0,0.0,0.0,0.0,0.0,0.0,-3.4177,-3.5423,-3.6582,0.0,0.0,-3.7342,-3.7771,-3.7717,-3.7807,-3.8392,-3.835,0.0,-3.8285,-3.8083,-3.798,-3.8252,-3.8484,-3.8367,-3.7374,-3.7506,-3.7464,-3.6517,-3.6057,-3.5752,-3.5667,-3.5651,-3.5549,-3.5385,-3.4922,-3.437,-3.3917,-3.4148,-3.4269,-2.9192,-2.862,-2.7452,-2.6977,-2.6879,-2.5984,-2.5952,-2.6465,-2.5205,-2.4885,-2.5152,-2.4291,-2.3514,-2.2669,-2.233,0.0,0.0,0.0,-2.2293,-2.2215,-2.2822,-2.3202,-2.3514,-2.3514,-2.3727,-2.4001,-2.2208,-2.1144,-2.0882,-2.0551,-1.9562,-1.8076,0.0,0.0,-1.8529,-1.8134,-1.8008,-1.8008,-1.8008,-1.8008,-1.8008,-1.7676,-1.7422,-1.7246,-1.7158,-1.7129,-1.7129,-1.7207,-1.7246,-1.7236,-1.6598,-1.6498,0.0,0.0,0.0,0.0,0.0,0.0,0.0,0.0,0.0,0.0,0.0,-2.0475,-2.181,0.0,0.0,0.0,-2.7075,-2.8403,-2.9496,-3.0058,0.0,0.0,0.0,0.0,0.0,0.0,0.0,-3.3407,-3.3713,-3.4091,-3.46,-3.601,-3.7019,-3.7019,-3.6725,-3.6673,-3.7128,0.0,-3.7243,-3.7819,-3.7824,-3.7753,-3.7734,-3.7484,-3.7385,-3.7704,-3.7849,-3.7718,-3.6998,-3.6804,-3.6521,-3.5882,-3.5331,-3.501,-3.501,-3.4923,-3.4887,-3.5018,-3.4827,-3.4433,-3.4002,-3.4295,-3.4341,-3.0389,-3.0162,-2.849,-2.7732,-2.7604,-2.685,-2.6521,-2.6521,-2.6452,-2.6521,-2.6414,-2.585,-2.4872,-2.3587,-2.2613,0.0,-2.1686,-2.2524,-2.2376,-2.1519,-2.2854,-2.349,-2.3634,-2.4352,-2.4179,-2.3091,-2.2069,-2.1479,-2.1361,-1.9442,-1.8337,-1.8269,-1.9814,-2.0139,-1.9243,-1.8405,-1.8008,-1.8008,-1.8008,-1.8008,-1.7998,-1.7142,-1.6592,-1.6201,-1.6504,-1.6626,-1.6685,-1.749,-1.792,-1.7949,-1.7684,-1.7841,-1.8521,0.0,0.0,0.0,0.0,0.0,0.0,0.0,0.0,0.0,0.0,0.0,0.0,0.0,0.0,0.0,-2.962,0.0,-3.1219,-3.1637,0.0,0.0,0.0,-3.2887,-3.3644,-3.3468,-3.3286,-3.3243,0.0,0.0,-3.4899,-3.5605,-3.6101,-3.6101,-3.5532,-3.5496,-3.6512,-3.6491,-3.6408,-3.6708,-3.6509,-3.6332,-3.645,-3.6402,-3.6402,-3.645,-3.6285,-3.6366,-3.6318,-3.6219,-3.5999,-3.5553,-3.5417,-3.5295,-3.5331,-3.4396,-3.3842,-3.4499,-3.4606,-3.4553,-3.4376,-3.4464,-3.4196,-3.0837,-3.0211,-2.9157,-2.8318,-2.767,-2.685,-2.6521,-2.6521,-2.6521,-2.6521,-2.6414,-2.585,-2.5194,-2.4514,-2.4239,-2.4059,-2.4014,-2.4206,-2.4181,-2.3949,-2.4279,-2.4476,-2.4507,-2.4293,-2.3792,-2.3083,-2.2801,-2.2406,-2.1792,-2.1862,-2.1215,-2.0074,-2.0398,-1.9824,-1.8327,-1.8076,-1.8008,-1.8008,-1.8008,-1.8008,-1.7988,-1.7329,-1.7009,-1.7061,-1.6514,-1.6377,-1.6655,-1.6914,-1.7187,-1.7519,-1.838,-1.8788,-1.8617,-1.8613,0.0,0.0,0.0,0.0,0.0,0.0,0.0,0.0,0.0,-2.3686,-2.5584,0.0,-2.7698,0.0,-3.0482,-3.1585,-3.1919,-3.2192,0.0,0.0,-3.3644,-3.344,-3.3746,-3.3924,-3.3942,-3.3698,-3.3899,-3.41,-3.4082,-3.4266,-3.4394,-3.4412,-3.5312,-3.6093,-3.6362,-3.6535,-3.6562,-3.6408,-3.648,-3.6535,-3.6297,-3.6285,-3.6277,-3.6285,-3.6266,-3.6285,-3.6285,-3.5734,-3.5255,-3.5096,-3.4603,-3.4256,-3.4256,-3.3933,-3.384,-3.3964,-3.3938,-3.367,-3.3156,-3.3474,-3.3634,-3.1029,-3.0225,-2.9377,-2.8512,-2.7604,-2.685,-2.6314,-2.6076,-2.6063,-2.5965,-2.5679,-2.5096,-2.4848,-2.4808,-2.4569,-2.4456,-2.4456,-2.4456,-2.4318,-2.4067,-2.4004,-2.4041,-2.405,-2.3728,-2.3441,-2.3078,-2.275,-2.231,-2.1877,-2.1542,-2.1164,-2.059,-2.0204,-1.9748,-1.9177,-1.8405,-1.8221,-1.8735,-1.8782,-1.8312,-1.7451,-1.7122,-1.6908,-1.6797,-1.6318,-1.6269,-1.6709,-1.7034,-1.7143,-1.7145,-1.8053,-1.8776,-1.9154,-1.8879,-1.8952,0.0,0.0,0.0,0.0,0.0,0.0,0.0,0.0,0.0,0.0,0.0,-2.8841,-2.9852,-3.1281,-3.2179,-3.2345,-3.2629,-3.3243,-3.4303,-3.397,-3.387,-3.4284,-3.4152,-3.4053,-3.3972,-3.3986,-3.4037,-3.4184,-3.4208,-3.4208,-3.4189,-3.5008,-3.5578,-3.5578,-3.5707,-3.5783,-3.5759,-3.5801,-3.5778,-3.5603,-3.5578,-3.5578,-3.5578,-3.5597,-3.5578,-3.5578,-3.5188,-3.4872,-3.4835,-3.4383,-3.3986,-3.3986,-3.385,-3.3807,-3.3789,-3.3746,-3.3538,-3.3165,-3.3399,-3.3432,-3.0837,-3.0086,-2.9185,-2.8322,-2.7471,-2.6735,-2.6093,-2.5586,-2.5523,-2.5177,-2.4645,-2.4217,-2.4213,-2.4556,-2.4104,-2.3891,-2.3891,-2.3879,-2.3615,-2.3138,-2.3125,-2.3125,-2.3125,-2.3125,-2.3125,-2.3065,-2.2384,-2.2002,-2.1877,-2.0462,-2.0107,-2.0616,-1.9977,-2.0064,-2.0834,-1.9239,-1.8771,-1.9645,-1.9557,-1.8668,-1.6914,-1.6782,-1.6631,-1.6311,-1.6243,-1.6338,-1.6709,-1.7377,-1.7532,-1.6997,-1.7708,-1.8757,-2.007,-1.9304,-1.9633,0.0,-2.1607,0.0,0.0,0.0,0.0,0.0,0.0,0.0,0.0,-2.9576,-3.0084,-3.0903,-3.1952,-3.2619,-3.2725,-3.3081,-3.3669,-3.4431,-3.4165,-3.4197,-3.4833,-3.4326,-3.4012,-3.4223,-3.4246,-3.4398,-3.4632,-3.4694,-3.4694,-3.4672,-3.4751,-3.4884,-3.4791,-3.4848,-3.4926,-3.5053,-3.487,-3.486,-3.4783,-3.4747,-3.4747,-3.473,-3.4785,-3.4694,-3.4747,-3.4749,-3.4693,-3.4691,-3.4483,-3.4288,-3.4265,-3.4043,-3.3868,-3.3868,-3.3715,-3.3625,-3.3698,-3.3579,-3.3386,-3.0011,-2.9164,-2.8315,-2.7485,-2.665,-2.6031,-2.5671,-2.5561,-2.5159,-2.4668,-2.4179,-2.4073,-2.3793,-2.3452,-2.3351,-2.3288,-2.324,-2.3228,-2.319,-2.3125,-2.3125,-2.3125,-2.3125,-2.3125,-2.3125,-2.3065,-2.2944,-2.2506,-2.1951,-2.2249,-2.2017,-2.1305,-2.1371,-2.1911,-2.2791,0.0,0.0,0.0,-1.8694,-1.8142,-1.7764,-1.7432,-1.7227,-1.7129,-1.6787,0.0,-1.6728,-1.7199,-1.7755,-1.8237,-1.9403,0.0,0.0,0.0,0.0,0.0,0.0,0.0,0.0,0.0,0.0,0.0,-2.9114,-2.9859,-3.0074,-3.0897,-3.1442,-3.1509,-3.2444,-3.3363,-3.3975,-3.4028,-3.434,-3.5162,-3.4834,-3.4602,-3.4733,-3.4602,-3.4569,-3.4612,-3.4593,-3.4614,-3.4694,-3.4694,-3.4713,-3.4734,-3.4889,-3.5016,-3.5035,-3.5016,-3.4963,-3.4813,-3.4793,-3.4714,-3.4694,-3.4714,-3.4734,-3.4694,-3.4694,-3.4714,-3.4714,-3.4733,-3.4713,-3.4714,-3.4653,-3.4593,-3.4612,-3.4334,-3.4067,-3.4123,-3.3444,-3.3036,-3.3642,-3.3275,-3.2782,-2.9813,0.0,-2.803,-2.7223,0.0,-2.5608,-2.5201,-2.5172,-2.4644,-2.4104,-2.3565,-2.3583,-2.3371,-2.3125,-2.3125,-2.3125,-2.3125,-2.3125,-2.3125,-2.3125,-2.3125,-2.3125,-2.3125,-2.3125,-2.3125,-2.3125,-2.3125,-2.2871,-2.2506,-2.2506,-2.2456,-2.2246,-2.1996,-2.2151,-2.2638,-2.1289,-2.0398,-1.9955,-1.9497,-1.9194,-1.8952,-1.8742,-1.8435,-1.7985,-1.7559,0.0,0.0,0.0,0.0,0.0,0.0,0.0,0.0,0.0,0.0,-2.2246,-2.2218,-2.3757,-2.7267,-2.7504,-2.786,-2.8793,-3.0203,-3.1072,-3.1072,-3.1951,-3.2563,-3.2608,-3.3284,-3.3942,-3.4485,-3.4489,-3.4633,-3.5027,-3.4875,-3.4694,-3.4694,-3.4694,-3.4754,-3.4889,-3.4908,-3.4944,-3.5088,-3.5086,-3.5105,-3.5105,-3.5207,-3.5289,-3.5304,-3.5289,-3.5223,-3.5124,-3.5105,-3.5086,-3.5105,-3.5105,-3.5088,-3.5105,-3.5105,-3.5069,-3.5105,-3.5105,-3.5088,-3.5088,-3.4981,-3.4908,-3.4851,-3.4334,-3.3761,-3.3552,-3.285,-3.2293,-3.2573,-3.2284,-3.1931,-2.9827,-2.8911,-2.8066,-2.717,-2.6226,-2.5247,-2.4707,-2.4494,0.0,0.0,0.0,-2.3125,-2.3125,-2.3125,-2.3125,-2.3125,-2.3125,-2.3125,-2.3125,-2.3125,-2.3125,-2.3125,-2.3125,-2.3125,-2.3125,-2.3125,-2.3125,-2.3125,-2.3078,-2.2433,-2.2494,-2.3142,-2.2506,-2.2137,-2.2063,-2.1239,-2.091,-2.1026,-2.0782,-2.0389,-2.0048,-1.9861,-1.9473,-1.8721,-1.8249,-1.7869,-1.7537,-1.7879,-1.8165,-1.8475,-1.9199,-2.0165,-2.1428,-2.1114,-2.1522,-2.2988,-2.3577,-2.4936,-2.7413,-2.8415,-2.915,-2.9783,-3.1138,-3.1933,-3.1933,-3.2741,-3.3403,-3.3703,-3.4067,-3.4401,-3.4674,-3.4734,-3.4773,-3.4754,-3.4832,-3.4851,-3.4851,-3.4832,-3.4944,-3.5141,-3.5155,-3.5239,-3.5446,-3.546,-3.5507,-3.5493,-3.546,-3.5507,-3.5507,-3.5474,-3.546,-3.5446,-3.5412,-3.546,-3.5474,-3.546,-3.5507,-3.5446,-3.546,-3.5507,-3.5507,-3.5507,-3.5507,-3.5446,-3.5304,-3.519,-3.51,-3.4244,-3.3369,-3.3103,-3.2222,-3.1473,-3.1238,-3.1054,-3.0906,-2.9752,-2.8889,-2.8093,-2.6921,-2.5661,-2.5071,-2.428,-2.3376,-2.3288,-2.314,-2.3125,-2.3125,-2.3125,-2.3125,-2.3125,-2.3125,-2.3125,-2.3125,-2.3125,-2.3125,-2.3125,-2.3125,-2.3125,-2.3125,-2.3125,-2.3125,-2.3065,-2.3125,-2.3065,-2.3005,-2.3255,-2.3691,-2.3255,-2.2884,-2.2871,-2.2125,-2.2063,-2.2689,-2.1353,-2.0557,-2.049,-1.9792,-1.9325,-1.9204,-1.8435,-1.7976,-1.791,-1.868,-1.9425,-2.0198,-2.1019,-2.1945,-2.2747,-2.2733,-2.2871,-2.3148,-2.4388,-2.5851,-2.7486,-2.8666,-2.9923,-3.1312,-3.2039,-3.2417,-3.24,-3.3117,-3.3703,-3.4086,-3.4423,-3.4653,-3.4714,-3.4908,-3.5034,-3.5051,-3.5239,-3.5383,-3.535,-3.5354,-3.5369,-3.5417,-3.5446,-3.5446,-3.5493,-3.5507,-3.5507,-3.5507,-3.5507,-3.5507,-3.5507,-3.5507,-3.5507,-3.5507,-3.5507,-3.5507,-3.5507,-3.5507,-3.5507,-3.5507,-3.5507,-3.5507,-3.5507,-3.5507,-3.5507,-3.5507,-3.5388,-3.5355,-3.5355,-3.4346,-3.3412,-3.3051,-3.1747,-3.0535,-3.0362,-2.9953,-2.9672,-2.9066,-2.8195,-2.7424,-2.6658,-2.6,-2.5184,-2.418,-2.3163,-2.3125,-2.3125,-2.3125,-2.3125,-2.3125,-2.3125,-2.3125,-2.3125,-2.3125,-2.3125,-2.3125,-2.3125,-2.3125,-2.3125,-2.3065,-2.2641,-2.2702,-2.3065,-2.2641,-2.2689,-2.3065,-2.3125,-2.3215,-2.3428,-2.2825,-2.2445,-2.2445,-2.2075,-2.1865,-2.1729,-2.1416,-2.1553,-2.1928,-2.1164,-2.0462,-2.0009,-1.9166,-1.8721,-1.8721,-1.911,-1.9955,-2.1239,-2.169,-2.2261,-2.3005,-2.3125,-2.3344,-2.3913,-2.5065,-2.6497,-2.8142,-2.9261,-3.0452,-3.1699,-3.2248,-3.2677,-3.3087,-3.3597,-3.4067,-3.4445,-3.4754,-3.4981,-3.5122,-3.5239,-3.5304,-3.5324,-3.5432,-3.5507,-3.5507,-3.5507,-3.5507,-3.5507,-3.5507,-3.5507,-3.5507,-3.5507,-3.5507,-3.5507,-3.5507,-3.5488,-3.5488,-3.5507,-3.5488,-3.5507,-3.5507,-3.5507,-3.5507,-3.5507,-3.5507,-3.5507,-3.5507,-3.5507,-3.5507,-3.5507,-3.5507,-3.5449,-3.5161,-3.4834,-3.4795,-3.3518,-3.2594,-3.1996,-3.1016,-2.9986,-2.9609,-2.9549,-2.9659,-2.8492,-2.767,-2.6992,-2.6599,-2.6195,-2.5134,-2.413,-2.329,-2.3007,-2.2847,-2.2857,-2.3027,-2.303,-2.2848,-2.2836,-2.275,-2.2555,-2.2567,-2.2616,-2.2823,-2.2823,-2.2884,-2.3017,-2.2445,-2.2506,-2.2957,-2.2249,-2.2261,-2.2763,-2.2628,-2.2555,-2.2506,-2.1939,-2.1616,-2.1628,-2.1616,-2.129,-2.0655,-2.1302,-2.1939,-2.2506,-2.1741,-2.0974,-2.0333,-1.9431,-1.911,-1.9309,-1.9497,-2.0333,-2.1741,-2.2063,-2.2396,-2.289,-2.3069,-2.3476,-2.4313,-2.5423,-2.698,-2.8872,-2.9545,-3.0437,-3.1602,-3.1961,-3.2511,-3.3364,-3.3812,-3.4258,-3.4697,-3.5053,-3.5273,-3.5412,-3.5474,-3.5507,-3.5507,-3.5507,-3.5507,-3.5507,-3.5507,-3.5507,-3.5507,-3.5507,-3.5488,-3.5509,-3.5522,-3.5528,-3.5546,-3.5546,-3.5546,-3.5565,-3.5565,-3.5507,-3.5348,-3.5406,-3.5488,-3.5507,-3.5507,-3.5507,-3.5507,-3.5507,-3.5507,-3.5507,-3.5507,-3.5507,-3.543,-3.4795,-3.4372,-3.4083,-3.282,-3.1723,-3.1246,-3.0448,-2.9702,-2.961,-2.9904,-3.0189,-2.8492,-2.7736,-2.7535,-2.6869,-2.5636,-2.4553,-2.4029,-2.3717,-2.2603,-2.203,-2.2043,-2.276,-2.2678,-2.2059,-2.2037,-2.1616,-2.0974,-2.0846,-2.129,-2.1939,-2.2002,-2.2384,-2.2944,-2.2957,-2.3017,-2.2944,-2.2211,-2.1839,-2.1939,-2.129,-2.0846,-2.0846,-2.0782,-2.0782,-2.0719,-2.0719,-2.0655,-2.059,-2.0655,-2.0719,-2.0782,-2.002,-1.9507,-1.942,-1.8596,-1.8462,-1.9365,-2.0074,-2.091,-2.1865,-2.2567,-2.278,-2.246,-2.2948,-2.3334,-2.3505,-2.5123,-2.7205,-2.9476,-2.9187,-2.9551,-3.1085,-3.11,-3.162,-3.2953,-3.3323,-3.3942,-3.4843,-3.5304,-3.5446,-3.5493,-3.5488,-3.5411,-3.5366,-3.5347,-3.5507,-3.5405,-3.5507,-3.5507,-3.5507,-3.547,-3.5522,-3.5588,-3.559,-3.5611,-3.5655,-3.5674,-3.5663,-3.5663,-3.5663,-3.5449,-3.4978,-3.5104,-3.5451,-3.5457,-3.5488,-3.5509,-3.5495,-3.552,-3.5515,-3.5509,-3.5501,-3.5507,-3.5411,-3.468,-3.4122,-3.373,-3.2708,-3.1374,-3.0997,-3.04,-2.9832,-3.0292,-3.0581,-3.0717,-2.7736,-2.7015,-2.6982,-2.6464,-2.5543,-2.4803,-2.3963,-2.315,-2.2303,-2.162,-2.1202,-2.1495,-2.1444,-2.1135,-2.1141,-2.091,-2.059,-2.059,-2.0782,-2.1101,-2.1101,-2.1302,-2.1542,-2.1101,-2.1089,-2.1514,-2.0913,-2.0783,-2.1019,-2.0782,-2.059,-2.059,-2.059,-2.059,-2.059,-2.059,-2.0322,-1.9879,-1.9824,-1.9552,-1.9177,-1.9243,-1.9552,-1.9944,-1.9233,-1.9431,-2.0719,-2.1164,-2.1753,-2.2543,-2.2645,-2.2548,-2.2322,-2.2605,-2.3004,-2.3523,-2.5575,-2.725,-2.8345,-2.8841,-2.9557,-3.0578,-3.076,-3.1488,-3.3037,-3.3354,-3.3921,-3.5097,-3.5446,-3.5507,-3.5449,-3.5026,-3.4758,-3.4723,-3.4361,-3.4086,-3.4139,-3.4623,-3.4894,-3.4933,-3.533,-3.5621,-3.5646,-3.5663,-3.5659,-3.5696,-3.5703,-3.5717,-3.571,-3.5703,-3.5587,-3.5327,-3.5452,-3.5359,-3.5127,-3.535,-3.5544,-3.5602,-3.5631,-3.5611,-3.5516,-3.5543,-3.5526,-3.5482,-3.4347,-3.3577,-3.3391,-3.2052,-3.0726,-3.0553,-3.0354,-3.0019,-3.1298,-3.156,-3.1907,-2.6227,-2.5709,-2.5652,-2.5414,-2.4975,-2.4299,-2.343,-2.2479,-2.1654,-2.0926,-2.0245,-2.0107,-1.9987,-1.991,-2.0149,-2.0139,-1.9879,-1.989,-2.0009,-2.0204,-2.0268,-2.0398,-2.0537,-2.0009,-1.9944,-2.0453,-2.0004,-1.9804,-1.9911,-1.9879,-1.989,-1.9879,-1.989,-1.989,-1.989,-1.9879,-1.9562,-1.9044,-1.8911,-1.8603,-1.8044,-1.866,-1.9369,-1.9792,-1.9369,-1.9749,-2.1206,-2.1386,-2.1813,-2.2614,-2.2297,-2.202,-2.1857,-2.2037,-2.2681,-2.3823,-2.5645,-2.6976,-2.7494,-2.8505,-2.9295,-2.9844,-3.0214,-3.1078,-3.2408,-3.2996,-3.3772,-3.4943,-3.538,-3.5477,-3.5098,-3.4398,-3.3936,-3.3936,-3.3567,-3.3455,-3.3653,-3.4335,-3.4873,-3.4879,-3.539,-3.5717,-3.5735,-3.5758,-3.5797,-3.5797,-3.5792,-3.5788,-3.5768,-3.5773,-3.5636,-3.5203,-3.5203,-3.5299,-3.4938,-3.53,-3.5626,-3.547,-3.5437,-3.5582,-3.5445,-3.5417,-3.533,-3.4982,-3.374,-3.287,-3.2557,-3.1347,-3.0393,-3.0169,-3.0045,-3.0267,-3.1336,-3.1751,-3.2217,-2.3661,-2.3672,-2.3661,-2.3745,-2.357,-2.2601,-2.2161,-2.1924,-2.0644,-1.974,-1.9327,-1.8957,-1.8498,-1.8259,-1.9034,-1.8911,-1.8269,-1.8269,-1.8654,-1.9299,-1.9365,-1.9814,-2.059,-2.059,-2.0526,-2.0344,-1.9777,-1.9122,-1.8299,-1.8202,-1.8144,-1.8202,-1.8269,-1.8202,-1.8269,-1.8269,-1.8134,-1.8269,-1.8279,-1.7957,-1.7603,-1.8165,-1.8424,-1.8255,-1.8434,-1.9071,-1.989,-2.0145,-2.0749,-2.1581,-2.1556,-2.1305,-2.0936,-2.1328,-2.2501,-2.4222,-2.4988,-2.6138,-2.7657,-2.8027,-2.8346,-2.8998,-2.9424,-2.9978,-3.1241,-3.211,-3.3091,-3.4234,-3.4912,-3.5009,-3.4429,-3.3713,-3.3295,-3.3444,-3.3932,-3.4179,-3.4361,-3.4911,-3.5574,-3.5561,-3.5612,-3.5758,-3.5877,-3.5968,-3.5976,-3.5976,-3.5976,-3.5976,-3.5957,-3.5976,-3.5351,-3.4394,-3.4355,-3.4951,-3.5435,-3.5254,-3.5048,-3.4878,-3.4895,-3.5308,-3.5159,-3.4963,-3.4831,-3.4506,-3.351,-3.2617,-3.1862,-3.1186,-3.059,-3.0311,-3.0311,-3.0691,-3.1355,-3.107,-3.1486,-2.3514,-2.3514,-2.3514,-2.3527,-2.3362,-2.2417,-2.1702,-2.1161,-1.9991,-1.9124,-1.8547,-1.832,-1.8144,-1.8008,-1.8327,-1.8337,-1.8008,-1.8008,-1.8202,-1.8462,-1.8462,-1.8654,-1.8911,-1.8911,-1.8911,-1.8885,-1.8692,-1.8399,-1.8083,-1.7978,-1.8008,-1.8008,-1.8008,-1.8008,-1.8008,-1.8008,-1.8269,-1.8787,-1.8854,-1.8639,-1.8155,-1.8425,-1.8137,-1.7307,-1.8746,-1.9968,-2.0803,-2.099,-2.1188,-2.1481,-2.1154,-2.0932,-2.0813,-2.1334,-2.2475,-2.4222,-2.4902,-2.5756,-2.692,-2.7577,-2.8174,-2.8819,-2.9226,-2.9908,-3.0978,-3.1609,-3.2288,-3.3189,-3.3234,-3.3242,-3.3602,-3.3329,-3.3388,-3.3863,-3.3375,-3.3236,-3.3785,-3.4532,-3.5059,-3.5137,-3.5491,-3.5906,-3.5937,-3.5996,-3.6016,-3.6016,-3.6016,-3.6016,-3.5996,-3.6016,-3.5488,-3.4609,-3.4473,-3.4589,-3.415,-3.42,-3.4103,-3.3986,-3.3986,-3.4046,-3.3977,-3.4038,-3.393,-3.3677,-3.2928,-3.2337,-3.1554,-3.101,-3.0498,-3.0398,-3.0398,-3.065,-3.1298,-3.0969,-3.124,-2.2563,-2.2563,-2.2553,-2.2573,-2.2478,-2.1668,-2.0942,-2.0277,-1.962,-1.8854,-1.827,-1.8211,-1.8164,-1.8203,-1.8018,-1.8008,-1.8008,-1.8008,-1.8008,-1.8027,-1.8144,-1.8213,-1.8232,-1.827,-1.8261,-1.8163,-1.8064,-1.8059,-1.8225,-1.8046,-1.8018,-1.8008,-1.8008,-1.8008,-1.8008,-1.8008,-1.8337,-1.8787,-1.8921,-1.8629,-1.8294,-1.8333,-1.7864,-1.7287,-1.8475,-1.9698,-2.0431,-2.0576,-2.071,-2.0836,-2.0577,-2.0388,-2.0484,-2.1215,-2.2383,-2.3869,-2.48,-2.566,-2.6672,-2.7477,-2.8139,-2.8664,-2.9196,-2.9926,-3.0706,-3.1239,-3.1881,-3.2374,-3.259,-3.2688,-3.3054,-3.3048,-3.3236,-3.3905,-3.3131,-3.2708,-3.3359,-3.418,-3.4785,-3.5195,-3.5644,-3.5957,-3.6016,-3.6016,-3.6016,-3.6016,-3.6016,-3.6016,-3.5996,-3.5703,-3.5273,-3.4453,-3.3906,-3.3379,-3.2851,-3.2598,-3.2969,-3.2949,-3.332,-3.3223,-3.3027,-3.3086,-3.3032,-3.2771,-3.2364,-3.186,-3.1331,-3.0807,-3.056,-3.0429,-3.0398,-3.0535,-3.0822,-3.0873,-3.0959,-2.0644,-2.0722,-2.0644,-2.0809,-2.0789,-2.0246,-1.9713,-1.9442,-1.9242,-1.8852,-1.8439,-1.8507,-1.8498,-1.8448,-1.8183,-1.8008,-1.8008,-1.8008,-1.8037,-1.8105,-1.8467,-1.8553,-1.8533,-1.8734,-1.8786,-1.8574,-1.8203,-1.8271,-1.8713,-1.8242,-1.8008,-1.8008,-1.8008,-1.8008,-1.8008,-1.8008,-1.8076,-1.8202,-1.8259,-1.7974,-1.7504,-1.7769,-1.7624,-1.7144,-1.7518,-1.7947,-1.8407,-1.8721,-1.9243,-1.9743,-1.9874,-1.9811,-2.0144,-2.1037,-2.2232,-2.3468,-2.4563,-2.5826,-2.7095,-2.7678,-2.8057,-2.8597,-2.9223,-2.9734,-3.0105,-3.0987,-3.1704,-3.191,-3.2493,-3.3124,-3.3105,-3.2695,-3.2637,-3.3242,-3.3203,-3.3164,-3.3496,-3.4141,-3.5,-3.5605,-3.582,-3.5976,-3.5996,-3.5996,-3.5996,-3.5996,-3.6016,-3.5918,-3.5781,-3.5293,-3.4453,-3.3555,-3.3008,-3.25,-3.168,-3.1016,-3.1523,-3.1992,-3.2578,-3.2832,-3.2441,-3.2344,-3.2305,-3.2098,-3.1875,-3.1397,-3.0984,-3.0524,-3.0491,-3.0398,-3.0386,-3.0374,-3.0446,-3.0499,-3.0221,-2.0576,-2.0576,-2.0576,-2.0576,-2.0469,-1.9795,-1.9394,-1.9219,-1.8691,-1.834,-1.8174,-1.8164,-1.8213,-1.8144,-1.8018,-1.8008,-1.8008,-1.8018,-1.8154,-1.8486,-1.8877,-1.8906,-1.873,-1.898,-1.9152,-1.8973,-1.8311,-1.8232,-1.8525,-1.8223,-1.8008,-1.8008,-1.8008,-1.8008,-1.8008,-1.8008,-1.8269,-1.8844,-1.8911,-1.8561,-1.7925,-1.7895,-1.7315,-1.6155,-1.6545,-1.711,-1.779,-1.8367,-1.878,-1.9097,-1.9527,-2.008,-2.0647,-2.1329,-2.2595,-2.4346,-2.4941,-2.5851,-2.72,-2.7752,-2.8278,-2.9003,-2.9513,-2.9829,-3.015,-3.0637,-3.1015,-3.1065,-3.1412,-3.1854,-3.2363,-3.2383,-3.25,-3.332,-3.291,-3.2832,-3.3242,-3.3613,-3.418,-3.4902,-3.5053,-3.5304,-3.5818,-3.5953,-3.5812,-3.5898,-3.5918,-3.5742,-3.5176,-3.4766,-3.4101,-3.2871,-3.2344,-3.1836,-3.123,-3.0859,-3.1094,-3.1387,-3.1816,-3.2187,-3.1855,-3.168,-3.1621,-3.1517,-3.1295,-3.1026,-3.0625,-3.0419,-3.0406,-3.039,-3.0398,-3.0343,-3.0267,-3.0169,-3.0032,-1.974,-1.9366,-1.9367,-1.9353,-1.9367,-1.9023,-1.8824,-1.868,-1.8414,-1.8242,-1.8222,-1.8027,-1.8095,-1.8183,-1.8095,-1.8008,-1.8018,-1.8154,-1.8477,-1.8818,-1.8936,-1.8955,-1.8877,-1.916,-1.9278,-1.9167,-1.8535,-1.8555,-1.9043,-1.8398,-1.8096,-1.8213,-1.8086,-1.8008,-1.8008,-1.8008,-1.8337,-1.8787,-1.8777,-1.8475,-1.7904,-1.7636,-1.6921,-1.592,-1.5964,-1.6322,-1.6856,-1.7743,-1.8555,-1.9044,-1.9579,-2.0067,-2.0633,-2.1295,-2.2565,-2.4087,-2.5026,-2.587,-2.728,-2.7745,-2.8366,-2.9265,-2.9624,-2.9848,-3.0203,-3.0433,-3.0581,-3.0617,-3.0788,-3.1072,-3.1601,-3.1699,-3.1973,-3.2402,-3.2344,-3.2383,-3.281,-3.2887,-3.3476,-3.4181,-3.4335,-3.4729,-3.5474,-3.5165,-3.5151,-3.5294,-3.5162,-3.4869,-3.4205,-3.3809,-3.2969,-3.2246,-3.1738,-3.1289,-3.0918,-3.0781,-3.0801,-3.0898,-3.1035,-3.125,-3.1211,-3.1191,-3.1152,-3.1133,-3.0977,-3.0915,-3.0552,-3.0482,-3.0442,-3.0409,-3.0414,-3.0367,-3.0311,-3.0267,-3.0202,-1.8487,-1.7562,-1.7426,-1.7627,-1.7683,-1.8013,-1.7904,-1.7748,-1.8065,-1.817,-1.8174,-1.7949,-1.8076,-1.831,-1.8086,-1.8008,-1.8066,-1.833,-1.8701,-1.8916,-1.8848,-1.8779,-1.916,-1.9223,-1.9277,-1.9364,-1.8864,-1.9043,-1.957,-1.8564,-1.8193,-1.8437,-1.8154,-1.8008,-1.8008,-1.8008,-1.8008,-1.8134,-1.8076,-1.7858,-1.7476,-1.7071,-1.6596,-1.6105,-1.5969,-1.5954,-1.6243,-1.7467,-1.8625,-1.9592,-1.9747,-1.9825,-2.0054,-2.1024,-2.2218,-2.3522,-2.4563,-2.5839,-2.71,-2.7699,-2.8368,-2.9388,-2.9626,-2.9796,-3.0103,-3.0365,-3.054,-3.0606,-3.0684,-3.0775,-3.0937,-3.0976,-3.1016,-3.1035,-3.1582,-3.1909,-3.1928,-3.1923,-3.2572,-3.3643,-3.3692,-3.3692,-3.5061,-3.4146,-3.3952,-3.4099,-3.3877,-3.3531,-3.3067,-3.2683,-3.2063,-3.1557,-3.112,-3.1003,-3.0689,-3.0696,-3.0703,-3.0726,-3.0752,-3.0781,-3.084,-3.0859,-3.084,-3.0801,-3.0795,-3.0703,-3.0617,-3.0545,-3.0481,-3.0472,-3.0432,-3.0406,-3.039,-3.034,-3.0535,-1.9967,-1.9648,-1.8887,-1.8571,-1.8368,-1.7335,-1.6708,-1.6564,-1.6512,-1.6687,-1.6564,-1.704,-1.7399,-1.7434,-1.7842,-1.8008,-1.791,-1.8056,-1.8408,-1.8691,-1.8379,-1.8633,-1.9082,-1.8975,-1.9337,-1.9922,-1.9105,-1.8926,-1.9346,-1.8486,-1.8105,-1.8164,-1.8105,-1.8008,-1.8008,-1.8008,-1.8008,-1.8008,-1.8008,-1.7793,-1.7468,-1.7256,-1.6826,-1.6245,-1.6919,-1.7438,-1.7783,-1.9089,-1.9765,-1.9772,-1.9798,-1.9788,-1.9901,-2.1027,-2.2324,-2.3652,-2.4705,-2.5691,-2.6771,-2.7549,-2.8438,-2.9481,-2.9701,-2.9864,-3.0267,-3.0451,-3.0568,-3.0614,-3.0673,-3.0717,-3.0749,-3.0767,-3.0767,-3.0767,-3.1036,-3.1123,-3.1062,-3.1008,-3.1407,-3.2305,-3.2322,-3.2792,-3.3444,-3.3421,-3.3114,-3.3322,-3.3154,-3.2732,-3.21,-3.1911,-3.1449,-3.0967,-3.0593,-3.0652,-3.0617,-3.0623,-3.0628,-3.0628,-3.0633,-3.0644,-3.0684,-3.0723,-3.0703,-3.0664,-3.0723,-3.0673,-3.0622,-3.0581,-3.054,-3.0517,-3.0498,-3.0472,-3.0472,-3.0471,-3.0868,-1.919,-1.9156,-1.8556,-1.8155,-1.7951,-1.7198,-1.6742,-1.6584,-1.6757,-1.6732,-1.6804,-1.7334,-1.7332,-1.6908,-1.7226,-1.7148,-1.6862,-1.6793,-1.7021,-1.7341,-1.7279,-1.7775,-1.8529,-1.8779,-1.932,-1.9915,-1.9252,-1.9097,-1.9131,-1.8418,-1.8135,-1.8232,-1.8096,-1.8008,-1.8008,-1.8008,-1.8008,-1.8008,-1.7998,-1.7793,-1.7419,-1.7419,-1.6894,-1.6422,-1.715,-1.7819,-1.8417,-1.9309,-1.9797,-1.9758,-1.9798,-1.9825,-1.9939,-2.1027,-2.2232,-2.3456,-2.4523,-2.5655,-2.6607,-2.7518,-2.8524,-2.9453,-2.9769,-3.0007,-3.0297,-3.0498,-3.0574,-3.0598,-3.062,-3.0655,-3.0696,-3.068,-3.0652,-3.0628,-3.0628,-3.0586,-3.0574,-3.0586,-3.0979,-3.1435,-3.1438,-3.1557,-3.2667,-3.2251,-3.2016,-3.2027,-3.1785,-3.1345,-3.0912,-3.0948,-3.0914,-3.0419,-3.0177,-3.0227,-3.0318,-3.0355,-3.0421,-3.0449,-3.0474,-3.049,-3.0542,-3.0584,-3.0626,-3.0621,-3.0657,-3.0664,-3.063,-3.0615,-3.0589,-3.0564,-3.0555,-3.0552,-3.054,-3.0828,-3.1236,-1.7488,-1.7471,-1.7204,-1.6918,-1.6746,-1.7105,-1.6877,-1.7005,-1.7623,-1.7875,-1.771,-1.81,-1.7533,-1.666,-1.6751,-1.6289,-1.5737,-1.6079,-1.5968,-1.6315,-1.656,-1.7133,-1.7675,-1.8288,-1.8856,-1.9219,-1.9222,-1.895,-1.8706,-1.8211,-1.8085,-1.8093,-1.7988,-1.8027,-1.8008,-1.8008,-1.8008,-1.8008,-1.8008,-1.7822,-1.7566,-1.7517,-1.7129,-1.6668,-1.7042,-1.791,-1.8578,-1.9034,-1.9324,-1.9759,-1.9798,-1.9786,-1.9978,-2.0988,-2.2016,-2.2908,-2.4331,-2.5639,-2.6636,-2.7627,-2.868,-2.9589,-2.994,-3.0122,-3.034,-3.0482,-3.0554,-3.0569,-3.0595,-3.0613,-3.063,-3.0603,-3.0561,-3.0529,-3.0516,-3.0481,-3.0462,-3.0462,-3.0723,-3.134,-3.0557,-3.091,-3.1248,-3.1018,-3.005,-3.0977,-3.0723,-3.0449,-3.019,-3.0217,-3.0129,-2.9867,-2.9791,-2.9826,-2.9961,-3.0081,-3.0158,-3.0215,-3.0294,-3.0332,-3.0412,-3.0459,-3.0549,-3.0598,-3.0626,-3.0638,-3.0619,-3.0605,-3.0618,-3.0635,-3.0626,-3.0619,-3.065,-3.1216,-3.1678,-1.8611,-1.846,-1.6563,-1.5835,-1.5777,-1.5226,-1.5271,-1.5787,-1.648,-1.6776,-1.6673,-1.6706,-1.6773,-1.6807,-1.6558,-1.6844,-1.6862,-1.689,-1.7232,-1.6821,-1.7394,-1.7036,-1.6715,-1.6879,-1.7779,-1.8524,-1.8046,-1.774,-1.7664,-1.7963,-1.7686,-1.7232,-1.7812,-1.8008,-1.8008,-1.8008,-1.8008,-1.8008,-1.8008,-1.7949,-1.7852,-1.7803,-1.7598,-1.7209,-1.7916,-1.9019,-1.992,-2.0258,-2.0145,-1.9872,-1.9798,-1.9798,-2.0042,-2.0988,-2.2094,-2.3082,-2.4371,-2.5655,-2.6622,-2.7619,-2.8803,-2.998,-3.0056,-3.0103,-3.0379,-3.0516,-3.0567,-3.0554,-3.056,-3.0585,-3.0554,-3.0491,-3.0482,-3.0472,-3.0442,-3.0344,-3.0177,-3.0119,-3.0259,-3.0266,-3.0083,-2.9914,-3.0292,-3.0222,-2.9793,-2.9941,-2.9831,-2.9626,-2.957,-2.957,-2.9533,-2.9436,-2.9514,-2.9588,-2.9748,-2.9855,-2.9935,-3.0003,-3.008,-3.0393,-3.046,-3.0491,-3.0635,-3.0645,-3.0581,-3.0589,-3.0583,-3.0629,-3.0634,-3.0644,-3.0697,-3.0749,-3.0953,-3.157,-3.2318,-1.925,-1.9571,-1.7742,-1.6934,-1.6587,-1.5787,-1.5373,-1.5589,-1.6154,-1.6245,-1.603,-1.611,-1.5969,-1.5471,-1.5305,-1.5296,-1.5367,-1.5807,-1.5871,-1.5828,-1.6384,-1.6499,-1.6198,-1.5955,-1.6544,-1.7303,-1.7399,-1.733,-1.7599,-1.7801,-1.7794,-1.7285,-1.7794,-1.8008,-1.8008,-1.8008,-1.8008,-1.8008,-1.8008,-1.8008,-1.8008,-1.7998,-1.7949,-1.7698,-1.8082,-1.8697,-1.9653,-1.9752,-1.9744,-1.977,-1.9798,-1.9798,-1.9991,-2.0988,-2.2048,-2.2966,-2.4387,-2.5301,-2.615,-2.7368,-2.8832,-3.0264,-3.013,-3.0202,-3.0372,-3.0552,-3.0594,-3.0589,-3.0589,-3.0561,-3.0472,-3.0439,-3.0428,-3.043,-3.0417,-3.0299,-3.0075,-2.9999,-2.9954,-2.9842,-2.9697,-2.9589,-2.957,-2.9494,-2.9415,-2.9467,-2.9446,-2.9272,-2.9251,-2.9251,-2.927,-2.9228,-2.9312,-2.9395,-2.9551,-2.9643,-2.9746,-2.9796,-2.9848,-3.0335,-3.0762,-3.0791,-3.0799,-3.0761,-3.074,-3.0532,-3.0528,-3.0574,-3.0658,-3.0638,-3.0701,-3.087,-3.1344,-3.2109,-3.2926,-1.9485,-2.0282,-1.9129,-1.8372,-1.7752,-1.6982,-1.6379,-1.6005,-1.6659,-1.6607,-1.5749,-1.6041,-1.5444,-1.4306,-1.395,-1.3317,-1.3375,-1.376,-1.4647,-1.4633,-1.5414,-1.5819,-1.5846,-1.5553,-1.5365,-1.5317,-1.6244,-1.6982,-1.7529,-1.7794,-1.7569,-1.7716,-1.794,-1.8008,-1.8008,-1.8018,-1.7969,-1.7998,-1.8037,-1.7969,-1.7979,-1.8037,-1.8046,-1.8211,-1.778,-1.811,-1.8823,-1.8869,-1.8857,-1.9512,-1.9604,-1.9631,-1.9902,-2.0926,-2.2016,-2.2627,-2.4306,-2.5307,-2.599,-2.7263,-2.88,-3.0168,-3.0064,-3.012,-3.0395,-3.0554,-3.0613,-3.0623,-3.0599,-3.0496,-3.0406,-3.039,-3.0367,-3.0336,-3.0323,-3.0196,-2.9969,-2.9908,-2.978,-2.9661,-2.9456,-2.9332,-2.927,-2.9206,-2.9071,-2.8975,-2.8975,-2.8975,-2.8975,-2.8998,-2.9067,-2.9089,-2.916,-2.9181,-2.9312,-2.9355,-2.9456,-2.9533,-2.9588,-3.0127,-3.0677,-3.0502,-3.0447,-3.0905,-3.0901,-3.0818,-3.0762,-3.0843,-3.0858,-3.0711,-3.0714,-3.088,-3.1648,-3.2634,-3.3451,-1.914,-1.9118,-1.7857,-1.7315,-1.733,-1.7145,-1.6833,-1.6894,-1.7599,-1.7258,-1.5905,-1.5848,-1.5557,-1.4846,-1.4003,-1.4034,-1.445,-1.4824,-1.4768,-1.4622,-1.5162,-1.5724,-1.5658,-1.5279,-1.4725,-1.5114,-1.5737,-1.6272,-1.6706,-1.6844,-1.6853,-1.6991,-1.7501,-1.7794,-1.7794,-1.8018,-1.7812,-1.7908,-1.7812,-1.7705,-1.7693,-1.7852,-1.8192,-1.8619,-1.7956,-1.8105,-1.8548,-1.8261,-1.803,-1.8592,-1.8798,-1.8809,-1.9221,-2.069,-2.2034,-2.3169,-2.4411,-2.5461,-2.6333,-2.7469,-2.8663,-2.9533,-2.9874,-3.0101,-3.0404,-3.0587,-3.0657,-3.0558,-3.0503,-3.0419,-3.0402,-3.0398,-3.0299,-3.0163,-3.0075,-2.9939,-2.9643,-2.9533,-2.9476,-2.9357,-2.9185,-2.9089,-2.9089,-2.9089,-2.9021,-2.8975,-2.8975,-2.8975,-2.8975,-2.8975,-2.8998,-2.9021,-2.9021,-2.9021,-2.9067,-2.9089,-2.9138,-2.9203,-2.9365,-2.9732,-3.0077,-2.9923,-3.0075,-3.1168,-3.1571,-3.1532,-3.1449,-3.1292,-3.1003,-3.082,-3.0851,-3.0938,-3.1877,-3.2854,-3.368,-1.8611,-1.8048,-1.7338,-1.6805,-1.6357,-1.642,-1.617,-1.5971,-1.7003,-1.6902,-1.5972,-1.5691,-1.5526,-1.5129,-1.4761,-1.4816,-1.5092,-1.579,-1.5689,-1.564,-1.6263,-1.607,-1.5978,-1.5608,-1.5018,-1.4976,-1.5419,-1.5959,-1.5895,-1.5869,-1.6009,-1.593,-1.6367,-1.6585,-1.6507,-1.6446,-1.7158,-1.7507,-1.7167,-1.6621,-1.6693,-1.7038,-1.7765,-1.8155,-1.7833,-1.7729,-1.8158,-1.7978,-1.7909,-1.8541,-1.904,-1.9137,-1.9659,-2.065,-2.2172,-2.3268,-2.4476,-2.5634,-2.6655,-2.7638,-2.864,-2.9532,-2.9779,-3.0042,-3.043,-3.0664,-3.0701,-3.059,-3.0489,-3.043,-3.039,-3.041,-3.0343,-3.0241,-3.0095,-2.9845,-2.9607,-2.9455,-2.9251,-2.9056,-2.8984,-2.8975,-2.9021,-2.8998,-2.8998,-2.8975,-2.8975,-2.8952,-2.8929,-2.8887,-2.8839,-2.8863,-2.8839,-2.8839,-2.8815,-2.8815,-2.8913,-2.8974,-2.9216,-2.9605,-3.0135,-3.0267,-3.1185,-3.2367,-3.2461,-3.2072,-3.2019,-3.1809,-3.1388,-3.1078,-3.1366,-3.1758,-3.2306,-3.3054,-3.3829,-1.8488,-1.7481,-1.7437,-1.6787,-1.5794,-1.5716,-1.5312,-1.4949,-1.5912,-1.5757,-1.5048,-1.5065,-1.4956,-1.4664,-1.4561,-1.4522,-1.4665,-1.5288,-1.5497,-1.5945,-1.6351,-1.6175,-1.6202,-1.6281,-1.6225,-1.513,-1.5217,-1.6276,-1.5905,-1.5598,-1.5522,-1.5956,-1.5799,-1.5658,-1.6009,-1.6367,-1.6872,-1.6493,-1.6395,-1.5525,-1.572,-1.6428,-1.7151,-1.7697,-1.7139,-1.6994,-1.7358,-1.7132,-1.7401,-1.8027,-1.878,-1.9411,-1.9914,-2.0975,-2.2218,-2.3396,-2.4516,-2.5559,-2.6645,-2.7743,-2.8805,-2.9793,-2.981,-3.0106,-3.0425,-3.0677,-3.0742,-3.0608,-3.0516,-3.0442,-3.0402,-3.0398,-3.033,-3.0169,-3.0003,-2.9829,-2.9551,-2.9314,-2.8993,-2.8874,-2.8839,-2.8761,-2.8662,-2.8601,-2.8533,-2.8533,-2.8507,-2.8507,-2.8507,-2.8558,-2.8558,-2.8626,-2.8626,-2.8626,-2.8601,-2.8558,-2.8691,-2.8838,-2.9214,-2.9616,-3.0392,-3.1005,-3.1945,-3.2558,-3.26,-3.2257,-3.2297,-3.2353,-3.206,-3.1939,-3.2169,-3.2314,-3.2454,-3.3015,-3.3807,-1.9167,-1.8115,-1.79,-1.7563,-1.6927,-1.6158,-1.542,-1.495,-1.5397,-1.4331,-1.3417,-1.3663,-1.3667,-1.3206,-1.3006,-1.2872,-1.2952,-1.3433,-1.4172,-1.5009,-1.4961,-1.5378,-1.5769,-1.5483,-1.6032,-1.5519,-1.5134,-1.5618,-1.5894,-1.5723,-1.6171,-1.6684,-1.6175,-1.6576,-1.6437,-1.6367,-1.6876,-1.5904,-1.6027,-1.621,-1.6341,-1.6982,-1.7292,-1.7309,-1.6908,-1.6523,-1.6496,-1.6321,-1.6492,-1.6978,-1.7633,-1.8519,-1.9659,-2.0962,-2.2476,-2.3655,-2.4617,-2.5343,-2.6714,-2.7913,-2.9008,-2.9885,-3.0133,-3.0269,-3.0506,-3.0624,-3.0624,-3.0517,-3.0442,-3.0352,-3.0323,-3.0355,-3.0188,-2.9977,-2.9799,-2.9514,-2.923,-2.9042,-2.8761,-2.8528,-2.8452,-2.8272,-2.8152,-2.8091,-2.801,-2.8037,-2.8055,-2.8083,-2.8147,-2.8228,-2.8255,-2.8308,-2.8352,-2.8308,-2.8334,-2.8308,-2.8316,-2.8557,-2.924,-2.9665,-3.0209,-3.0892,-3.1482,-3.1971,-3.2112,-3.2347,-3.234,-3.2406,-3.2558,-3.254,-3.2362,-3.2257,-3.2222,-3.2972,-3.3908,-1.8285,-1.7052,-1.754,-1.7329,-1.664,-1.6718,-1.6589,-1.6162,-1.6199,-1.5757,-1.483,-1.4554,-1.4292,-1.3859,-1.3981,-1.4019,-1.3992,-1.3917,-1.4313,-1.4684,-1.4806,-1.534,-1.6054,-1.5741,-1.5675,-1.5496,-1.5545,-1.563,-1.5771,-1.4924,-1.4564,-1.5025,-1.4609,-1.4083,-1.5367,-1.4871,-1.4776,-1.4497,-1.441,-1.4442,-1.4893,-1.5253,-1.5762,-1.6514,-1.5991,-1.5909,-1.6056,-1.6618,-1.6708,-1.7302,-1.8112,-1.902,-1.9812,-2.0706,-2.1857,-2.3097,-2.4611,-2.5927,-2.7372,-2.8254,-2.9175,-2.9899,-3.0267,-3.0471,-3.0621,-3.0586,-3.0466,-3.0326,-3.0227,-3.0136,-3.0037,-2.9988,-2.9896,-2.9731,-2.9495,-2.924,-2.8929,-2.8737,-2.8507,-2.829,-2.81,-2.8062,-2.8093,-2.8237,-2.814,-2.7883,-2.7936,-2.8047,-2.801,-2.801,-2.801,-2.7982,-2.801,-2.7982,-2.801,-2.801,-2.7824,-2.818,-2.9417,-2.9766,-2.9941,-3.049,-3.1213,-3.164,-3.1845,-3.2074,-3.2237,-3.258,-3.2828,-3.2631,-3.2391,-3.2358,-3.243,-3.3428,-3.4149,-1.7539,-1.6238,-1.7107,-1.6867,-1.6051,-1.6796,-1.6837,-1.6619,-1.6543,-1.6438,-1.6165,-1.5426,-1.5059,-1.4799,-1.4585,-1.4314,-1.433,-1.4812,-1.5008,-1.5049,-1.5276,-1.5642,-1.5931,-1.5741,-1.5503,-1.502,-1.5661,-1.6055,-1.5329,-1.4216,-1.3376,-1.3402,-1.3587,-1.3258,-1.3164,-1.36,-1.3928,-1.4011,-1.3535,-1.3498,-1.3757,-1.3847,-1.4687,-1.5186,-1.5351,-1.5195,-1.5909,-1.6471,-1.6922,-1.7468,-1.8004,-1.8756,-1.9658,-2.0641,-2.1788,-2.324,-2.4885,-2.6455,-2.7666,-2.8555,-2.9204,-2.987,-3.0317,-3.0576,-3.0621,-3.0542,-3.0365,-3.017,-2.9836,-2.9704,-2.9585,-2.9476,-2.9288,-2.9187,-2.9101,-2.8883,-2.8646,-2.8412,-2.8352,-2.8347,-2.8195,-2.8167,-2.8253,-2.8506,-2.8328,-2.7851,-2.7826,-2.7848,-2.7718,-2.75,-2.7482,-2.7391,-2.722,-2.7189,-2.7224,-2.7289,-2.725,-2.7734,-2.8949,-2.9798,-2.9953,-3.0491,-3.1254,-3.1531,-3.1581,-3.1681,-3.182,-3.2493,-3.3052,-3.2705,-3.2451,-3.2547,-3.2871,-3.3724,-3.4091,-1.7404,-1.656,-1.6655,-1.6454,-1.6045,-1.5542,-1.5596,-1.5973,-1.5631,-1.5421,-1.5135,-1.5005,-1.4308,-1.3787,-1.339,-1.3119,-1.2546,-1.2832,-1.3353,-1.3901,-1.4463,-1.4899,-1.5303,-1.5708,-1.6204,-1.6818,-1.6166,-1.5986,-1.5978,-1.3739,-1.3985,-1.5028,-1.3844,-1.4217,-1.4307,-1.4099,-1.4106,-1.4072,-1.3606,-1.3454,-1.3611,-1.3801,-1.4377,-1.4863,-1.4989,-1.5083,-1.5381,-1.5584,-1.5881,-1.6394,-1.7235,-1.8101,-1.9453,-2.066,-2.2013,-2.3564,-2.5201,-2.6703,-2.7869,-2.8842,-2.9603,-3.0225,-3.0559,-3.0566,-3.0536,-3.0335,-3.0163,-2.9942,-2.9545,-2.925,-2.9054,-2.8852,-2.8663,-2.8433,-2.8323,-2.8136,-2.8031,-2.8088,-2.804,-2.8268,-2.8356,-2.8361,-2.7935,-2.8081,-2.776,-2.7261,-2.6536,-2.6519,-2.6657,-2.6522,-2.6657,-2.6607,-2.6317,-2.621,-2.6206,-2.6336,-2.6684,-2.7259,-2.8218,-2.917,-2.9855,-3.0499,-3.0925,-3.1165,-3.1188,-3.1308,-3.1376,-3.1582,-3.1899,-3.2362,-3.2488,-3.2362,-3.2229,-3.2534,-3.2967,-1.7755,-1.7432,-1.7458,-1.7049,-1.6401,-1.6766,-1.6964,-1.6967,-1.636,-1.4947,-1.3417,-1.2715,-1.1932,-1.134,-1.1063,-1.093,-1.0699,-1.1004,-1.1467,-1.1917,-1.2595,-1.3621,-1.4394,-1.5391,-1.648,-1.6773,-1.5589,-1.5517,-1.6734,-1.3521,-1.3938,-1.4449,-1.4213,-1.3579,-1.3665,-1.3939,-1.4091,-1.4148,-1.3447,-1.2868,-1.2559,-1.1501,-1.1882,-1.3715,-1.1882,-1.2688,-1.3883,-1.4392,-1.4721,-1.5379,-1.6736,-1.7958,-1.9129,-2.0571,-2.2107,-2.3686,-2.5236,-2.6792,-2.8215,-2.9174,-3.0023,-3.0372,-3.0546,-3.0474,-3.0372,-3.0143,-2.9912,-2.9603,-2.9167,-2.8791,-2.8638,-2.8352,-2.8058,-2.7685,-2.7438,-2.7295,-2.7299,-2.7351,-2.7603,-2.7755,-2.8343,-2.8738,-2.8144,-2.7586,-2.709,-2.6541,-2.5796,-2.5259,-2.5524,-2.5762,-2.5944,-2.5964,-2.5709,-2.5637,-2.5643,-2.5956,-2.6302,-2.6946,-2.7588,-2.8458,-2.9323,-2.9632,-3.0044,-3.0402,-3.0566,-3.0369,-3.0311,-3.0393,-3.0734,-3.1181,-3.1666,-3.1969,-3.1807,-3.1557,-3.1698,-1.8412,-1.7998,-1.7995,-1.7451,-1.6724,-1.7314,-1.7598,-1.7432,-1.6507,-1.5196,-1.3078,-1.2357,-1.1544,-1.0861,-1.0948,-1.0916,-1.1097,-1.1124,-1.0908,-1.1479,-1.242,-1.2818,-1.3386,-1.4223,-1.5362,-1.5731,-1.5231,-1.5087,-1.5693,-1.2538,-1.2758,-1.3578,-1.3888,-1.3012,-1.2558,-1.2271,-1.2844,-1.2823,-1.2304,-1.1279,-1.0967,-0.9918,-0.9956,-1.2019,-1.0949,-1.1447,-1.304,-1.3735,-1.3936,-1.4674,-1.5847,-1.7412,-1.8754,-2.02,-2.1897,-2.3492,-2.5212,-2.7077,-2.839,-2.9617,-3.0315,-3.0554,-3.0263,-3.0211,-3.0136,-2.9806,-2.923,-2.9221,-2.8722,-2.8278,-2.8012,-2.7578,-2.7182,-2.68,-2.6454,-2.6302,-2.6434,-2.6543,-2.6924,-2.7257,-2.7964,-2.8605,-2.8029,-2.7246,-2.6037,-2.5613,-2.521,-2.4831,-2.4973,-2.5182,-2.5411,-2.5373,-2.5128,-2.5171,-2.5243,-2.5665,-2.6125,-2.6715,-2.7349,-2.795,-2.8619,-2.89,-2.9255,-2.9756,-2.9756,-2.939,-2.9374,-2.9576,-2.9783,-3.0048,-3.0533,-3.1006,-3.1031,-3.0759,-3.056,-1.9414,-1.7968,-1.8016,-1.7492,-1.6844,-1.6648,-1.6778,-1.6784,-1.5799,-1.5089,-1.4646,-1.4458,-1.3803,-1.2994,-1.2395,-1.2152,-1.188,-1.222,-1.2286,-1.2026,-1.2465,-1.2277,-1.2491,-1.3299,-1.4881,-1.3947,-1.3924,-1.4227,-1.4434,-1.2896,-1.2548,-1.2499,-1.301,-1.2581,-1.2104,-1.0404,-0.9593,-0.9593,-0.9954,-0.992,-0.9862,-0.9311,-0.9959,-1.103,-1.0603,-1.0999,-1.2434,-1.2956,-1.3193,-1.3835,-1.4915,-1.6363,-1.7861,-2.0008,-2.1849,-2.3405,-2.6264,-2.7894,-2.8468,-2.9796,-3.0293,-3.0367,-3.0025,-2.98,-2.9775,-2.9177,-2.8433,-2.85,-2.7877,-2.74,-2.7031,-2.6657,-2.6265,-2.5895,-2.557,-2.5454,-2.5605,-2.5954,-2.6366,-2.6894,-2.7657,-2.8227,-2.7673,-2.6887,-2.5334,-2.4605,-2.4399,-2.4379,-2.458,-2.477,-2.5067,-2.5252,-2.5119,-2.5201,-2.5373,-2.5575,-2.5997,-2.6552,-2.7022,-2.7522,-2.785,-2.81,-2.856,-2.9057,-2.8826,-2.8338,-2.8544,-2.8826,-2.8451,-2.8057,-2.9303,-2.9845,-2.9929,-2.9701,-2.9191,-2.1479,-1.9695,-1.9703,-1.9187,-1.8332,-1.7765,-1.7529,-1.7226,-1.593,-1.479,-1.3907,-1.2912,-1.1726,-1.1137,-1.1286,-1.139,-1.1086,-1.1075,-1.0994,-1.1002,-1.238,-1.2818,-1.3086,-1.4166,-1.5344,-1.5501,-1.5148,-1.4982,-1.6265,-1.3838,-1.3607,-1.3775,-1.2661,-1.2311,-1.2065,-1.139,-1.1483,-1.1978,-1.1685,-1.1218,-1.0906,-0.9891,-0.9763,-1.1394,-1.0091,-1.0236,-1.1905,-1.2125,-1.2397,-1.3166,-1.4255,-1.6038,-1.6983,-1.8772,-2.1338,-2.3373,-2.6146,-2.7755,-2.8493,-2.9449,-2.9575,-2.9615,-2.9614,-2.9283,-2.9156,-2.8299,-2.7879,-2.7518,-2.6908,-2.6488,-2.613,-2.5806,-2.5454,-2.4996,-2.476,-2.4721,-2.4885,-2.5444,-2.5937,-2.6569,-2.7248,-2.7056,-2.6655,-2.6567,-2.5325,-2.4342,-2.4145,-2.4321,-2.4541,-2.468,-2.4876,-2.5317,-2.5425,-2.544,-2.553,-2.5826,-2.6042,-2.6519,-2.6636,-2.6806,-2.7078,-2.7232,-2.7063,-2.7193,-2.7238,-2.7268,-2.7092,-2.6762,-2.604,-2.6007,-2.7046,-2.795,-2.8138,-2.764,-2.6982,-2.4813,-2.3218,-2.2433,-2.1617,-2.06,-1.9091,-1.8133,-1.7316,-1.614,-1.5067,-1.4083,-1.2851,-1.2184,-1.1691,-1.1539,-1.1585,-1.1634,-1.1903,-1.2117,-1.1864,-1.327,-1.3825,-1.444,-1.5436,-1.6,-1.633,-1.5912,-1.5718,-1.5295,-1.3615,-1.3466,-1.3712,-1.2764,-1.1484,-1.1031,-1.0818,-1.0697,-1.0902,-1.0599,-1.0751,-1.0454,-0.9997,-0.9607,-0.9955,-0.9593,-0.9315,-1.0659,-1.1311,-1.1527,-1.2629,-1.3983,-1.4573,-1.4006,-1.3809,-1.6534,-1.9038,-2.4899,-2.6724,-2.8094,-2.818,-2.8033,-2.7533,-2.8261,-2.8555,-2.8189,-2.743,-2.6943,-2.652,-2.5905,-2.5651,-2.541,-2.5073,-2.461,-2.4179,-2.3846,-2.3861,-2.3927,-2.4396,-2.5076,-2.5743,-2.6441,-2.6129,-2.5797,-2.5775,-2.5448,-2.4673,-2.3968,-2.4236,-2.4536,-2.4761,-2.4954,-2.5386,-2.5702,-2.5704,-2.5886,-2.6246,-2.6445,-2.6509,-2.6358,-2.6133,-2.5918,-2.5983,-2.5631,-2.5356,-2.5576,-2.552,-2.5038,-2.4563,-2.4142,-2.4046,-2.4514,-2.5298,-2.6069,-2.5751,-2.5093,-2.8268,-2.7293,-2.5076,-2.2543,-2.1716,-1.7298,-1.6438,-1.6464,-1.666,-1.6095,-1.5292,-1.5127,-1.4561,-1.4895,-1.5211,-1.5046,-1.4906,-1.4977,-1.4985,-1.513,-1.5292,-1.5157,-1.5295,-1.6198,-1.6621,-1.63,-1.5959,-1.5472,-1.3641,-1.4533,-1.464,-1.2976,-1.0995,-0.9824,-0.9128,-0.9637,-0.9027,-0.8742,-0.892,-0.907,-0.8926,-0.8971,-0.8699,-0.8639,-0.8359,-0.8774,-0.9647,-1.0021,-1.0677,-1.1589,-1.2546,-0.8075,-0.4497,-0.1636,-0.5721,-1.2521,-2.2156,-2.4886,-2.5891,-2.5568,-2.5578,-2.4946,-2.5902,-2.6782,-2.6939,-2.6185,-2.582,-2.544,-2.4984,-2.4916,-2.4784,-2.4256,-2.3785,-2.3331,-2.2877,-2.2801,-2.2752,-2.3213,-2.3894,-2.4704,-2.5628,-2.5748,-2.5438,-2.5336,-2.5271,-2.4568,-2.3995,-2.4269,-2.4611,-2.5073,-2.5325,-2.5671,-2.5912,-2.5976,-2.6183,-2.6197,-2.6221,-2.6084,-2.5664,-2.5398,-2.5107,-2.4573,-2.4089,-2.3845,-2.4006,-2.3832,-2.3306,-2.284,-2.2478,-2.2454,-2.2055,-2.2702,-2.3482,-2.3945,-2.3748,-1.4613,-0.9608,-0.4722,-0.2532,-0.2091,-0.0845,-0.7021,-1.8228,-1.815,-1.7304,-1.7088,-1.6054,-1.5831,-1.5238,-1.5563,-1.5621,-1.5566,-1.5478,-1.5601,-1.5963,-1.6527,-1.5947,-1.6095,-1.6787,-1.7041,-1.7204,-1.694,-1.6417,-1.5427,-1.6199,-1.4641,-1.3066,-1.0094,-0.8354,-0.8372,-0.9627,-0.7176,-0.501,-0.4809,-0.6629,-0.635,-0.5911,-0.5586,-0.4637,-0.5132,-0.5607,-0.5793,-0.6016,-0.6413,-0.6762,-0.8368,-0.5104,0.2248,0.2197,-0.1484,-1.1528,-1.7746,-2.0879,-2.0916,-2.1505,-2.1796,-2.1657,-2.2224,-2.324,-2.3927,-2.4327,-2.4147,-2.3943,-2.3438,-2.3067,-2.2834,-2.248,-2.2073,-2.1657,-2.1336,-2.139,-2.1431,-2.195,-2.2665,-2.3434,-2.4424,-2.4813,-2.4584,-2.4994,-2.4843,-2.4243,-2.4054,-2.4334,-2.4611,-2.5077,-2.5463,-2.5748,-2.5916,-2.5923,-2.5697,-2.5664,-2.5655,-2.5604,-2.4925,-2.4204,-2.3612,-2.3022,-2.2469,-2.2153,-2.2079,-2.1858,-2.1534,-2.1049,-2.0378,-1.9609,-1.9209,-2.0068,-2.0814,-2.1334,-2.1568,-1.243,-0.8286,-0.3903,-0.0205,0.2278,0.0818,-0.7172,-1.567,-1.4276,-1.4829,-1.8672,-1.8163,-1.7574,-1.7558,-1.776,-1.7781,-1.7609,-1.7831,-1.7815,-1.7682,-1.7325,-1.8304,-1.8379,-1.8371,-1.9085,-1.9075,-1.8511,-1.7879,-1.5748,-1.163,-0.9477,-1.508,-1.0571,-0.7573,-0.7846,-0.8613,-0.2295,0.1364,0.2562,-0.2266,-0.2627,-0.0,0.3013,0.3737,0.2652,0.1175,0.131,0.1412,0.1782,0.2611,0.1703,0.5452,1.0734,0.959,0.4566,-0.4521,-1.0956,-1.4999,-1.7119,-1.7665,-1.7893,-1.7996,-1.8186,-1.8965,-2.0227,-2.1047,-2.1619,-2.2002,-2.1362,-2.0842,-2.0633,-2.0411,-2.0051,-1.9687,-1.9762,-1.9851,-2.0233,-2.0695,-2.1404,-2.214,-2.2795,-2.3306,-2.3681,-2.4165,-2.4406,-2.3841,-2.3931,-2.4545,-2.469,-2.4911,-2.528,-2.5601,-2.5717,-2.5776,-2.5439,-2.4854,-2.4587,-2.4204,-2.341,-2.2698,-2.2066,-2.1088,-2.0167,-1.9954,-2.0019,-1.9825,-1.9673,-1.8829,-1.814,-1.7406,-1.6762,-1.7088,-1.7895,-1.8689,-1.8788,-1.5778,-1.451,-1.3242,-0.6323,-0.3192,-0.5636,-0.8508,-1.0276,-0.6062,-0.9999,-1.774,-2.0551,-1.952,-1.6415,-1.8125,-1.9927,-1.9817,-1.9735,-1.9522,-1.9192,-1.7422,-1.8134,-2.0305,-2.1532,-2.0938,-2.1125,-2.0028,-1.739,-1.3097,-0.8473,-0.749,-1.5924,-0.7808,-0.1754,0.1299,-0.3626,0.3379,1.563,1.1397,0.5119,0.4616,0.978,1.7415,1.949,1.6278,1.2526,1.2843,1.3325,1.4034,1.543,1.685,1.9352,1.7045,1.5854,0.9801,0.4195,-0.3519,-0.8293,-1.1648,-1.2692,-1.315,-1.3555,-1.4242,-1.4651,-1.5644,-1.795,-1.9071,-1.9858,-1.9409,-1.8718,-1.8382,-1.809,-1.7741,-1.7603,-1.7625,-1.7809,-1.8163,-1.892,-1.9953,-2.0598,-2.1088,-2.1571,-2.2128,-2.2552,-2.2645,-2.2739,-2.3052,-2.3748,-2.3989,-2.4064,-2.4613,-2.4954,-2.4925,-2.4714,-2.4257,-2.3722,-2.3272,-2.271,-2.1896,-2.114,-2.0328,-1.9152,-1.7774,-1.7794,-1.7948,-1.8016,-1.7813,-1.7083,-1.6401,-1.5624,-1.5059,-1.4498,-1.4877,-1.5696,-1.5653,-0.0649,0.3029,0.7996,0.7306,0.3034,0.8441,0.4229,-0.3634,0.44,-0.0778,-1.2222,-1.8825,-1.621,-0.7619,-1.5635,-1.8679,-1.8803,-1.6724,-1.9929,-1.6619,-1.4255,-1.3117,-1.9472,-1.9665,-2.0632,-2.1157,-1.9297,-1.285,-0.5104,-0.1053,0.016,-0.2014,0.562,1.3455,1.579,1.0337,1.438,2.5706,2.2601,1.5129,1.2453,1.153,1.4862,1.9177,1.8777,2.0698,2.1494,2.2808,2.3497,2.4353,2.3388,2.065,1.5365,1.4967,1.1993,0.6942,0.2461,-0.1618,-0.4855,-0.6806,-0.7817,-0.9088,-0.9888,-1.0091,-1.1428,-1.4449,-1.6375,-1.7154,-1.7404,-1.6623,-1.6158,-1.5818,-1.5585,-1.5558,-1.5578,-1.5883,-1.6131,-1.7269,-1.8401,-1.8966,-1.9409,-1.9952,-2.0506,-2.082,-2.0864,-2.0973,-2.1174,-2.1471,-2.177,-2.1958,-2.2984,-2.3364,-2.3508,-2.3357,-2.2952,-2.2384,-2.1808,-2.09,-2.0008,-1.9249,-1.8522,-1.7523,-1.6444,-1.6044,-1.5913,-1.6175,-1.6235,-1.5843,-1.5084,-1.3932,-1.3273,-1.2611,-1.1951,-1.2317,-1.2178,0.6029,0.8952,1.3825,1.2136,0.7053,0.8999,0.5438,-0.0377,-0.1079,-0.2646,-0.5273,-0.8681,-0.5512,0.2689,-0.6232,-0.9108,-0.8604,-0.8317,-0.7388,-0.6592,-0.4876,-0.2806,-0.7134,-1.2629,-1.1835,-1.142,-0.4819,0.2087,0.7053,0.6645,0.7179,0.7856,1.8772,2.456,2.7139,2.4353,2.3296,2.8284,2.9324,2.6316,2.057,1.9118,1.8261,2.1861,2.3181,2.5051,2.5546,2.643,2.672,2.6535,2.543,2.3356,1.9451,1.8202,1.4926,1.0966,0.7536,0.5432,0.2103,-0.0708,-0.2827,-0.4408,-0.6218,-0.6698,-0.7917,-1.0664,-1.2107,-1.2932,-1.4148,-1.3726,-1.4268,-1.4155,-1.4114,-1.4073,-1.4168,-1.4364,-1.4827,-1.5648,-1.6651,-1.743,-1.7856,-1.8364,-1.8923,-1.9543,-1.9659,-2.0125,-2.0193,-2.0311,-2.0311,-1.9836,-2.0871,-2.1487,-2.1513,-2.1758,-2.162,-2.0917,-2.0073,-1.9159,-1.814,-1.6725,-1.5739,-1.5607,-1.5163,-1.4419,-1.4196,-1.4704,-1.4633,-1.406,-1.2968,-1.1582,-1.1143,-1.0771,-1.011,-0.9518,-0.9643,0.7218,0.8019,1.0764,1.0651,0.7749,0.2607,0.0766,-0.0268,-0.8966,-0.6991,0.234,0.5929,0.812,0.9994,1.0171,1.0168,1.0245,1.0587,0.9617,0.9406,1.0391,1.2869,1.0406,0.4587,0.5521,0.8757,1.4568,1.7204,2.0102,1.8753,1.7566,1.6427,1.8255,2.1649,2.8919,3.1602,3.1289,3.1411,3.1887,3.2081,2.9372,2.6558,2.5133,2.4735,2.4782,2.4802,2.5405,2.5811,2.6451,2.625,2.5805,2.3179,2.1306,1.9207,1.6569,1.3098,1.1809,0.9371,0.6374,0.3059,0.1376,-0.0265,-0.2257,-0.3906,-0.5195,-0.6419,-0.782,-0.9103,-1.0312,-1.1428,-1.1958,-1.2296,-1.2243,-1.2573,-1.2666,-1.3066,-1.3644,-1.4249,-1.5076,-1.5876,-1.6252,-1.6768,-1.7327,-1.7931,-1.8359,-1.8878,-1.9267,-1.9651,-1.9564,-1.8619,-1.8568,-1.8878,-1.8934,-1.9314,-1.976,-1.9159,-1.815,-1.7319,-1.6209,-1.4435,-1.3013,-1.2882,-1.267,-1.2378,-1.2378,-1.267,-1.2524,-1.1937,-1.0697,-0.9739,-0.9513,-0.9357,-0.8978,-0.8456,-0.7918,0.5937,0.6942,0.5478,0.4766,0.4402,0.1353,0.2691,0.658,0.466,0.812,1.1353,1.5269,2.0287,2.9839,3.0356,2.8133,2.2655,2.4823,2.8785,3.0251,2.388,2.771,2.7846,1.9764,2.6626,2.8139,2.8363,3.1164,2.8005,2.9013,2.9965,2.7171,2.8133,2.9785,3.0916,3.2478,3.1863,3.2475,3.2524,3.2259,3.1967,2.9947,2.9257,2.8602,2.7966,2.8012,2.8087,2.7687,2.8306,2.7991,2.6151,2.3002,2.0904,1.9254,1.6861,1.5003,1.3938,1.221,0.9115,0.6531,0.473,0.2129,0.0266,-0.093,-0.205,-0.2983,-0.4347,-0.5593,-0.6883,-0.8404,-0.9128,-0.94,-0.9539,-1.0501,-1.0905,-1.1911,-1.2747,-1.3279,-1.3913,-1.4328,-1.4545,-1.5102,-1.5713,-1.5945,-1.5881,-1.6351,-1.6669,-1.6995,-1.7201,-1.6789,-1.6435,-1.6347,-1.6417,-1.6615,-1.6999,-1.6752,-1.5948,-1.5246,-1.4237,-1.2424,-1.1045,-1.0254,-1.0034,-1.0318,-1.0254,-1.0404,-1.0034,-1.0168,-0.9653,-0.8912,-0.8389,-0.8084,-0.7698,-0.7076,-0.63]},{"header":{"parameterUnit":"m.s-1","parameterCategory":1,"la1":31.0,"la2":29.5877,"lo1":-88.7671,"lo2":-86.6584,"dy":0.0162,"dx":0.0185,"nx":115,"ny":88,"refTime":"2023-05-25T12:00:00:Z","depth":0,"parameterNumber":3,"parameterNumberName":"V-component_of_WINDS"},"data":[0.0,0.0,0.0,0.0,0.0,0.0,0.0,0.0,0.0,0.0,0.0,0.0,0.0,0.0,0.0,0.0,0.0,0.0,0.0,0.0,0.0,0.0,0.0,0.0,0.0,0.0,0.0,0.0,0.0,0.0,0.0,0.0,0.0,0.0,0.0,0.0,0.0,0.0,0.0,0.0,0.0,0.0,0.0,0.0,0.0,0.0,0.0,0.0,0.0,0.0,0.0,0.0,0.0,0.0,0.0,0.0,0.0,0.0,0.0,0.0,0.0,0.0,0.0,0.0,0.0,0.0,0.0,0.0,0.0,0.0,0.0,0.0,0.0,0.0,0.0,0.0,0.0,0.0,0.0,0.0,0.0,0.0,0.0,0.0,0.0,0.0,0.0,0.0,0.0,0.0,0.0,0.0,0.0,0.0,0.0,0.0,0.0,0.0,0.0,0.0,0.0,0.0,0.0,0.0,0.0,0.0,0.0,0.0,0.0,0.0,0.0,0.0,0.0,0.0,0.0,0.0,0.0,0.0,0.0,0.0,0.0,0.0,0.0,0.0,0.0,0.0,0.0,0.0,0.0,0.0,0.0,0.0,0.0,0.0,0.0,0.0,0.0,0.0,0.0,0.0,0.0,0.0,0.0,0.0,0.0,0.0,0.0,0.0,0.0,0.0,0.0,0.0,0.0,0.0,0.0,0.0,0.0,0.0,0.0,0.0,0.0,0.0,0.0,0.0,0.0,0.0,0.0,0.0,0.0,0.0,0.0,0.0,0.0,0.0,0.0,0.0,0.0,0.0,0.0,0.0,0.0,0.0,0.0,0.0,0.0,0.0,0.0,0.0,0.0,0.0,0.0,0.0,0.0,0.0,0.0,0.0,0.0,0.0,0.0,0.0,0.0,0.0,0.0,0.0,0.0,0.0,0.0,0.0,0.0,0.0,0.0,0.0,0.0,0.0,0.0,0.0,0.0,0.0,0.0,0.0,0.0,0.0,0.0,0.0,0.0,0.0,0.0,0.0,0.0,0.0,0.0,0.0,0.0,0.0,0.0,0.0,0.0,0.0,0.0,0.0,0.0,0.0,0.0,0.0,0.0,0.0,0.0,0.0,0.0,0.0,0.0,0.0,0.0,0.0,0.0,0.0,0.0,0.0,0.0,0.0,0.0,0.0,0.0,0.0,0.0,0.0,0.0,0.0,0.0,0.0,0.0,0.0,0.0,0.0,0.0,0.0,0.0,0.0,0.0,0.0,0.0,0.0,0.0,0.0,0.0,0.0,0.0,0.0,0.0,0.0,0.0,0.0,0.0,0.0,0.0,0.0,0.0,0.0,0.0,0.0,0.0,0.0,0.0,0.0,0.0,0.0,0.0,0.0,0.0,0.0,0.0,0.0,0.0,0.0,0.0,0.0,0.0,0.0,0.0,0.0,0.0,0.0,0.0,0.0,0.0,0.0,0.0,0.0,0.0,0.0,0.0,0.0,0.0,0.0,0.0,0.0,0.0,0.0,0.0,0.0,0.0,0.0,0.0,0.0,0.0,0.0,0.0,0.0,0.0,0.0,0.0,0.0,0.0,0.0,0.0,0.0,0.0,0.0,0.0,0.0,0.0,0.0,0.0,0.0,0.0,0.0,0.0,0.0,0.0,0.0,0.0,0.0,0.0,0.0,0.0,0.0,0.0,0.0,0.0,0.0,0.0,0.0,0.0,0.0,0.0,0.0,0.0,0.0,0.0,0.0,0.0,0.0,0.0,0.0,0.0,0.0,0.0,0.0,0.0,0.0,0.0,0.0,0.0,0.0,0.0,0.0,0.0,0.0,0.0,0.0,0.0,0.0,0.0,0.0,0.0,0.0,0.0,0.0,0.0,0.0,0.0,0.0,0.0,0.0,0.0,0.0,0.0,0.0,0.0,0.0,0.0,0.0,0.0,0.0,0.0,0.0,0.0,0.0,0.0,0.0,0.0,0.0,0.0,0.0,0.0,0.0,0.0,0.0,0.0,0.0,0.0,0.0,0.0,0.0,0.0,0.0,0.0,0.0,0.0,0.0,0.0,0.0,0.0,0.0,0.0,0.0,0.0,0.0,0.0,0.0,0.0,0.0,0.0,0.0,0.0,0.0,0.0,0.0,0.0,0.0,0.0,0.0,0.0,0.0,0.0,0.0,0.0,0.0,0.0,0.0,0.0,0.0,0.0,0.0,0.0,0.0,0.0,0.0,0.0,0.0,0.0,0.0,0.0,0.0,0.0,0.0,0.0,0.0,0.0,0.0,0.0,0.0,0.0,0.0,0.0,0.0,0.0,0.0,0.0,0.0,0.0,0.0,0.0,0.0,0.0,0.0,0.0,0.0,0.0,0.0,0.0,0.0,0.0,0.0,0.0,0.0,0.0,0.0,0.0,0.0,0.0,0.0,0.0,0.0,0.0,0.0,0.0,0.0,0.0,0.0,0.0,0.0,0.0,0.0,0.0,0.0,0.0,0.0,0.0,0.0,0.0,0.0,0.0,0.0,0.0,0.0,0.0,0.0,0.0,0.0,0.0,0.0,0.0,0.0,0.0,0.0,0.0,0.0,0.0,0.0,0.0,0.0,0.0,0.0,0.0,0.0,0.0,0.0,0.0,0.0,0.0,0.0,0.0,0.0,0.0,0.0,0.0,0.0,0.0,0.0,0.0,0.0,0.0,0.0,0.0,0.0,0.0,0.0,0.0,0.0,0.0,0.0,0.0,0.0,0.0,0.0,0.0,0.0,0.0,0.0,0.0,0.0,0.0,0.0,0.0,0.0,0.0,0.0,0.0,0.0,0.0,0.0,0.0,0.0,0.0,0.0,0.0,0.0,0.0,0.0,0.0,0.0,0.0,0.0,0.0,0.0,0.0,0.0,0.0,0.0,0.0,0.0,0.0,0.0,0.0,0.0,0.0,0.0,0.0,0.0,0.0,0.0,0.0,0.0,0.0,0.0,0.0,0.0,0.0,0.0,0.0,0.0,0.0,0.0,0.0,0.0,0.0,0.0,0.0,0.0,0.0,0.0,0.0,0.0,0.0,0.0,0.0,0.0,0.0,0.0,0.0,0.0,0.0,0.0,0.0,0.0,0.0,0.0,0.0,0.0,0.0,0.0,0.0,0.0,0.0,0.0,0.0,0.0,0.0,0.0,0.0,0.0,0.0,0.0,0.0,0.0,0.0,0.0,0.0,0.0,0.0,0.0,0.0,0.0,0.0,0.0,0.0,0.0,0.0,0.0,0.0,0.0,0.0,0.0,0.0,0.0,0.0,0.0,0.0,0.0,0.0,0.0,0.0,0.0,0.0,0.0,0.0,0.0,0.0,0.0,0.0,0.0,0.0,0.0,0.0,0.0,0.0,0.0,0.0,0.0,0.0,0.0,0.0,0.0,0.0,0.0,0.0,0.0,0.0,0.0,0.0,0.0,0.0,0.0,0.0,0.0,0.0,0.0,0.0,0.0,0.0,0.0,0.0,0.0,0.0,0.0,0.0,0.0,0.0,0.0,0.0,0.0,0.0,0.0,0.0,0.0,0.0,0.0,0.0,0.0,0.0,0.0,0.0,0.0,0.0,0.0,0.0,0.0,0.0,0.0,0.0,0.0,0.0,0.0,0.0,0.0,0.0,0.0,0.0,0.0,0.0,0.0,0.0,0.0,0.0,0.0,0.0,0.0,0.0,0.0,0.0,0.0,0.0,0.0,0.0,0.0,0.0,0.0,0.0,0.0,0.0,0.0,0.0,0.0,0.0,0.0,0.0,0.0,0.0,0.0,0.0,0.0,0.0,0.0,0.0,0.0,0.0,0.0,0.0,0.0,0.0,0.0,0.0,0.0,0.0,0.0,0.0,0.0,0.0,0.0,0.0,0.0,0.0,0.0,0.0,0.0,0.0,0.0,0.0,0.0,0.0,0.0,0.0,0.0,0.0,0.0,0.0,0.0,0.0,0.0,0.0,0.0,0.0,0.0,0.0,0.0,0.0,0.0,0.0,0.0,0.0,0.0,0.0,0.0,0.0,0.0,0.0,0.0,0.0,0.0,0.0,0.0,0.0,0.0,0.0,0.0,0.0,0.0,0.0,0.0,0.0,0.0,0.0,0.0,0.0,0.0,0.0,0.0,0.0,0.0,0.0,0.0,0.0,0.0,0.0,0.0,0.0,0.0,0.0,0.0,0.0,0.0,0.0,0.0,0.0,0.0,0.0,0.0,0.0,0.0,0.0,0.0,0.0,0.0,0.0,0.0,0.0,0.0,0.0,0.0,0.0,0.0,0.0,0.0,0.0,0.0,-3.1731,0.0,0.0,0.0,0.0,0.0,0.0,0.0,0.0,0.0,0.0,0.0,0.0,0.0,0.0,0.0,0.0,0.0,0.0,0.0,0.0,0.0,0.0,0.0,0.0,0.0,0.0,0.0,0.0,0.0,0.0,0.0,0.0,0.0,0.0,0.0,0.0,0.0,0.0,0.0,0.0,0.0,0.0,0.0,0.0,0.0,0.0,0.0,0.0,0.0,0.0,0.0,0.0,0.0,0.0,0.0,0.0,0.0,0.0,0.0,0.0,0.0,0.0,0.0,0.0,0.0,0.0,0.0,0.0,0.0,0.0,0.0,0.0,0.0,0.0,0.0,0.0,0.0,0.0,0.0,0.0,0.0,0.0,0.0,0.0,0.0,0.0,0.0,0.0,0.0,0.0,0.0,0.0,0.0,0.0,0.0,0.0,0.0,0.0,0.0,0.0,0.0,0.0,0.0,0.0,0.0,0.0,0.0,0.0,0.0,0.0,-3.3036,-3.2694,-3.253,-3.2334,-3.2179,0.0,0.0,0.0,0.0,0.0,0.0,0.0,0.0,0.0,0.0,0.0,0.0,0.0,0.0,0.0,0.0,0.0,0.0,0.0,0.0,0.0,0.0,0.0,0.0,0.0,0.0,0.0,0.0,0.0,0.0,0.0,0.0,0.0,0.0,0.0,0.0,0.0,0.0,0.0,0.0,0.0,0.0,0.0,0.0,0.0,0.0,0.0,0.0,0.0,0.0,0.0,0.0,0.0,0.0,0.0,0.0,0.0,0.0,0.0,0.0,0.0,0.0,0.0,0.0,0.0,0.0,0.0,0.0,0.0,0.0,0.0,0.0,0.0,0.0,0.0,0.0,0.0,0.0,0.0,0.0,0.0,0.0,0.0,0.0,0.0,0.0,0.0,0.0,0.0,0.0,0.0,0.0,0.0,0.0,0.0,0.0,0.0,0.0,0.0,0.0,0.0,0.0,0.0,0.0,0.0,0.0,0.0,0.0,0.0,0.0,0.0,0.0,-3.2721,-3.255,-3.2648,0.0,0.0,0.0,0.0,0.0,0.0,0.0,0.0,0.0,0.0,0.0,0.0,0.0,0.0,0.0,0.0,0.0,0.0,0.0,0.0,0.0,0.0,0.0,0.0,0.0,0.0,0.0,0.0,0.0,0.0,0.0,0.0,0.0,0.0,0.0,0.0,0.0,0.0,0.0,0.0,0.0,0.0,0.0,0.0,0.0,0.0,0.0,0.0,0.0,0.0,0.0,0.0,0.0,0.0,0.0,0.0,0.0,0.0,0.0,0.0,0.0,0.0,0.0,0.0,0.0,0.0,0.0,0.0,0.0,0.0,0.0,0.0,0.0,0.0,0.0,0.0,0.0,0.0,0.0,0.0,0.0,0.0,0.0,0.0,0.0,0.0,0.0,0.0,0.0,0.0,0.0,0.0,0.0,0.0,0.0,0.0,0.0,0.0,0.0,0.0,0.0,0.0,0.0,0.0,0.0,0.0,0.0,0.0,0.0,0.0,-3.2458,-3.358,-3.2907,0.0,-3.3105,0.0,0.0,0.0,0.0,0.0,0.0,0.0,0.0,0.0,0.0,0.0,0.0,0.0,0.0,0.0,0.0,0.0,0.0,0.0,0.0,0.0,0.0,0.0,0.0,0.0,0.0,0.0,0.0,0.0,0.0,0.0,0.0,0.0,0.0,0.0,0.0,0.0,0.0,0.0,0.0,0.0,0.0,0.0,0.0,0.0,0.0,0.0,0.0,0.0,0.0,0.0,0.0,0.0,0.0,0.0,0.0,0.0,0.0,0.0,0.0,0.0,0.0,0.0,0.0,0.0,0.0,0.0,0.0,0.0,0.0,0.0,0.0,0.0,0.0,0.0,0.0,0.0,0.0,0.0,0.0,0.0,0.0,0.0,0.0,0.0,0.0,0.0,0.0,0.0,0.0,0.0,0.0,0.0,0.0,0.0,0.0,0.0,0.0,0.0,0.0,0.0,0.0,0.0,0.0,0.0,0.0,0.0,0.0,0.0,0.0,-3.2948,-3.3628,-3.3743,-3.3901,0.0,0.0,0.0,0.0,0.0,0.0,0.0,0.0,0.0,0.0,0.0,0.0,0.0,0.0,0.0,0.0,0.0,0.0,0.0,0.0,0.0,0.0,0.0,0.0,0.0,0.0,0.0,0.0,0.0,0.0,0.0,0.0,0.0,0.0,0.0,0.0,0.0,0.0,0.0,0.0,0.0,0.0,0.0,0.0,0.0,0.0,0.0,0.0,0.0,0.0,0.0,0.0,0.0,0.0,0.0,0.0,0.0,0.0,0.0,0.0,0.0,0.0,0.0,0.0,0.0,0.0,0.0,0.0,0.0,0.0,0.0,0.0,0.0,0.0,0.0,0.0,0.0,0.0,0.0,0.0,0.0,0.0,0.0,0.0,0.0,0.0,0.0,0.0,0.0,0.0,0.0,0.0,0.0,0.0,0.0,0.0,0.0,0.0,0.0,0.0,0.0,0.0,0.0,0.0,0.0,0.0,0.0,0.0,0.0,0.0,-3.3262,-3.3497,-3.3907,-3.4427,-3.4694,-3.4694,0.0,0.0,0.0,0.0,0.0,0.0,0.0,0.0,0.0,0.0,0.0,0.0,0.0,0.0,0.0,0.0,0.0,0.0,0.0,0.0,0.0,0.0,0.0,0.0,0.0,0.0,0.0,0.0,0.0,0.0,0.0,0.0,0.0,0.0,0.0,0.0,0.0,0.0,0.0,0.0,0.0,0.0,0.0,0.0,0.0,0.0,0.0,0.0,0.0,0.0,0.0,0.0,0.0,0.0,0.0,0.0,0.0,0.0,0.0,0.0,0.0,0.0,0.0,0.0,0.0,0.0,0.0,0.0,0.0,0.0,0.0,0.0,0.0,0.0,0.0,0.0,0.0,0.0,0.0,0.0,0.0,0.0,0.0,0.0,0.0,0.0,0.0,0.0,0.0,0.0,0.0,0.0,0.0,0.0,0.0,0.0,0.0,0.0,0.0,0.0,0.0,0.0,0.0,0.0,0.0,0.0,0.0,0.0,-3.4578,-3.3981,-3.3932,-3.4614,-3.4675,-3.4694,0.0,0.0,0.0,0.0,0.0,0.0,0.0,0.0,0.0,0.0,0.0,0.0,0.0,0.0,0.0,0.0,0.0,0.0,0.0,0.0,0.0,0.0,0.0,0.0,0.0,0.0,0.0,0.0,0.0,0.0,0.0,0.0,0.0,0.0,0.0,0.0,0.0,0.0,0.0,0.0,0.0,0.0,0.0,0.0,0.0,0.0,0.0,0.0,0.0,0.0,0.0,0.0,0.0,0.0,0.0,0.0,0.0,0.0,0.0,0.0,0.0,0.0,0.0,0.0,0.0,0.0,0.0,0.0,0.0,0.0,0.0,0.0,0.0,0.0,0.0,0.0,0.0,0.0,0.0,0.0,0.0,0.0,0.0,0.0,0.0,0.0,0.0,0.0,0.0,0.0,0.0,0.0,0.0,0.0,0.0,0.0,0.0,0.0,0.0,0.0,0.0,0.0,0.0,0.0,0.0,0.0,0.0,0.0,0.0,-3.437,-3.4573,-3.4783,-3.5035,-3.475,-3.4579,0.0,0.0,0.0,0.0,0.0,0.0,0.0,0.0,0.0,0.0,0.0,0.0,0.0,0.0,0.0,0.0,0.0,0.0,0.0,0.0,0.0,0.0,0.0,0.0,0.0,0.0,0.0,0.0,0.0,0.0,0.0,0.0,0.0,0.0,0.0,0.0,0.0,0.0,0.0,0.0,0.0,0.0,0.0,0.0,0.0,0.0,0.0,0.0,0.0,0.0,0.0,0.0,0.0,0.0,0.0,0.0,0.0,0.0,0.0,0.0,0.0,0.0,0.0,0.0,0.0,0.0,0.0,0.0,0.0,0.0,0.0,0.0,0.0,0.0,0.0,0.0,0.0,0.0,0.0,0.0,0.0,0.0,0.0,0.0,0.0,0.0,0.0,0.0,0.0,0.0,0.0,0.0,0.0,0.0,0.0,0.0,0.0,0.0,0.0,0.0,0.0,0.0,0.0,0.0,0.0,0.0,0.0,0.0,0.0,-3.4536,0.0,-3.5249,-3.5028,-3.4635,-3.4337,0.0,0.0,0.0,0.0,0.0,0.0,0.0,0.0,0.0,0.0,0.0,0.0,0.0,0.0,0.0,0.0,0.0,0.0,0.0,0.0,0.0,0.0,0.0,0.0,0.0,0.0,0.0,0.0,0.0,0.0,0.0,0.0,0.0,0.0,0.0,0.0,0.0,0.0,0.0,0.0,0.0,0.0,0.0,0.0,0.0,0.0,0.0,0.0,0.0,0.0,0.0,0.0,0.0,0.0,0.0,0.0,0.0,0.0,0.0,0.0,0.0,0.0,0.0,0.0,0.0,0.0,0.0,0.0,0.0,0.0,0.0,0.0,0.0,0.0,0.0,0.0,0.0,0.0,0.0,0.0,0.0,0.0,0.0,0.0,0.0,0.0,0.0,0.0,0.0,0.0,0.0,0.0,0.0,0.0,0.0,0.0,0.0,0.0,0.0,0.0,0.0,0.0,0.0,0.0,0.0,0.0,0.0,0.0,-3.4529,-3.5185,-3.5435,-3.5265,-3.4574,-3.4374,-3.394,0.0,0.0,0.0,0.0,0.0,0.0,0.0,0.0,0.0,0.0,0.0,0.0,0.0,0.0,0.0,0.0,0.0,0.0,0.0,0.0,0.0,0.0,0.0,0.0,0.0,0.0,0.0,0.0,0.0,0.0,0.0,0.0,0.0,0.0,0.0,0.0,0.0,0.0,0.0,0.0,0.0,0.0,0.0,0.0,0.0,0.0,0.0,0.0,0.0,0.0,0.0,0.0,0.0,0.0,0.0,0.0,0.0,0.0,0.0,0.0,0.0,0.0,0.0,0.0,0.0,0.0,0.0,0.0,0.0,0.0,0.0,0.0,0.0,0.0,0.0,0.0,0.0,0.0,0.0,0.0,0.0,0.0,0.0,0.0,0.0,0.0,0.0,0.0,0.0,0.0,0.0,0.0,0.0,0.0,0.0,0.0,0.0,0.0,0.0,0.0,0.0,0.0,0.0,0.0,0.0,0.0,0.0,0.0,0.0,-3.5533,-3.5585,-3.5525,-3.53,-3.4164,-3.3726,0.0,0.0,0.0,0.0,0.0,0.0,0.0,0.0,0.0,0.0,0.0,0.0,0.0,0.0,0.0,0.0,0.0,0.0,0.0,0.0,0.0,0.0,0.0,0.0,0.0,0.0,0.0,0.0,0.0,0.0,0.0,0.0,0.0,0.0,0.0,0.0,0.0,0.0,0.0,0.0,0.0,0.0,0.0,0.0,0.0,0.0,0.0,0.0,0.0,0.0,0.0,0.0,0.0,0.0,0.0,0.0,0.0,0.0,0.0,0.0,0.0,0.0,0.0,0.0,0.0,0.0,0.0,0.0,0.0,0.0,0.0,0.0,0.0,0.0,0.0,0.0,0.0,0.0,0.0,0.0,0.0,0.0,0.0,0.0,0.0,0.0,0.0,0.0,0.0,0.0,0.0,0.0,0.0,0.0,0.0,0.0,0.0,0.0,0.0,0.0,0.0,0.0,0.0,0.0,0.0,0.0,0.0,0.0,0.0,-3.5516,-3.547,-3.5282,-3.492,-3.3647,-3.3114,-3.3434,0.0,0.0,0.0,0.0,0.0,0.0,0.0,0.0,0.0,0.0,0.0,0.0,0.0,0.0,0.0,0.0,0.0,0.0,0.0,0.0,0.0,0.0,0.0,0.0,0.0,0.0,0.0,0.0,0.0,0.0,0.0,0.0,0.0,0.0,0.0,0.0,0.0,0.0,0.0,0.0,0.0,0.0,0.0,0.0,0.0,0.0,0.0,0.0,0.0,0.0,0.0,0.0,0.0,0.0,0.0,0.0,0.0,0.0,0.0,0.0,0.0,0.0,0.0,0.0,0.0,0.0,0.0,0.0,0.0,0.0,0.0,0.0,0.0,0.0,0.0,0.0,0.0,0.0,0.0,0.0,0.0,0.0,0.0,0.0,0.0,0.0,0.0,0.0,0.0,0.0,0.0,0.0,0.0,0.0,0.0,0.0,0.0,0.0,0.0,0.0,0.0,0.0,0.0,0.0,0.0,0.0,0.0,0.0,-3.504,-3.5059,-3.4623,-3.3749,-3.2966,-3.2276,0.0,0.0,0.0,0.0,0.0,0.0,0.0,0.0,0.0,0.0,0.0,0.0,0.0,0.0,0.0,0.0,0.0,0.0,0.0,0.0,0.0,0.0,0.0,0.0,0.0,0.0,0.0,0.0,0.0,0.0,0.0,0.0,0.0,0.0,0.0,0.0,0.0,0.0,0.0,0.0,0.0,0.0,0.0,0.0,0.0,0.0,0.0,0.0,0.0,0.0,0.0,0.0,0.0,0.0,0.0,0.0,0.0,0.0,0.0,0.0,0.0,0.0,0.0,0.0,0.0,0.0,0.0,0.0,0.0,0.0,0.0,0.0,0.0,0.0,0.0,0.0,0.0,0.0,0.0,0.0,0.0,0.0,0.0,0.0,0.0,0.0,0.0,0.0,0.0,0.0,0.0,0.0,0.0,0.0,0.0,0.0,0.0,0.0,0.0,0.0,0.0,0.0,0.0,0.0,0.0,0.0,0.0,0.0,0.0,-3.3159,-3.3359,-3.3784,-3.4352,-3.3052,-3.2622,0.0,0.0,0.0,0.0,0.0,0.0,0.0,0.0,0.0,0.0,0.0,0.0,0.0,0.0,0.0,0.0,0.0,0.0,0.0,0.0,0.0,0.0,0.0,0.0,0.0,0.0,0.0,0.0,0.0,0.0,0.0,0.0,0.0,0.0,0.0,0.0,0.0,0.0,0.0,0.0,0.0,0.0,0.0,0.0,0.0,0.0,0.0,0.0,0.0,0.0,0.0,0.0,0.0,0.0,0.0,0.0,0.0,0.0,0.0,0.0,0.0,0.0,0.0,0.0,0.0,0.0,0.0,0.0,0.0,0.0,0.0,0.0,0.0,0.0,0.0,0.0,0.0,0.0,0.0,0.0,0.0,0.0,0.0,0.0,0.0,0.0,0.0,0.0,0.0,0.0,0.0,0.0,0.0,0.0,0.0,0.0,0.0,0.0,0.0,0.0,0.0,0.0,0.0,0.0,0.0,0.0,0.0,0.0,-3.2857,-3.2619,-3.2409,-3.2614,-3.329,-3.2641,-3.2482,0.0,0.0,0.0,0.0,0.0,0.0,0.0,0.0,0.0,0.0,0.0,0.0,0.0,0.0,0.0,0.0,0.0,0.0,0.0,0.0,0.0,0.0,0.0,0.0,0.0,0.0,0.0,0.0,0.0,0.0,0.0,0.0,0.0,0.0,0.0,0.0,0.0,0.0,0.0,0.0,0.0,0.0,0.0,0.0,0.0,0.0,0.0,0.0,0.0,0.0,0.0,0.0,0.0,0.0,0.0,0.0,0.0,0.0,0.0,0.0,0.0,0.0,0.0,0.0,0.0,0.0,0.0,0.0,0.0,0.0,0.0,0.0,0.0,0.0,0.0,0.0,0.0,0.0,0.0,0.0,0.0,0.0,0.0,0.0,0.0,0.0,0.0,0.0,0.0,0.0,0.0,0.0,0.0,0.0,0.0,0.0,0.0,0.0,0.0,0.0,0.0,0.0,0.0,0.0,0.0,0.0,0.0,0.0,-3.2511,-3.2649,-3.176,-3.1232,-3.1225,-3.1753,-3.1893,0.0,0.0,0.0,0.0,0.0,0.0,0.0,0.0,0.0,0.0,0.0,0.0,0.0,0.0,0.0,0.0,0.0,0.0,0.0,0.0,0.0,0.0,0.0,0.0,0.0,0.0,0.0,0.0,0.0,0.0,0.0,0.0,0.0,0.0,0.0,0.0,0.0,0.0,0.0,0.0,0.0,0.0,0.0,0.0,0.0,0.0,0.0,0.0,0.0,0.0,0.0,0.0,0.0,0.0,0.0,0.0,0.0,0.0,0.0,0.0,0.0,0.0,0.0,0.0,0.0,0.0,0.0,0.0,0.0,0.0,0.0,0.0,0.0,0.0,0.0,0.0,0.0,0.0,0.0,0.0,0.0,0.0,0.0,0.0,0.0,0.0,0.0,0.0,0.0,0.0,0.0,0.0,0.0,0.0,0.0,0.0,0.0,0.0,0.0,0.0,0.0,0.0,0.0,0.0,0.0,0.0,0.0,0.0,-3.1635,-3.1163,-3.0662,-3.0246,-3.0016,-3.0116,-3.0261,0.0,0.0,0.0,0.0,0.0,0.0,0.0,0.0,0.0,0.0,0.0,0.0,0.0,0.0,0.0,0.0,0.0,0.0,0.0,0.0,0.0,0.0,0.0,0.0,0.0,0.0,0.0,0.0,0.0,0.0,0.0,0.0,0.0,0.0,0.0,0.0,0.0,0.0,0.0,0.0,0.0,0.0,0.0,0.0,0.0,0.0,0.0,0.0,-3.2538,0.0,0.0,0.0,0.0,0.0,0.0,0.0,0.0,0.0,0.0,0.0,0.0,0.0,0.0,0.0,0.0,0.0,0.0,0.0,0.0,0.0,0.0,0.0,0.0,0.0,0.0,0.0,0.0,0.0,0.0,0.0,0.0,0.0,0.0,0.0,0.0,0.0,0.0,0.0,0.0,0.0,0.0,0.0,0.0,0.0,0.0,0.0,0.0,0.0,0.0,0.0,0.0,0.0,0.0,0.0,0.0,0.0,0.0,0.0,-3.0953,-3.0396,-2.9884,-2.9323,-2.8768,-2.8601,-2.8935,0.0,0.0,0.0,0.0,0.0,0.0,0.0,0.0,0.0,0.0,0.0,0.0,0.0,0.0,0.0,0.0,0.0,0.0,0.0,0.0,0.0,0.0,0.0,0.0,0.0,0.0,0.0,0.0,0.0,0.0,0.0,0.0,0.0,0.0,0.0,0.0,0.0,0.0,0.0,0.0,0.0,0.0,0.0,0.0,0.0,0.0,0.0,0.0,0.0,0.0,0.0,0.0,0.0,0.0,0.0,0.0,0.0,0.0,0.0,0.0,0.0,0.0,0.0,0.0,0.0,0.0,0.0,0.0,0.0,0.0,0.0,0.0,0.0,0.0,0.0,0.0,0.0,0.0,0.0,0.0,0.0,0.0,0.0,0.0,0.0,0.0,0.0,0.0,0.0,0.0,0.0,0.0,0.0,0.0,0.0,0.0,0.0,0.0,0.0,0.0,0.0,0.0,0.0,0.0,0.0,0.0,0.0,-3.0986,-3.0312,-2.9736,-2.9127,-2.8433,-2.7672,-2.7362,-2.7887,-2.9278,0.0,0.0,0.0,0.0,0.0,0.0,0.0,0.0,0.0,0.0,0.0,0.0,0.0,0.0,0.0,0.0,0.0,0.0,0.0,0.0,0.0,0.0,0.0,0.0,0.0,0.0,0.0,0.0,0.0,0.0,0.0,0.0,0.0,0.0,0.0,0.0,0.0,0.0,-3.2485,-3.1226,0.0,0.0,0.0,0.0,0.0,0.0,0.0,0.0,-3.0465,0.0,0.0,0.0,0.0,0.0,0.0,0.0,0.0,0.0,0.0,0.0,0.0,0.0,0.0,0.0,0.0,0.0,0.0,0.0,0.0,0.0,0.0,0.0,0.0,0.0,0.0,0.0,0.0,0.0,0.0,0.0,0.0,0.0,0.0,0.0,0.0,0.0,0.0,0.0,0.0,0.0,0.0,0.0,0.0,0.0,0.0,0.0,0.0,0.0,0.0,0.0,0.0,0.0,0.0,0.0,0.0,-3.1458,-3.0921,-2.9868,-2.823,-2.8043,-2.7655,-2.6911,-2.6826,-2.723,-2.8142,0.0,0.0,0.0,0.0,0.0,0.0,0.0,0.0,0.0,0.0,0.0,0.0,0.0,0.0,0.0,0.0,0.0,0.0,0.0,0.0,0.0,0.0,0.0,0.0,0.0,0.0,0.0,0.0,0.0,0.0,0.0,0.0,0.0,0.0,0.0,0.0,0.0,0.0,0.0,-2.8994,-2.8194,0.0,0.0,0.0,0.0,0.0,0.0,0.0,0.0,-2.8328,0.0,0.0,0.0,0.0,0.0,0.0,0.0,0.0,0.0,0.0,0.0,0.0,0.0,0.0,0.0,0.0,0.0,0.0,0.0,0.0,0.0,0.0,0.0,0.0,0.0,0.0,0.0,0.0,0.0,0.0,0.0,0.0,0.0,0.0,0.0,0.0,0.0,0.0,0.0,0.0,0.0,0.0,0.0,0.0,0.0,0.0,0.0,0.0,0.0,0.0,0.0,0.0,0.0,0.0,0.0,-3.1363,-3.0488,-2.9134,-2.7517,-2.7451,-2.7083,-2.6365,-2.659,-2.71,0.0,0.0,0.0,0.0,0.0,0.0,0.0,0.0,0.0,0.0,0.0,0.0,0.0,0.0,0.0,0.0,0.0,0.0,0.0,0.0,0.0,0.0,0.0,0.0,0.0,0.0,0.0,0.0,0.0,0.0,0.0,0.0,0.0,0.0,0.0,0.0,0.0,0.0,0.0,0.0,-2.7047,-2.6575,-2.555,0.0,0.0,0.0,0.0,0.0,0.0,-2.6092,-2.6272,0.0,0.0,0.0,0.0,0.0,0.0,0.0,0.0,0.0,0.0,0.0,0.0,0.0,0.0,0.0,0.0,0.0,0.0,0.0,0.0,0.0,0.0,0.0,0.0,0.0,0.0,0.0,0.0,0.0,0.0,0.0,0.0,0.0,0.0,0.0,0.0,0.0,0.0,0.0,0.0,0.0,0.0,0.0,0.0,0.0,0.0,0.0,0.0,0.0,0.0,0.0,0.0,0.0,0.0,0.0,-3.0911,-2.9698,-2.8355,-2.6874,-2.6867,-2.6644,-2.6173,-2.6505,-2.7083,0.0,0.0,0.0,0.0,0.0,0.0,0.0,0.0,0.0,0.0,0.0,0.0,0.0,0.0,0.0,0.0,0.0,0.0,0.0,0.0,0.0,0.0,0.0,0.0,0.0,0.0,0.0,0.0,0.0,0.0,0.0,0.0,0.0,0.0,0.0,0.0,0.0,0.0,0.0,0.0,0.0,-2.509,-2.3792,-2.4145,0.0,0.0,0.0,0.0,-2.5104,-2.471,0.0,0.0,0.0,0.0,0.0,0.0,0.0,0.0,0.0,0.0,0.0,0.0,0.0,0.0,0.0,0.0,0.0,0.0,0.0,0.0,0.0,0.0,0.0,0.0,0.0,0.0,0.0,0.0,0.0,0.0,0.0,0.0,0.0,0.0,0.0,0.0,0.0,0.0,0.0,0.0,0.0,0.0,0.0,0.0,0.0,0.0,0.0,0.0,0.0,0.0,0.0,0.0,0.0,0.0,0.0,0.0,-2.9414,-2.867,-2.7531,-2.5983,-2.6049,-2.6291,-2.6624,-2.6641,-2.7083,0.0,0.0,0.0,0.0,0.0,0.0,0.0,0.0,0.0,0.0,0.0,0.0,0.0,0.0,0.0,0.0,0.0,0.0,0.0,0.0,0.0,0.0,0.0,0.0,0.0,0.0,0.0,0.0,0.0,0.0,0.0,0.0,0.0,0.0,0.0,0.0,0.0,0.0,0.0,0.0,0.0,-2.3541,-2.2902,-2.2917,-2.2626,0.0,0.0,-2.167,-2.1955,-2.265,0.0,0.0,0.0,0.0,0.0,0.0,0.0,0.0,0.0,0.0,0.0,0.0,0.0,0.0,0.0,0.0,0.0,0.0,0.0,0.0,0.0,0.0,0.0,0.0,0.0,0.0,0.0,0.0,0.0,0.0,0.0,0.0,0.0,0.0,0.0,0.0,0.0,0.0,0.0,0.0,0.0,0.0,0.0,0.0,0.0,0.0,0.0,0.0,0.0,0.0,0.0,0.0,0.0,0.0,0.0,-3.0612,-2.8943,-2.8826,-2.7912,-2.6069,-2.6379,-2.6697,-2.6931,-2.6774,-2.7272,0.0,0.0,0.0,0.0,0.0,0.0,0.0,0.0,0.0,0.0,0.0,0.0,0.0,0.0,0.0,0.0,0.0,0.0,0.0,0.0,0.0,0.0,0.0,0.0,0.0,0.0,0.0,0.0,0.0,0.0,0.0,0.0,0.0,0.0,0.0,0.0,0.0,0.0,0.0,0.0,0.0,0.0,-2.0681,-2.0933,0.0,0.0,0.0,-2.1149,-2.1965,0.0,0.0,0.0,0.0,0.0,0.0,0.0,0.0,0.0,0.0,0.0,0.0,0.0,0.0,0.0,0.0,0.0,0.0,0.0,0.0,0.0,0.0,0.0,0.0,0.0,0.0,0.0,0.0,0.0,0.0,0.0,0.0,0.0,0.0,0.0,0.0,0.0,0.0,0.0,0.0,0.0,0.0,0.0,0.0,0.0,0.0,0.0,0.0,0.0,0.0,0.0,0.0,0.0,0.0,0.0,0.0,0.0,-2.8703,-2.8796,-2.8052,-2.6461,-2.6691,-2.6907,-2.7005,-2.6807,0.0,0.0,0.0,0.0,0.0,0.0,0.0,0.0,0.0,0.0,0.0,0.0,0.0,0.0,0.0,0.0,0.0,0.0,0.0,0.0,0.0,0.0,0.0,0.0,0.0,0.0,0.0,-3.2847,0.0,0.0,0.0,0.0,0.0,0.0,0.0,0.0,0.0,0.0,0.0,0.0,0.0,0.0,-1.9334,-1.8691,-1.8982,-1.9201,0.0,0.0,-2.0165,-2.115,-2.0739,-2.0529,0.0,0.0,0.0,0.0,0.0,0.0,0.0,0.0,0.0,0.0,0.0,0.0,0.0,0.0,0.0,0.0,0.0,0.0,0.0,0.0,0.0,0.0,0.0,0.0,0.0,0.0,0.0,0.0,0.0,0.0,0.0,0.0,0.0,0.0,0.0,0.0,0.0,0.0,0.0,0.0,0.0,0.0,0.0,0.0,0.0,0.0,0.0,0.0,0.0,0.0,0.0,0.0,0.0,0.0,0.0,-2.8539,-2.7955,-2.7428,-2.6983,-2.6493,-2.6401,-2.6725,-2.6725,-2.694,0.0,0.0,0.0,0.0,0.0,0.0,0.0,0.0,0.0,0.0,0.0,0.0,0.0,0.0,0.0,0.0,0.0,0.0,0.0,0.0,0.0,0.0,0.0,0.0,0.0,0.0,0.0,0.0,0.0,0.0,0.0,0.0,0.0,0.0,0.0,0.0,0.0,0.0,0.0,0.0,0.0,-1.8213,-1.7535,-1.7496,-1.7354,0.0,0.0,-1.7797,-1.7451,-1.8518,-1.9433,-1.9473,0.0,0.0,0.0,0.0,0.0,0.0,0.0,0.0,0.0,0.0,0.0,0.0,0.0,0.0,0.0,0.0,0.0,0.0,0.0,0.0,0.0,0.0,0.0,0.0,0.0,0.0,0.0,0.0,0.0,0.0,0.0,0.0,0.0,0.0,0.0,0.0,0.0,0.0,0.0,0.0,0.0,0.0,0.0,0.0,0.0,0.0,0.0,0.0,0.0,0.0,0.0,0.0,0.0,-2.9176,-2.8951,-2.9484,-2.9337,-2.8396,-2.853,-2.8469,-2.8112,-2.7621,-2.7572,0.0,0.0,0.0,0.0,0.0,0.0,0.0,0.0,0.0,0.0,0.0,0.0,0.0,0.0,0.0,0.0,0.0,0.0,0.0,0.0,0.0,0.0,0.0,0.0,0.0,0.0,0.0,0.0,-2.8775,-2.7444,-2.497,0.0,0.0,0.0,0.0,0.0,0.0,0.0,0.0,0.0,0.0,-1.6285,-1.6308,-1.6273,0.0,0.0,-1.6765,-1.7432,-1.7739,-1.8188,-1.8619,-1.8854,-1.8773,0.0,0.0,0.0,0.0,0.0,0.0,0.0,0.0,0.0,0.0,0.0,0.0,0.0,0.0,0.0,0.0,0.0,0.0,0.0,0.0,0.0,0.0,0.0,0.0,0.0,0.0,0.0,0.0,0.0,0.0,0.0,0.0,0.0,0.0,0.0,0.0,0.0,0.0,0.0,0.0,0.0,0.0,0.0,0.0,0.0,0.0,0.0,0.0,0.0,0.0,0.0,0.0,-2.9025,-2.9519,-3.0087,-3.003,-2.9206,-2.9615,-2.9568,-2.8991,-2.823,-2.7912,0.0,0.0,0.0,0.0,0.0,0.0,0.0,0.0,0.0,0.0,0.0,0.0,0.0,0.0,0.0,0.0,0.0,0.0,0.0,0.0,0.0,0.0,0.0,0.0,0.0,0.0,0.0,0.0,-2.685,-2.5259,-2.3225,0.0,0.0,0.0,0.0,0.0,0.0,0.0,0.0,0.0,0.0,-1.4992,-1.5231,-1.5372,-1.5621,-1.5696,-1.6676,-1.7644,-1.8252,-1.8109,-1.8152,-1.8701,0.0,0.0,0.0,0.0,0.0,0.0,0.0,0.0,0.0,0.0,0.0,0.0,0.0,0.0,0.0,0.0,0.0,0.0,0.0,0.0,0.0,0.0,0.0,0.0,0.0,0.0,0.0,0.0,0.0,0.0,-3.4907,0.0,0.0,0.0,0.0,0.0,0.0,0.0,0.0,0.0,0.0,0.0,0.0,0.0,0.0,0.0,0.0,0.0,0.0,0.0,0.0,0.0,0.0,-2.9,-3.0243,-2.9271,-2.8846,-2.9198,-2.9246,-2.9187,-2.9025,-2.8247,-2.7789,-2.7824,0.0,0.0,0.0,0.0,0.0,0.0,0.0,0.0,0.0,0.0,0.0,0.0,0.0,0.0,0.0,0.0,0.0,0.0,0.0,0.0,0.0,0.0,0.0,0.0,0.0,0.0,-2.733,-2.4803,-2.3106,0.0,0.0,0.0,0.0,0.0,0.0,0.0,0.0,0.0,0.0,-1.4654,-1.4511,-1.4156,-1.5054,-1.5606,-1.5613,-1.7125,-1.8225,-1.8208,-1.7904,-1.8091,0.0,0.0,0.0,0.0,0.0,0.0,0.0,0.0,0.0,0.0,0.0,0.0,0.0,0.0,0.0,0.0,0.0,0.0,0.0,0.0,0.0,0.0,0.0,0.0,0.0,0.0,0.0,-3.7509,-3.757,0.0,0.0,0.0,0.0,0.0,0.0,0.0,0.0,0.0,0.0,0.0,-3.4305,-3.4646,0.0,0.0,0.0,0.0,0.0,0.0,0.0,0.0,0.0,0.0,0.0,0.0,-2.9966,-3.0828,-3.0477,-3.0361,-3.0509,-3.0549,-3.0292,-2.9753,-2.9482,-2.8856,-2.7858,0.0,0.0,0.0,0.0,0.0,0.0,0.0,0.0,0.0,0.0,0.0,0.0,0.0,0.0,0.0,0.0,0.0,0.0,0.0,0.0,0.0,0.0,0.0,0.0,0.0,-2.563,0.0,0.0,0.0,0.0,0.0,0.0,0.0,0.0,0.0,0.0,0.0,-1.4887,-1.4665,-1.4038,-1.3659,-1.3741,-1.4111,-1.4413,0.0,0.0,0.0,0.0,0.0,0.0,0.0,0.0,0.0,0.0,0.0,0.0,0.0,0.0,-2.3199,-2.3458,-2.363,-2.3628,-2.3367,0.0,0.0,0.0,0.0,0.0,0.0,0.0,0.0,0.0,0.0,0.0,0.0,0.0,0.0,-3.6217,0.0,-3.5091,0.0,0.0,0.0,0.0,0.0,0.0,0.0,0.0,-3.4065,-3.4281,-3.4298,-3.4916,-3.4233,0.0,-3.1982,-3.1888,0.0,0.0,0.0,0.0,0.0,0.0,0.0,0.0,-3.0505,-3.1173,-3.1015,-3.1015,-3.119,-3.119,-3.0835,-3.0142,-2.9854,-2.9127,-2.7858,-2.8305,-2.8442,0.0,0.0,0.0,0.0,0.0,0.0,0.0,0.0,0.0,0.0,0.0,0.0,0.0,0.0,0.0,0.0,0.0,0.0,0.0,0.0,0.0,0.0,0.0,-2.3579,0.0,0.0,0.0,0.0,0.0,0.0,0.0,0.0,0.0,-1.6486,-1.5088,-1.405,-1.4209,-1.3657,-1.3347,-1.3741,0.0,0.0,0.0,0.0,0.0,0.0,0.0,-1.6613,-1.6455,-1.7312,-1.8113,-1.8382,-1.9706,-2.0699,-2.0633,0.0,0.0,-2.2161,-2.2445,-2.2461,-2.223,-2.2368,-2.2368,-2.199,-2.1819,-2.1581,0.0,0.0,0.0,0.0,0.0,0.0,0.0,0.0,-3.3582,-3.4323,0.0,-3.2756,0.0,0.0,0.0,0.0,0.0,-3.3381,0.0,0.0,-3.4163,-3.4502,-3.4526,-3.515,-3.4426,-3.2463,-3.154,-3.1178,-3.1194,-3.058,0.0,0.0,0.0,0.0,0.0,0.0,-3.0617,-3.1151,-3.0658,-3.0617,-3.119,-3.119,-3.0869,-3.0176,-2.9431,-2.8704,-2.7977,-2.8602,-2.914,-2.9437,-2.8797,0.0,0.0,0.0,0.0,0.0,0.0,0.0,0.0,0.0,0.0,0.0,0.0,0.0,0.0,0.0,0.0,0.0,0.0,0.0,0.0,-2.2613,0.0,0.0,0.0,0.0,0.0,0.0,0.0,0.0,0.0,0.0,-1.5479,-1.4506,-1.3708,-1.3601,0.0,0.0,0.0,0.0,-1.5606,-1.5613,-1.6519,-1.718,-1.7172,-1.6355,-1.6026,-1.7001,0.0,0.0,-1.7172,-1.7995,-1.8837,-1.9406,-1.9742,-2.0383,-2.1453,-2.2098,-2.247,-2.2428,-2.2064,-2.1931,-2.1793,-2.0832,-1.9934,-3.0497,0.0,0.0,0.0,0.0,-3.1959,-3.1967,-3.2145,-3.3182,-3.3232,-3.2631,-3.2358,0.0,0.0,0.0,0.0,0.0,0.0,-3.2447,-3.2755,-3.2967,-3.3127,-3.3176,-3.3859,-3.3064,-3.1089,-3.0354,-3.0023,-2.9919,-2.9337,-2.9761,-3.1151,0.0,0.0,0.0,0.0,-3.1015,-3.1207,-3.1015,-3.1015,-3.119,-3.119,-3.1106,-3.0886,-3.0159,-2.9685,-2.9465,-2.9161,-2.9047,-2.9157,-2.9179,0.0,0.0,0.0,0.0,0.0,0.0,0.0,0.0,0.0,0.0,0.0,0.0,0.0,0.0,0.0,0.0,0.0,0.0,0.0,-2.2664,-2.1557,-2.0331,0.0,0.0,0.0,0.0,0.0,0.0,0.0,0.0,0.0,-1.4507,-1.4043,-1.3586,0.0,0.0,-1.3499,-1.3748,-1.4008,-1.4324,-1.4545,-1.4817,0.0,-1.4985,-1.5387,-1.5538,-1.5068,-1.5646,-1.6385,-1.7131,-1.7589,-1.7769,-1.7712,-1.7586,-1.7631,-1.7978,-1.9762,-2.0731,-1.9918,-2.0061,-2.0347,-2.0078,-1.9915,-1.9785,-2.8812,-2.938,-3.0893,-3.1309,-3.1058,-3.1381,-3.1483,-3.1539,-3.2407,-3.2284,-3.1479,-3.1657,-3.0923,-2.9676,-3.0877,0.0,0.0,0.0,-3.1838,-3.1726,-3.1702,-3.1789,-3.1777,-3.1777,-3.1203,-3.0173,-2.9876,-2.978,-2.9822,-2.9624,-3.0123,-3.1151,0.0,0.0,-3.0838,-3.1095,-3.119,-3.119,-3.119,-3.119,-3.119,-3.0615,-3.0176,-2.9871,-2.9719,-2.9668,-2.9668,-2.9803,-2.9871,-2.9854,-2.979,-2.9309,0.0,0.0,0.0,0.0,0.0,0.0,0.0,0.0,0.0,0.0,0.0,-2.9106,-2.8168,0.0,0.0,0.0,-2.3124,-2.1794,-2.0462,-1.952,0.0,0.0,0.0,0.0,0.0,0.0,0.0,-1.5049,-1.405,-1.3429,-1.3629,-1.3553,-1.3474,-1.3474,-1.3367,-1.3167,-1.2875,0.0,-1.3371,-1.3207,-1.3487,-1.3741,-1.3734,-1.4295,-1.4444,-1.3817,-1.4434,-1.5143,-1.561,-1.5717,-1.588,-1.5975,-1.5915,-1.5771,-1.5771,-1.7412,-1.855,-1.7746,-1.8033,-1.8405,-1.8175,-1.8331,-1.8452,-2.7604,-2.7881,-3.0154,-3.08,-3.0389,-3.1161,-3.1467,-3.1467,-3.1524,-3.1467,-3.148,-3.0806,-3.0172,-2.9653,-3.084,0.0,-3.0402,-3.1723,-3.1661,-3.0449,-3.0467,-3.0474,-3.0387,-2.941,-2.9072,-2.9423,-2.9688,-2.9974,-3.0225,-3.0665,-3.0975,-3.1015,-2.9935,-2.9717,-3.0351,-3.0935,-3.119,-3.119,-3.119,-3.119,-3.1173,-2.9841,-2.8738,-2.8061,-2.8586,-2.8943,-2.9045,-3.0294,-3.1038,-3.1089,-3.0475,-2.9839,-2.9213,0.0,0.0,0.0,0.0,0.0,0.0,0.0,0.0,0.0,0.0,0.0,0.0,0.0,0.0,0.0,-2.0073,0.0,-1.8115,-1.7088,0.0,0.0,0.0,-1.5248,-1.5332,-1.4379,-1.3702,-1.36,0.0,0.0,-1.2788,-1.2959,-1.314,-1.314,-1.2933,-1.257,-1.1951,-1.2565,-1.2803,-1.2104,-1.2571,-1.3134,-1.3267,-1.3339,-1.3339,-1.3267,-1.3206,-1.3326,-1.3398,-1.3272,-1.3639,-1.4455,-1.458,-1.462,-1.4635,-1.5134,-1.5602,-1.5996,-1.6229,-1.6388,-1.6396,-1.6438,-1.6679,-2.7162,-2.7683,-2.7669,-2.8691,-3.0329,-3.1161,-3.1467,-3.1467,-3.1467,-3.1467,-3.148,-3.0806,-3.0158,-2.9606,-2.9932,-2.9977,-2.9787,-3.016,-3.0129,-2.984,-2.9849,-2.9561,-2.9077,-2.8951,-2.8606,-2.8127,-2.8156,-2.8422,-2.8919,-2.8621,-2.8934,-2.9761,-2.954,-2.9951,-3.0958,-3.1151,-3.119,-3.119,-3.119,-3.119,-3.1157,-3.0319,-2.9759,-2.955,-2.8602,-2.8366,-2.8994,-2.9296,-2.977,-3.0345,-3.0289,-2.9922,-2.9222,-2.7989,0.0,0.0,0.0,0.0,0.0,0.0,0.0,0.0,0.0,-2.6191,-2.4706,0.0,-2.3657,0.0,-1.8588,-1.7508,-1.8151,-1.658,0.0,0.0,-1.5332,-1.4976,-1.3293,-1.3793,-1.38,-1.2767,-1.2506,-1.2412,-1.2405,-1.2472,-1.2518,-1.2525,-1.2852,-1.3048,-1.2876,-1.2313,-1.2234,-1.2625,-1.2295,-1.2313,-1.2942,-1.3206,-1.3114,-1.3206,-1.32,-1.3206,-1.3206,-1.3006,-1.3006,-1.3209,-1.3024,-1.2893,-1.2893,-1.3026,-1.316,-1.3379,-1.4669,-1.588,-1.5549,-1.5698,-1.5863,-2.6973,-2.7696,-2.7635,-2.8637,-3.0389,-3.1161,-3.136,-3.1076,-3.1061,-3.1219,-3.1429,-2.9909,-2.9352,-2.9564,-2.928,-2.9146,-2.9146,-2.9146,-2.8981,-2.8682,-2.8734,-2.8525,-2.8159,-2.8278,-2.806,-2.7625,-2.7845,-2.8174,-2.8511,-2.8717,-2.8996,-2.9406,-2.9673,-2.9978,-3.0393,-3.0935,-3.1089,-3.0874,-3.0799,-3.0627,-3.0226,-2.9807,-2.9434,-2.9093,-2.8264,-2.818,-2.8941,-2.8774,-2.8958,-2.9546,-2.9459,-2.919,-2.8802,-2.7598,-2.657,0.0,0.0,0.0,0.0,0.0,0.0,0.0,0.0,0.0,0.0,0.0,-2.1733,-1.9479,-1.725,-1.6219,-1.6838,-1.5476,-1.4455,-1.4209,-1.4245,-1.377,-1.2648,-1.311,-1.2987,-1.1781,-1.162,-1.1471,-1.1025,-1.095,-1.095,-1.0944,-1.1206,-1.1474,-1.1474,-1.1002,-1.0684,-1.0762,-1.069,-1.0768,-1.1397,-1.1474,-1.1474,-1.1474,-1.148,-1.1474,-1.1474,-1.1348,-1.1246,-1.1235,-1.1421,-1.162,-1.162,-1.207,-1.2305,-1.2466,-1.3293,-1.4064,-1.3992,-1.4091,-1.4363,-2.7162,-2.7934,-2.868,-2.9586,-3.051,-3.1028,-3.0959,-3.0492,-3.0417,-3.0679,-3.0983,-2.8606,-2.8225,-2.9265,-2.8727,-2.8472,-2.8472,-2.8457,-2.8143,-2.7575,-2.756,-2.756,-2.756,-2.756,-2.756,-2.761,-2.814,-2.8415,-2.8511,-2.9496,-2.981,-2.9579,-2.9897,-2.9886,-2.9617,-3.0492,-3.0783,-3.0396,-3.0405,-3.0021,-2.9296,-2.9214,-2.8805,-2.811,-2.7992,-2.8298,-2.8941,-2.8636,-2.861,-2.8999,-2.8616,-2.8339,-2.8268,-2.7063,-2.6412,0.0,-2.4746,0.0,0.0,0.0,0.0,0.0,0.0,0.0,0.0,-2.0138,-1.9444,-1.7842,-1.6105,-1.5037,-1.5086,-1.4042,-1.3433,-1.3737,-1.2689,-1.2026,-1.2335,-1.2071,-1.1545,-1.0708,-1.0634,-1.0271,-0.9523,-0.9296,-0.9296,-0.9453,-0.9311,-0.9266,-0.916,-0.9175,-0.8951,-0.8012,-0.8694,-0.9504,-0.9565,-0.9473,-0.9473,-0.9387,-0.9483,-0.9296,-0.9473,-0.9392,-0.9377,-0.9458,-1.0051,-1.0565,-1.064,-1.1391,-1.2077,-1.2077,-1.2271,-1.2405,-1.2432,-1.2471,-1.2816,-2.7986,-2.8784,-2.894,-2.9863,-3.1203,-3.0345,-3.019,-3.0462,-2.9983,-2.9529,-2.9072,-2.8062,-2.7736,-2.7949,-2.7829,-2.7754,-2.782,-2.7805,-2.776,-2.756,-2.756,-2.756,-2.756,-2.756,-2.756,-2.761,-2.771,-2.8042,-2.8479,-2.8222,-2.8823,-3.0145,-2.928,-2.9343,-3.0245,0.0,0.0,0.0,-3.0807,-3.0954,-3.0768,-3.0192,-2.9837,-2.9668,-2.9076,0.0,-2.8975,-2.9492,-2.9549,-2.9185,-2.9176,0.0,0.0,0.0,0.0,0.0,0.0,0.0,0.0,0.0,0.0,0.0,-2.0767,-1.9857,-1.953,-1.82,-1.7161,-1.6665,-1.5043,-1.4076,-1.4334,-1.2553,-1.149,-1.168,-1.065,-0.9922,-0.996,-0.9922,-0.975,-0.9599,-0.9593,-0.9518,-0.9296,-0.9296,-0.9301,-0.9145,-0.8618,-0.8084,-0.8089,-0.8084,-0.8313,-0.8841,-0.8998,-0.9221,-0.9296,-0.9221,-0.9145,-0.9296,-0.9296,-0.9221,-0.9221,-0.9226,-0.9301,-0.9221,-0.9448,-0.9593,-0.9599,-1.0415,-1.1069,-1.1087,-1.1516,-1.2024,-1.2245,-1.2111,-1.2094,-2.8168,0.0,-2.9026,-2.997,0.0,-3.0116,-2.9769,-2.9998,-2.937,-2.8727,-2.8083,-2.7735,-2.7607,-2.756,-2.756,-2.756,-2.756,-2.756,-2.756,-2.756,-2.756,-2.756,-2.756,-2.756,-2.756,-2.756,-2.756,-2.7745,-2.8042,-2.8042,-2.8357,-2.8991,-2.8666,-2.8867,-2.9503,-2.9437,-2.954,-2.9865,-3.0166,-3.0128,-2.9749,-2.942,-2.936,-2.9638,-2.8937,0.0,0.0,0.0,0.0,0.0,0.0,0.0,0.0,0.0,0.0,-2.6512,-2.5223,-2.4601,-2.4767,-2.2673,-2.1282,-2.1112,-1.9149,-1.7939,-1.7939,-1.628,-1.4925,-1.4348,-1.3027,-1.2103,-1.179,-1.0709,-1.0095,-1.0209,-0.9672,-0.9296,-0.9296,-0.9296,-0.9069,-0.8618,-0.8542,-0.8389,-0.7859,-0.7778,-0.7783,-0.7783,-0.7403,-0.7099,-0.7022,-0.7099,-0.7326,-0.7787,-0.7783,-0.7778,-0.7783,-0.7783,-0.7859,-0.7783,-0.7783,-0.7855,-0.7783,-0.7783,-0.7859,-0.7859,-0.8237,-0.8542,-0.8609,-0.928,-1.0081,-1.0498,-1.0832,-1.1198,-1.1695,-1.175,-1.1859,-2.8182,-2.9038,-2.9318,-3.0176,-3.1255,-3.0088,-2.9445,-2.919,0.0,0.0,0.0,-2.756,-2.756,-2.756,-2.756,-2.756,-2.756,-2.756,-2.756,-2.756,-2.756,-2.756,-2.756,-2.756,-2.756,-2.756,-2.756,-2.756,-2.7625,-2.8076,-2.8152,-2.7825,-2.8168,-2.8334,-2.8367,-2.8966,-2.918,-2.9073,-2.9271,-2.9118,-2.8499,-2.8629,-2.8871,-2.9387,-2.8923,-2.916,-3.0222,-2.9176,-2.8514,-2.8314,-2.7805,-2.7501,-2.7426,-2.6903,-2.6578,-2.6444,-2.5283,-2.4504,-2.4253,-2.2002,-2.0411,-1.9901,-1.7707,-1.6358,-1.6358,-1.4577,-1.299,-1.2018,-1.1069,-1.019,-0.9372,-0.9145,-0.9074,-0.9069,-0.8846,-0.877,-0.877,-0.8765,-0.8389,-0.771,-0.7553,-0.7249,-0.649,-0.6412,-0.6261,-0.6338,-0.6412,-0.6261,-0.6261,-0.6335,-0.6412,-0.649,-0.6563,-0.6412,-0.6335,-0.6412,-0.6261,-0.649,-0.6412,-0.6261,-0.6261,-0.6261,-0.6261,-0.649,-0.7022,-0.748,-0.7621,-0.8379,-0.9254,-0.9963,-1.0237,-1.0454,-1.1139,-1.1303,-1.1478,-2.8233,-2.9142,-3.0524,-3.097,-3.0582,-2.9879,-2.8936,-2.7859,-2.7754,-2.77,-2.756,-2.756,-2.756,-2.756,-2.756,-2.756,-2.756,-2.756,-2.756,-2.756,-2.756,-2.756,-2.756,-2.756,-2.756,-2.756,-2.761,-2.756,-2.761,-2.766,-2.7961,-2.8359,-2.7961,-2.776,-2.7745,-2.8319,-2.8367,-2.7894,-2.8857,-2.9358,-2.9262,-2.9762,-3.0044,-3.0145,-3.053,-3.0825,-3.1021,-3.0335,-2.977,-2.9251,-2.8667,-2.8088,-2.7595,-2.7455,-2.7136,-2.6512,-2.57,-2.4964,-2.4318,-2.1996,-1.9619,-1.7357,-1.6062,-1.5376,-1.5367,-1.3548,-1.2018,-1.1075,-1.0115,-0.9448,-0.9221,-0.8542,-0.8008,-0.7931,-0.7249,-0.6718,-0.6791,-0.6872,-0.6795,-0.6644,-0.649,-0.649,-0.6338,-0.6261,-0.6261,-0.6261,-0.6261,-0.6261,-0.6261,-0.6261,-0.6261,-0.6261,-0.6261,-0.6261,-0.6261,-0.6261,-0.6261,-0.6261,-0.6261,-0.6261,-0.6261,-0.6261,-0.6261,-0.6261,-0.6479,-0.6553,-0.6553,-0.7772,-0.8641,-0.9088,-0.9858,-1.0663,-1.0976,-1.0902,-1.0873,-2.8939,-2.9842,-3.0997,-3.1351,-3.0986,-3.0013,-2.8816,-2.7604,-2.756,-2.756,-2.756,-2.756,-2.756,-2.756,-2.756,-2.756,-2.756,-2.756,-2.756,-2.756,-2.756,-2.756,-2.761,-2.7959,-2.791,-2.761,-2.7959,-2.7894,-2.761,-2.756,-2.779,-2.8045,-2.8061,-2.8091,-2.8091,-2.8383,-2.8496,-2.8575,-2.881,-2.8732,-2.8448,-2.8996,-2.9496,-2.9805,-3.0377,-3.0699,-3.0699,-3.0435,-2.9865,-2.8966,-2.8654,-2.8238,-2.766,-2.756,-2.7092,-2.5983,-2.5617,-2.4709,-2.3096,-2.1065,-1.8936,-1.6766,-1.5728,-1.472,-1.3621,-1.2311,-1.1069,-1.004,-0.9069,-0.8237,-0.7706,-0.7249,-0.7022,-0.7026,-0.6567,-0.6261,-0.6261,-0.6261,-0.6261,-0.6261,-0.6261,-0.6261,-0.6261,-0.6261,-0.6261,-0.6261,-0.6261,-0.6257,-0.6257,-0.6261,-0.6257,-0.6261,-0.6261,-0.6261,-0.6261,-0.6261,-0.6261,-0.6261,-0.6261,-0.6261,-0.6261,-0.6261,-0.6261,-0.6251,-0.62,-0.6142,-0.6135,-0.6591,-0.7375,-0.8424,-0.8821,-0.9598,-1.0413,-1.0755,-1.0795,-2.9504,-3.0329,-3.0778,-3.1144,-3.1357,-2.9953,-2.8757,-2.788,-2.7786,-2.7715,-2.7605,-2.7565,-2.769,-2.784,-2.7825,-2.7845,-2.7978,-2.7993,-2.7929,-2.781,-2.781,-2.776,-2.7675,-2.8091,-2.8042,-2.7725,-2.8222,-2.8238,-2.786,-2.7944,-2.7978,-2.8042,-2.8463,-2.8685,-2.8701,-2.8685,-2.8904,-2.9361,-2.8919,-2.8463,-2.8042,-2.8591,-2.9134,-2.9585,-3.0208,-3.0435,-3.0309,-3.0166,-2.9585,-2.8591,-2.8367,-2.803,-2.74,-2.725,-2.6535,-2.5177,-2.4984,-2.3975,-2.1757,-1.9835,-1.8019,-1.6276,-1.5244,-1.3884,-1.1979,-1.0905,-0.9985,-0.9054,-0.8012,-0.7176,-0.6563,-0.6335,-0.6261,-0.6261,-0.6261,-0.6261,-0.6261,-0.6261,-0.6261,-0.6261,-0.6261,-0.6257,-0.6022,-0.5944,-0.5786,-0.555,-0.555,-0.555,-0.5553,-0.5553,-0.5544,-0.5678,-0.5925,-0.6257,-0.6261,-0.6261,-0.6261,-0.6261,-0.6261,-0.6261,-0.6261,-0.6261,-0.6261,-0.6247,-0.6135,-0.6061,-0.601,-0.6083,-0.6598,-0.7646,-0.8087,-0.8587,-1.0051,-1.0516,-1.0765,-2.9504,-3.0136,-2.9657,-3.0105,-3.1237,-2.9522,-2.8637,-2.8516,-2.8415,-2.8071,-2.7712,-2.761,-2.8005,-2.8618,-2.8462,-2.8685,-2.9134,-2.9225,-2.8904,-2.8463,-2.8415,-2.814,-2.771,-2.7725,-2.7675,-2.771,-2.8301,-2.859,-2.8463,-2.8904,-2.9225,-2.9225,-2.9271,-2.9271,-2.9316,-2.9316,-2.9361,-2.9406,-2.9361,-2.9316,-2.9271,-2.9821,-3.0182,-3.0192,-3.0797,-3.0878,-3.0251,-2.9761,-2.918,-2.8496,-2.7993,-2.739,-2.6767,-2.6167,-2.5242,-2.3919,-2.3633,-2.2727,-2.0831,-1.8416,-1.6465,-1.4993,-1.3846,-1.2455,-1.0707,-0.9634,-0.8699,-0.7964,-0.7022,-0.649,-0.6338,-0.6257,-0.6244,-0.6157,-0.6153,-0.6261,-0.6163,-0.6261,-0.6261,-0.6261,-0.6015,-0.5944,-0.5002,-0.4844,-0.453,-0.3826,-0.3828,-0.3748,-0.3748,-0.3748,-0.3726,-0.3908,-0.4934,-0.6012,-0.6093,-0.6257,-0.6022,-0.6099,-0.6183,-0.6103,-0.6022,-0.618,-0.6261,-0.6244,-0.6115,-0.6017,-0.6099,-0.6358,-0.674,-0.7085,-0.765,-0.8343,-0.9406,-0.9789,-1.0129,-3.0269,-3.094,-3.0631,-3.0849,-3.1263,-2.9823,-2.9199,-2.9103,-2.8676,-2.856,-2.8653,-2.8654,-2.8717,-2.8824,-2.8965,-2.918,-2.9406,-2.9406,-2.9271,-2.9042,-2.9042,-2.8919,-2.8717,-2.9042,-2.9027,-2.8811,-2.9729,-2.982,-2.9198,-2.9271,-2.9406,-2.9406,-2.9406,-2.9406,-2.9406,-2.9406,-2.9569,-2.9892,-2.9951,-3.0107,-3.0393,-3.0351,-3.0107,-2.9848,-3.0335,-3.0208,-2.9316,-2.8996,-2.8606,-2.7963,-2.7349,-2.6871,-2.6602,-2.5663,-2.4669,-2.3626,-2.1843,-2.0535,-1.9756,-1.7415,-1.5551,-1.4422,-1.3455,-1.193,-0.9708,-0.9015,-0.83,-0.7061,-0.649,-0.6261,-0.6251,-0.6176,-0.5894,-0.55,-0.5289,-0.5018,-0.4494,-0.4405,-0.4439,-0.4444,-0.4416,-0.4295,-0.3904,-0.3748,-0.3591,-0.3202,-0.3124,-0.2968,-0.3046,-0.3124,-0.3113,-0.3168,-0.3883,-0.4342,-0.4469,-0.4419,-0.4443,-0.445,-0.4375,-0.453,-0.5229,-0.5312,-0.5547,-0.6177,-0.5979,-0.5845,-0.5888,-0.594,-0.6112,-0.6564,-0.7428,-0.8254,-0.8901,-0.905,-0.9603,-3.1534,-3.2033,-3.2104,-3.2093,-3.1967,-3.0685,-3.0125,-2.9967,-2.9533,-2.9337,-2.9456,-2.9951,-2.9913,-2.9518,-2.9592,-2.9717,-2.9892,-2.9908,-2.9805,-2.9673,-2.9629,-2.954,-2.9467,-2.9805,-2.9848,-2.9621,-3.0511,-3.0642,-2.9941,-2.9892,-2.9908,-2.9892,-2.9908,-2.9908,-2.9908,-2.9892,-3.0123,-3.0477,-3.0559,-3.0657,-3.0785,-3.0301,-2.9969,-2.9903,-2.9969,-2.9556,-2.8528,-2.8124,-2.767,-2.707,-2.6572,-2.6243,-2.6048,-2.5018,-2.39,-2.2706,-2.0217,-1.8714,-1.872,-1.6292,-1.4606,-1.3917,-1.2747,-1.1005,-0.914,-0.8457,-0.7565,-0.6083,-0.5841,-0.5857,-0.5873,-0.5679,-0.5223,-0.4392,-0.4196,-0.3812,-0.324,-0.3079,-0.3204,-0.3128,-0.333,-0.2968,-0.2734,-0.2422,-0.2111,-0.2111,-0.2189,-0.2267,-0.2266,-0.2188,-0.218,-0.223,-0.223,-0.2546,-0.2903,-0.3244,-0.3117,-0.3103,-0.3256,-0.3583,-0.4117,-0.4192,-0.4573,-0.5228,-0.5344,-0.5574,-0.5668,-0.5668,-0.5564,-0.6207,-0.6868,-0.7617,-0.847,-0.8508,-0.9238,-3.3479,-3.3495,-3.3479,-3.3443,-3.3351,-3.198,-3.1358,-3.131,-3.1189,-3.0543,-2.9903,-3.1241,-3.1719,-3.0998,-3.046,-3.0559,-3.1015,-3.1015,-3.074,-3.0293,-3.0251,-2.9935,-2.9406,-2.9406,-2.9451,-2.9601,-3.031,-3.075,-3.1066,-3.1055,-3.1112,-3.1055,-3.1015,-3.1055,-3.1015,-3.1015,-3.1095,-3.1015,-3.1032,-3.0791,-3.0184,-2.9642,-2.9919,-3.0683,-2.9935,-2.8951,-2.8275,-2.7224,-2.632,-2.5719,-2.5689,-2.539,-2.473,-2.4107,-2.2797,-2.0779,-1.883,-1.7796,-1.762,-1.5059,-1.3293,-1.3139,-1.1148,-0.9165,-0.8298,-0.7561,-0.6432,-0.4811,-0.4751,-0.4765,-0.4686,-0.4588,-0.4162,-0.3368,-0.3193,-0.3065,-0.3006,-0.2748,-0.3034,-0.2955,-0.2803,-0.2422,-0.1723,-0.0785,0.0,0.0,0.0,0.0,0.0,0.0,0.0,0.0,0.0,-0.0839,-0.2556,-0.262,-0.2758,-0.2668,-0.244,-0.2934,-0.3076,-0.329,-0.3815,-0.4237,-0.4486,-0.4802,-0.5332,-0.5569,-0.5463,-0.5686,-0.5686,-0.6384,-0.7528,-0.818,-0.8954,-3.3582,-3.3582,-3.3582,-3.4073,-3.4635,-3.2465,-3.1725,-3.1971,-3.1079,-3.1208,-3.1803,-3.1732,-3.1427,-3.119,-3.0958,-3.0975,-3.119,-3.119,-3.1055,-3.0878,-3.0878,-3.074,-3.0559,-3.0559,-3.0559,-3.0667,-3.1264,-3.1708,-3.18,-3.1455,-3.119,-3.119,-3.119,-3.119,-3.119,-3.119,-3.1015,-3.0658,-3.0617,-3.0268,-2.9626,-2.9343,-2.9453,-2.9677,-2.8323,-2.7233,-2.6626,-2.6153,-2.5817,-2.56,-2.5211,-2.4836,-2.4476,-2.3181,-2.1515,-1.9527,-1.8259,-1.721,-1.6175,-1.4279,-1.2544,-1.157,-1.0206,-0.8717,-0.7509,-0.6575,-0.5621,-0.4664,-0.386,-0.3421,-0.294,-0.3136,-0.3141,-0.2368,-0.2041,-0.1742,-0.1254,-0.113,-0.1148,-0.115,-0.1084,-0.094,0.0,0.0,0.0,0.0,0.0,0.0,0.0,0.0,0.0,0.0,0.0,-0.0226,-0.082,-0.112,-0.1116,-0.1113,-0.1113,-0.1561,-0.1781,-0.2082,-0.2521,-0.3391,-0.3606,-0.4114,-0.4645,-0.5329,-0.5309,-0.5428,-0.5428,-0.5681,-0.6439,-0.7292,-0.8225,-3.4252,-3.4252,-3.4235,-3.4759,-3.5284,-3.3367,-3.2557,-3.2608,-3.1705,-3.1849,-3.2457,-3.1862,-3.1461,-3.1213,-3.1207,-3.119,-3.119,-3.119,-3.119,-3.1224,-3.1427,-3.1546,-3.1579,-3.1805,-3.1788,-3.1619,-3.1766,-3.2083,-3.2213,-3.1574,-3.1207,-3.119,-3.119,-3.119,-3.119,-3.119,-3.0975,-3.0658,-3.0576,-3.0251,-2.9563,-2.9055,-2.8727,-2.821,-2.6881,-2.6022,-2.58,-2.5409,-2.5123,-2.4942,-2.4522,-2.4298,-2.409,-2.2651,-2.0873,-1.9157,-1.8101,-1.6824,-1.509,-1.37,-1.2381,-1.1003,-0.9627,-0.837,-0.7301,-0.5931,-0.4836,-0.3975,-0.3066,-0.2071,-0.1443,-0.1587,-0.1742,-0.1184,-0.094,-0.0642,0.0,0.0,0.0,0.0,0.0,0.0,0.0,0.0,0.0,0.0,0.0,0.0,0.0,0.0,0.0,0.0,0.0,0.0,0.0,0.0,0.0,0.0,0.0,0.0,0.0,0.0,-0.1514,-0.2292,-0.2974,-0.3489,-0.4125,-0.4879,-0.5183,-0.5365,-0.5428,-0.5659,-0.6131,-0.6562,-0.7504,-3.5577,-3.5532,-3.5577,-3.5503,-3.547,-3.4543,-3.3972,-3.3339,-3.3161,-3.2326,-3.1618,-3.1894,-3.1719,-3.1318,-3.1179,-3.119,-3.119,-3.119,-3.1241,-3.136,-3.1985,-3.2297,-3.2263,-3.2778,-3.2703,-3.2171,-3.1529,-3.1647,-3.2249,-3.1596,-3.119,-3.119,-3.119,-3.119,-3.119,-3.119,-3.1151,-3.1055,-3.0998,-3.0667,-3.0015,-2.8854,-2.7932,-2.7172,-2.5972,-2.563,-2.6166,-2.507,-2.43,-2.3844,-2.3684,-2.361,-2.3378,-2.2363,-2.1005,-1.9432,-1.8258,-1.6532,-1.4483,-1.3425,-1.2565,-1.1121,-0.9354,-0.8037,-0.7297,-0.5464,-0.3823,-0.3002,-0.2059,-0.1157,0.0,0.0,0.0,0.0,0.0,0.0,0.0,0.0,0.0,0.0,0.0,0.0,0.0,0.0,0.0,0.0,0.0,0.0,0.0,0.0,0.0,0.0,0.0,0.0,0.0,0.0,0.0,0.0,0.0,0.0,0.0,0.0,0.0,-0.1401,-0.2229,-0.2816,-0.4355,-0.504,-0.5239,-0.5428,-0.5495,-0.5561,-0.5918,-0.6344,-0.6977,-3.5639,-3.5639,-3.5639,-3.5639,-3.5453,-3.4286,-3.3592,-3.3288,-3.2374,-3.1607,-3.132,-3.1461,-3.1388,-3.1269,-3.1207,-3.119,-3.119,-3.1207,-3.1444,-3.2019,-3.2696,-3.2747,-3.2442,-3.2546,-3.2513,-3.221,-3.1556,-3.1579,-3.2087,-3.1562,-3.119,-3.119,-3.119,-3.119,-3.119,-3.119,-3.1015,-3.0601,-3.0559,-2.9995,-2.8826,-2.8362,-2.7711,-2.6887,-2.6096,-2.5728,-2.5525,-2.4822,-2.4364,-2.4116,-2.3794,-2.3201,-2.2433,-2.1895,-2.0614,-1.8513,-1.7872,-1.6311,-1.3859,-1.3089,-1.1858,-0.9775,-0.8393,-0.7437,-0.6203,-0.4442,-0.3123,-0.2581,-0.144,-0.0278,0.0,0.0,0.0,0.0,0.0,0.0,0.0,0.0,0.0,0.0,0.0612,0.077,0.0391,0.0549,0.0781,0.0,0.0,0.0,0.0,0.0,0.0,0.0,0.0,0.0,0.0,0.0,0.0,0.0,0.0,0.0,0.0,0.0,0.0,-0.0619,-0.1435,-0.2578,-0.41,-0.4954,-0.5156,-0.5359,-0.5428,-0.5624,-0.5815,-0.6207,-0.6658,-3.5797,-3.5668,-3.6044,-3.6207,-3.6044,-3.4675,-3.396,-3.3526,-3.2218,-3.1438,-3.1246,-3.1224,-3.1185,-3.1179,-3.1185,-3.119,-3.1207,-3.1444,-3.2002,-3.2594,-3.2797,-3.2831,-3.2696,-3.2689,-3.2892,-3.2866,-3.2104,-3.2138,-3.2983,-3.1867,-3.1343,-3.1546,-3.1326,-3.119,-3.119,-3.119,-3.0975,-3.0658,-3.0642,-3.0002,-2.8932,-2.85,-2.8022,-2.7163,-2.6569,-2.612,-2.5709,-2.5105,-2.4511,-2.4158,-2.3752,-2.3186,-2.2419,-2.1955,-2.0677,-1.8819,-1.7686,-1.6244,-1.3527,-1.3011,-1.175,-0.9157,-0.8215,-0.7442,-0.5939,-0.4209,-0.3147,-0.2544,-0.1412,-0.0339,0.0,0.0,0.0,0.0,0.0,0.0,0.0358,0.0502,0.0,0.1119,0.1649,0.1592,0.1549,0.1458,0.1765,0.1155,0.0998,0.0989,0.097,0.0,0.0,0.0,0.0,0.0,0.0,0.0,0.0,0.0,0.0,0.0,0.0,0.0,0.0,0.0,-0.1082,-0.1959,-0.3413,-0.4284,-0.4686,-0.502,-0.5226,-0.5491,-0.5686,-0.5815,-0.6145,-3.6087,-3.5808,-3.6741,-3.7164,-3.7073,-3.5737,-3.4762,-3.4094,-3.2929,-3.1953,-3.132,-3.1404,-3.1309,-3.124,-3.1168,-3.119,-3.1292,-3.1749,-3.2391,-3.2763,-3.2645,-3.2527,-3.3186,-3.3128,-3.3389,-3.388,-3.2838,-3.2983,-3.3897,-3.2154,-3.1512,-3.1935,-3.1444,-3.119,-3.119,-3.119,-3.119,-3.1095,-3.1151,-3.0622,-2.9669,-2.9272,-2.86,-2.7755,-2.6975,-2.6552,-2.6376,-2.5535,-2.4605,-2.3767,-2.3638,-2.3522,-2.3274,-2.2349,-2.0992,-1.9304,-1.8258,-1.6146,-1.3883,-1.3064,-1.1896,-0.9478,-0.8425,-0.7567,-0.633,-0.4674,-0.3345,-0.2678,-0.1541,-0.0604,0.0,0.0,0.0,0.0,0.0,0.0557,0.1254,0.1394,0.1707,0.2426,0.28,0.28,0.2836,0.2762,0.2747,0.2609,0.2443,0.2345,0.253,0.2429,0.2594,0.2553,0.2381,0.21,0.181,0.1676,0.1542,0.1476,0.1343,0.0,0.0,0.0,0.0,0.0,-0.0605,-0.1542,-0.2544,-0.348,-0.4148,-0.435,-0.4752,-0.5156,-0.5359,-0.5418,-0.5659,-3.6207,-3.6758,-3.6672,-3.7248,-3.787,-3.594,-3.4833,-3.4534,-3.3669,-3.24,-3.165,-3.2216,-3.2046,-3.1291,-3.1218,-3.119,-3.1336,-3.1433,-3.1884,-3.2374,-3.1833,-3.2273,-3.3051,-3.2865,-3.2993,-3.3487,-3.2925,-3.278,-3.3508,-3.2019,-3.136,-3.1461,-3.136,-3.119,-3.119,-3.119,-3.119,-3.119,-3.119,-3.0818,-3.0104,-2.9888,-2.9144,-2.7855,-2.6945,-2.6472,-2.6241,-2.5332,-2.4407,-2.3668,-2.3595,-2.3374,-2.2994,-2.2158,-2.0908,-1.9238,-1.8032,-1.6525,-1.4384,-1.3288,-1.1779,-0.9508,-0.8376,-0.7377,-0.5815,-0.4077,-0.3078,-0.2342,-0.0803,0.0603,0.0872,0.094,0.094,0.094,0.1084,0.1359,0.2104,0.2304,0.2472,0.2755,0.3397,0.3591,0.3368,0.3586,0.37,0.3209,0.3119,0.3224,0.3799,0.3565,0.3653,0.3391,0.3215,0.2817,0.2544,0.2477,0.241,0.241,0.2344,0.0,0.0,0.0,0.0,0.0,-0.0067,-0.0803,-0.194,-0.2945,-0.3345,-0.3544,-0.4015,-0.435,-0.4622,-0.4758,-0.5235,-3.6669,-3.7193,-3.7015,-3.7018,-3.7009,-3.5854,-3.4903,-3.4003,-3.3066,-3.2838,-3.2802,-3.3121,-3.2769,-3.18,-3.1562,-3.1582,-3.1714,-3.175,-3.2182,-3.2786,-3.2841,-3.2909,-3.2917,-3.2527,-3.2799,-3.3309,-3.3178,-3.3245,-3.3136,-3.1901,-3.141,-3.1579,-3.1343,-3.119,-3.119,-3.119,-3.119,-3.119,-3.1173,-3.0818,-3.0019,-3.0019,-2.9262,-2.8159,-2.7446,-2.7179,-2.6302,-2.5164,-2.423,-2.3756,-2.3595,-2.3419,-2.3039,-2.2158,-2.1005,-1.9508,-1.8312,-1.6581,-1.4522,-1.3126,-1.1308,-0.9145,-0.7907,-0.6859,-0.5547,-0.4015,-0.3213,-0.2542,-0.0534,0.0736,0.1273,0.1608,0.2076,0.241,0.241,0.2676,0.3213,0.3282,0.3461,0.3929,0.4628,0.5139,0.4591,0.5252,0.5358,0.5288,0.5319,0.5456,0.5659,0.511,0.4827,0.4954,0.4982,0.4923,0.4463,0.4199,0.4005,0.3941,0.3742,0.3609,0.2941,0.2474,0.1873,0.1203,0.0669,0.0,-0.0936,-0.1738,-0.2139,-0.2473,-0.3009,-0.3413,-0.3682,-0.4059,-0.4529,-3.7079,-3.7044,-3.7534,-3.6698,-3.5507,-3.5661,-3.499,-3.3554,-3.2458,-3.2921,-3.4202,-3.4042,-3.3149,-3.2348,-3.1839,-3.1968,-3.2265,-3.2074,-3.2739,-3.3265,-3.358,-3.3445,-3.2896,-3.3163,-3.3158,-3.3288,-3.3803,-3.3666,-3.3063,-3.1862,-3.1642,-3.1817,-3.1472,-3.1224,-3.119,-3.119,-3.119,-3.119,-3.119,-3.0869,-3.0273,-3.0188,-2.9668,-2.8581,-2.8223,-2.7447,-2.6165,-2.503,-2.4185,-2.3653,-2.3595,-2.358,-2.3391,-2.2409,-2.126,-2.0178,-1.8502,-1.657,-1.4387,-1.2663,-1.0795,-0.8694,-0.7396,-0.6334,-0.5418,-0.4284,-0.3211,-0.2406,-0.0801,0.0868,0.1806,0.2476,0.3145,0.3613,0.3882,0.4148,0.4281,0.4281,0.466,0.5597,0.6356,0.6852,0.7214,0.759,0.7912,0.6726,0.6881,0.703,0.7109,0.6907,0.7025,0.7447,0.7428,0.7367,0.6711,0.6052,0.5862,0.5668,0.5342,0.5008,0.4071,0.3538,0.3076,0.2542,0.1873,0.1271,0.0601,-0.0067,-0.0668,-0.1338,-0.1873,-0.2275,-0.2614,-0.3075,-0.3539,-3.6331,-3.6035,-3.7202,-3.7306,-3.6502,-3.5017,-3.4912,-3.5666,-3.4357,-3.4018,-3.4568,-3.4443,-3.3277,-3.161,-3.1808,-3.1679,-3.1714,-3.1765,-3.207,-3.3012,-3.2204,-3.2902,-3.3525,-3.4228,-3.3792,-3.3076,-3.2894,-3.3016,-3.2702,-3.1913,-3.1419,-3.1737,-3.1482,-3.119,-3.119,-3.119,-3.119,-3.119,-3.119,-3.1089,-3.092,-3.0835,-3.048,-2.9509,-2.8395,-2.6786,-2.5382,-2.4685,-2.4221,-2.3788,-2.3595,-2.3595,-2.3363,-2.2409,-2.1151,-1.9889,-1.8448,-1.6581,-1.4455,-1.2587,-1.0912,-0.9023,-0.7494,-0.633,-0.5425,-0.3882,-0.2674,-0.1401,0.06,0.2206,0.3211,0.4217,0.442,0.435,0.4686,0.5282,0.5866,0.6059,0.6156,0.6502,0.7222,0.7736,0.7834,0.8027,0.8192,0.8093,0.8273,0.8425,0.8479,0.8479,0.8678,0.9,0.8742,0.8415,0.7832,0.7167,0.6911,0.6789,0.6531,0.6184,0.5302,0.4625,0.4169,0.3627,0.2945,0.2407,0.1938,0.1471,0.0802,0.0067,-0.0603,-0.0872,-0.1216,-0.1793,-0.2331,-3.6395,-3.6423,-3.7196,-3.6734,-3.5775,-3.5879,-3.5783,-3.522,-3.4447,-3.4058,-3.3988,-3.3776,-3.3108,-3.2437,-3.2451,-3.2433,-3.24,-3.2231,-3.2721,-3.337,-3.2861,-3.2912,-3.3583,-3.4411,-3.411,-3.2541,-3.2046,-3.2084,-3.1914,-3.1623,-3.1291,-3.1507,-3.1291,-3.119,-3.119,-3.119,-3.119,-3.119,-3.119,-3.119,-3.119,-3.1173,-3.1089,-3.0196,-2.852,-2.6702,-2.608,-2.4943,-2.4273,-2.3771,-2.3595,-2.3595,-2.3406,-2.2409,-2.1199,-2.0052,-1.846,-1.6588,-1.4421,-1.2617,-1.078,-0.8821,-0.7442,-0.6145,-0.4878,-0.3413,-0.2341,-0.1001,0.1001,0.3145,0.4486,0.4957,0.5024,0.4888,0.509,0.5752,0.6461,0.6719,0.6915,0.7302,0.8096,0.8484,0.8619,0.8807,0.9134,0.9361,0.9426,0.9582,0.9646,0.9646,0.9652,0.9779,0.9524,0.9198,0.8683,0.8221,0.7762,0.7567,0.7442,0.7003,0.6329,0.5776,0.5292,0.4666,0.3979,0.3749,0.3276,0.2809,0.2278,0.1673,0.1139,0.0741,0.0479,0.014,-0.0503,-3.6646,-3.697,-3.7141,-3.6058,-3.484,-3.6626,-3.615,-3.4323,-3.3596,-3.3862,-3.3774,-3.3073,-3.3119,-3.3499,-3.3268,-3.3379,-3.3314,-3.322,-3.3287,-3.406,-3.3434,-3.3353,-3.3599,-3.3736,-3.3521,-3.2294,-3.1881,-3.1605,-3.1462,-3.1291,-3.1372,-3.1312,-3.123,-3.119,-3.119,-3.1207,-3.128,-3.1331,-3.1241,-3.128,-3.1297,-3.1241,-3.11,-3.0459,-2.8733,-2.7362,-2.6757,-2.5617,-2.4354,-2.3882,-2.3782,-2.3709,-2.3405,-2.2441,-2.126,-2.0463,-1.8567,-1.6435,-1.4185,-1.2425,-1.0696,-0.8225,-0.7218,-0.5855,-0.4339,-0.3211,-0.2074,-0.0334,0.1671,0.388,0.5156,0.5359,0.5491,0.5554,0.562,0.6075,0.685,0.7111,0.7632,0.8156,0.8935,0.946,0.9652,0.9843,1.0295,1.0618,1.0618,1.0618,1.0618,1.0555,1.0364,1.0301,1.004,0.9977,0.9524,0.9326,0.8865,0.8678,0.8415,0.8002,0.7507,0.6972,0.6402,0.5589,0.5033,0.4812,0.4392,0.3787,0.3311,0.3025,0.2552,0.1889,0.1797,0.1996,0.1314,-3.6187,-3.5956,-3.6816,-3.6923,-3.6332,-3.4576,-3.4512,-3.522,-3.4172,-3.4804,-3.5934,-3.3986,-3.3174,-3.3541,-3.3394,-3.3063,-3.284,-3.2716,-3.3169,-3.3831,-3.327,-3.2965,-3.3579,-3.2765,-3.2311,-3.2411,-3.2265,-3.2108,-3.1752,-3.1679,-3.1696,-3.1623,-3.1411,-3.1291,-3.1291,-3.1207,-3.1482,-3.1652,-3.1482,-3.1453,-3.1594,-3.1392,-3.1038,-3.0533,-2.8876,-2.7879,-2.7114,-2.5959,-2.5045,-2.4898,-2.4498,-2.4292,-2.3842,-2.2579,-2.1185,-1.9788,-1.8395,-1.6377,-1.3708,-1.2302,-1.0504,-0.8538,-0.7172,-0.5851,-0.4273,-0.308,-0.1674,0.0733,0.2937,0.4954,0.5292,0.5428,0.5752,0.6137,0.6461,0.6981,0.8221,0.8678,0.8801,0.9256,0.9907,1.0301,1.0301,1.0301,1.0491,1.0618,1.0618,1.0618,1.0618,1.0618,1.0555,1.0491,1.0491,1.0491,1.0364,1.0301,1.0104,0.9913,0.9612,0.9232,0.8695,0.8158,0.7499,0.6767,0.6065,0.5631,0.5192,0.4816,0.4633,0.4537,0.372,0.2911,0.314,0.3381,0.2947,-3.6331,-3.6199,-3.635,-3.6664,-3.6738,-3.5013,-3.4677,-3.5455,-3.4668,-3.4848,-3.5048,-3.365,-3.2735,-3.3006,-3.2959,-3.2699,-3.255,-3.2196,-3.2527,-3.2789,-3.2266,-3.2232,-3.3125,-3.2002,-3.2391,-3.2862,-3.3066,-3.2722,-3.2231,-3.2179,-3.2109,-3.2127,-3.195,-3.186,-3.1878,-3.1932,-3.1932,-3.2076,-3.1949,-3.1929,-3.2067,-3.1709,-3.124,-3.0516,-2.9388,-2.8373,-2.7564,-2.6037,-2.5107,-2.4717,-2.4261,-2.4059,-2.3533,-2.2536,-2.104,-1.9611,-1.8277,-1.6252,-1.3508,-1.2161,-1.0566,-0.8329,-0.7149,-0.5636,-0.3939,-0.2683,-0.1139,0.1469,0.3272,0.4888,0.5359,0.5362,0.5624,0.5947,0.6465,0.7372,0.835,0.9005,0.9646,1.0218,1.0478,1.0618,1.0491,1.0555,1.0555,1.0618,1.0618,1.0681,1.0744,1.08,1.0926,1.0863,1.0926,1.0926,1.0989,1.0989,1.1171,1.1122,1.0923,1.0484,1.0083,0.9616,0.8869,0.7995,0.7345,0.6744,0.6806,0.6761,0.6386,0.6041,0.5672,0.5243,0.49,0.4645,0.4304,-3.6284,-3.665,-3.6151,-3.6414,-3.6984,-3.6145,-3.5639,-3.5432,-3.4516,-3.4179,-3.4199,-3.3057,-3.2441,-3.2553,-3.2706,-3.2809,-3.2745,-3.2415,-3.2489,-3.2511,-3.209,-3.1917,-3.2144,-3.2301,-3.2721,-3.3392,-3.3781,-3.3371,-3.2792,-3.2701,-3.2542,-3.2179,-3.2213,-3.2282,-3.2109,-3.195,-3.2239,-3.2369,-3.2352,-3.2368,-3.223,-3.1897,-3.1425,-3.0963,-2.9685,-2.8706,-2.7914,-2.6508,-2.5438,-2.4926,-2.4364,-2.3864,-2.342,-2.2395,-2.0992,-1.9458,-1.8058,-1.5894,-1.387,-1.1919,-1.0342,-0.8192,-0.7019,-0.5173,-0.3131,-0.1675,-0.0134,0.2409,0.3882,0.4686,0.5292,0.5428,0.569,0.6207,0.6789,0.7437,0.8544,0.9454,1.0338,1.0724,1.0926,1.1185,1.1435,1.1483,1.16,1.16,1.1663,1.1663,1.1663,1.1538,1.1538,1.1421,1.1421,1.1421,1.1483,1.1538,1.1884,1.2241,1.2101,1.1891,1.1514,1.1208,1.0457,0.9876,0.8659,0.8192,0.8428,0.8367,0.7771,0.7521,0.7649,0.746,0.6824,0.6417,0.6113,-3.5486,-3.6733,-3.6904,-3.7238,-3.736,-3.6506,-3.589,-3.522,-3.3592,-3.2764,-3.3002,-3.2985,-3.2793,-3.2687,-3.3229,-3.3532,-3.3522,-3.3459,-3.3386,-3.3318,-3.3019,-3.2977,-3.3247,-3.3015,-3.3424,-3.4052,-3.4396,-3.3878,-3.3511,-3.3527,-3.2792,-3.205,-3.2091,-3.1842,-3.1914,-3.195,-3.1573,-3.1899,-3.1969,-3.1986,-3.1898,-3.1605,-3.1035,-3.0285,-2.9434,-2.8619,-2.7866,-2.6764,-2.6013,-2.5652,-2.5182,-2.4465,-2.3533,-2.2381,-2.0686,-1.8985,-1.7317,-1.5759,-1.3907,-1.192,-1.0059,-0.8077,-0.6474,-0.4659,-0.2468,0.0267,0.2209,0.3544,0.4686,0.5352,0.562,0.5557,0.621,0.699,0.7637,0.8672,0.9709,1.0142,1.0968,1.1817,1.215,1.2514,1.283,1.2728,1.2765,1.2704,1.2712,1.265,1.2458,1.2274,1.2212,1.2089,1.2035,1.2089,1.2027,1.2089,1.2607,1.3165,1.3172,1.313,1.3057,1.2796,1.2799,1.2033,1.0822,0.9967,1.0119,0.9907,0.9182,0.9101,0.9509,0.9097,0.8408,0.8068,0.7673,-3.4209,-3.5751,-3.6773,-3.6743,-3.6095,-3.5649,-3.4976,-3.4076,-3.3213,-3.2668,-3.2542,-3.2688,-3.2675,-3.2649,-3.2937,-3.3027,-3.3165,-3.3599,-3.3517,-3.357,-3.3452,-3.3661,-3.3847,-3.3756,-3.4002,-3.5218,-3.5538,-3.5522,-3.501,-3.453,-3.3898,-3.3354,-3.3005,-3.2978,-3.24,-3.2631,-3.2802,-3.2948,-3.2943,-3.2822,-3.2492,-3.1978,-3.1272,-3.0415,-2.9299,-2.8407,-2.7671,-2.6465,-2.5852,-2.5411,-2.4816,-2.4127,-2.3507,-2.2696,-2.1479,-1.9901,-1.7963,-1.5966,-1.3647,-1.1559,-0.9691,-0.7872,-0.5815,-0.3606,-0.1203,0.1536,0.3808,0.4668,0.5602,0.6268,0.6728,0.6854,0.7246,0.7897,0.8667,0.943,1.0458,1.1031,1.1663,1.2522,1.3403,1.3839,1.4083,1.3925,1.3725,1.3449,1.3475,1.3378,1.3136,1.2765,1.2765,1.2826,1.2765,1.2826,1.2765,1.2765,1.3346,1.3821,1.3953,1.4038,1.4442,1.438,1.4307,1.417,1.3354,1.2634,1.2213,1.1617,1.1144,1.1236,1.1391,1.0827,1.0225,0.9114,0.8911,-3.2814,-3.4235,-3.5269,-3.5363,-3.4818,-3.4247,-3.377,-3.3333,-3.3,-3.279,-3.2599,-3.2523,-3.2479,-3.2663,-3.2759,-3.2921,-3.2957,-3.3663,-3.3512,-3.3407,-3.3519,-3.3931,-3.3969,-3.395,-3.4617,-3.6714,-3.6233,-3.6274,-3.6332,-3.5859,-3.5075,-3.4688,-3.3628,-3.3444,-3.3419,-3.3243,-3.3214,-3.3412,-3.3291,-3.3201,-3.301,-3.2229,-3.1317,-3.0293,-2.9177,-2.8131,-2.7418,-2.6488,-2.5689,-2.5297,-2.4894,-2.4333,-2.3636,-2.2624,-2.1411,-1.9674,-1.775,-1.5583,-1.327,-1.1176,-0.9348,-0.7102,-0.4599,-0.1736,0.0468,0.2941,0.4674,0.5592,0.682,0.7613,0.8135,0.8382,0.8884,0.9273,0.9666,1.0299,1.0996,1.1841,1.2623,1.3521,1.4444,1.5293,1.542,1.5157,1.4825,1.4344,1.4178,1.4266,1.4047,1.3786,1.3777,1.3957,1.4246,1.4305,1.4323,1.4282,1.4565,1.4902,1.507,1.5512,1.6179,1.6042,1.5753,1.5549,1.5403,1.5196,1.4669,1.3876,1.3187,1.3214,1.3111,1.2657,1.1964,1.0795,1.0341,-3.1397,-3.1982,-3.1823,-3.3001,-3.4606,-3.2403,-3.2334,-3.3301,-3.2772,-3.2698,-3.2831,-3.2548,-3.2711,-3.3082,-3.335,-3.352,-3.3781,-3.4549,-3.4561,-3.4407,-3.4281,-3.4264,-3.4171,-3.4073,-3.4164,-3.5062,-3.6096,-3.6986,-3.6968,-3.6504,-3.5278,-3.3952,-3.3629,-3.3091,-3.2903,-3.3014,-3.3032,-3.3152,-3.3051,-3.3092,-3.2859,-3.2122,-3.1009,-2.9974,-2.8947,-2.7925,-2.6911,-2.659,-2.63,-2.5983,-2.5433,-2.48,-2.3704,-2.2448,-2.0981,-1.9253,-1.7159,-1.4954,-1.2554,-1.0355,-0.8071,-0.5397,-0.2539,0.02,0.2336,0.4061,0.5522,0.6706,0.7986,0.8873,0.937,0.9794,1.0504,1.1057,1.1443,1.1943,1.248,1.2875,1.3752,1.4559,1.5476,1.654,1.7287,1.7124,1.6598,1.6138,1.5866,1.5934,1.5702,1.5467,1.5313,1.5439,1.5891,1.614,1.6296,1.6456,1.6674,1.7116,1.7462,1.7963,1.8565,1.8145,1.7408,1.7098,1.6934,1.6999,1.7036,1.6441,1.5817,1.5263,1.4806,1.4324,1.3847,1.3062,1.2655,-3.1223,-3.1449,-3.1658,-3.2234,-3.2896,-3.1699,-3.1571,-3.2078,-3.2107,-3.2423,-3.3002,-3.3341,-3.3464,-3.3648,-3.4561,-3.4931,-3.5268,-3.6563,-3.6093,-3.5618,-3.5322,-3.5253,-3.4966,-3.4773,-3.4942,-3.5969,-3.7176,-3.746,-3.7147,-3.6897,-3.5842,-3.4668,-3.3687,-3.34,-3.3196,-3.3039,-3.2996,-3.2929,-3.3074,-3.3304,-3.315,-3.2477,-3.1568,-3.0987,-2.9409,-2.8665,-2.7997,-2.721,-2.6833,-2.6371,-2.5648,-2.4831,-2.3941,-2.2449,-2.0796,-1.901,-1.6862,-1.4096,-1.1185,-0.8989,-0.6519,-0.2657,-0.02,0.1797,0.3931,0.5519,0.6837,0.8071,0.9336,1.0266,1.085,1.1527,1.2273,1.291,1.3382,1.3758,1.4136,1.4543,1.5144,1.6105,1.703,1.7957,1.8628,1.9137,1.8618,1.8071,1.7812,1.7523,1.7135,1.681,1.6528,1.6461,1.6856,1.7211,1.7378,1.7923,1.8588,1.9132,1.9678,1.9834,2.0059,1.9987,1.9325,1.8905,1.8639,1.8885,1.894,1.8808,1.8285,1.7552,1.666,1.5852,1.5428,1.5137,1.5204,-3.0794,-3.1173,-3.1805,-3.1974,-3.1787,-3.1559,-3.1423,-3.1449,-3.1878,-3.2221,-3.278,-3.3496,-3.3765,-3.3929,-3.4721,-3.5427,-3.5739,-3.667,-3.6531,-3.6131,-3.5818,-3.5947,-3.5802,-3.5877,-3.6191,-3.7286,-3.7935,-3.8056,-3.7196,-3.7202,-3.6279,-3.5144,-3.416,-3.3897,-3.3588,-3.3715,-3.3459,-3.3405,-3.3578,-3.371,-3.3505,-3.2954,-3.2064,-3.1516,-3.0081,-2.9246,-2.8614,-2.7852,-2.7204,-2.6747,-2.6115,-2.5217,-2.4112,-2.2732,-2.0961,-1.8939,-1.6295,-1.2915,-1.0053,-0.6363,-0.4058,-0.0867,0.205,0.3643,0.5111,0.695,0.9006,0.9424,1.0739,1.1858,1.2618,1.3451,1.415,1.4779,1.5273,1.5648,1.5961,1.6345,1.6988,1.7701,1.8509,1.9204,1.9901,2.0345,1.971,1.9039,1.84,1.8124,1.7895,1.7633,1.7302,1.7357,1.7677,1.7954,1.8256,1.9165,2.0046,2.0592,2.0986,2.0871,2.0985,2.0997,2.0771,1.9976,1.9976,2.0579,2.0568,2.0138,1.9901,1.9607,1.8619,1.7543,1.7378,1.7226,1.7733,-2.9753,-3.0965,-3.1681,-3.1884,-3.1679,-3.1981,-3.1891,-3.1733,-3.2213,-3.2358,-3.2325,-3.2666,-3.3118,-3.3632,-3.4522,-3.5043,-3.5506,-3.6258,-3.6194,-3.5684,-3.5947,-3.5908,-3.6021,-3.6292,-3.6602,-3.7302,-3.7998,-3.8052,-3.7116,-3.7451,-3.6703,-3.5542,-3.4566,-3.4101,-3.3713,-3.4297,-3.4593,-3.4593,-3.443,-3.4033,-3.3561,-3.3293,-3.2574,-3.1586,-3.0577,-2.9813,-2.9116,-2.8266,-2.7659,-2.73,-2.677,-2.5933,-2.4925,-2.2615,-2.0643,-1.8953,-1.3965,-1.0988,-0.9525,-0.3658,-0.0132,0.1193,0.402,0.586,0.6465,0.8642,1.1057,1.1155,1.2631,1.3811,1.4601,1.5313,1.5938,1.6497,1.6925,1.7169,1.7434,1.7754,1.8291,1.8832,1.9546,2.0227,2.1043,2.1387,2.0699,1.9924,1.9148,1.8792,1.8691,1.8666,1.8464,1.8771,1.9014,1.9164,1.9646,2.0618,2.143,2.1985,2.2275,2.2187,2.2153,2.2152,2.1717,2.1014,2.133,2.1942,2.1705,2.133,2.1634,2.1921,2.0328,1.9381,1.9251,1.9566,2.025,-2.6763,-2.9897,-3.0195,-3.041,-3.066,-3.124,-3.1462,-3.1562,-3.2127,-3.2453,-3.2565,-3.3203,-3.3578,-3.4024,-3.4736,-3.5318,-3.5701,-3.7093,-3.7117,-3.5707,-3.5955,-3.5947,-3.5954,-3.5963,-3.6368,-3.7192,-3.7969,-3.8034,-3.7184,-3.7509,-3.6637,-3.5423,-3.455,-3.3825,-3.3603,-3.3796,-3.3827,-3.3592,-3.3696,-3.3771,-3.3566,-3.339,-3.2959,-3.1955,-3.1058,-3.0372,-2.9652,-2.8738,-2.8174,-2.7759,-2.7238,-2.6044,-2.5061,-2.2873,-2.016,-1.7533,-1.2823,-0.8618,-0.3688,0.2447,0.5148,0.5689,0.6092,0.7983,0.8914,1.0863,1.2195,1.3126,1.4458,1.537,1.5934,1.6599,1.7169,1.7829,1.8155,1.8209,1.8414,1.8742,1.9192,1.975,2.044,2.0854,2.1489,2.1998,2.1534,2.079,1.9992,1.9871,1.9785,1.9986,2.0054,2.041,2.068,2.0693,2.1045,2.1575,2.2046,2.245,2.3154,2.3612,2.3539,2.3361,2.3526,2.3225,2.3263,2.3289,2.3344,2.3573,2.4283,2.4146,2.2795,2.1837,2.1689,2.2383,2.3352,-2.138,-2.436,-2.558,-2.6576,-2.7713,-2.9823,-3.0937,-3.1401,-3.2022,-3.2497,-3.2978,-3.3478,-3.3476,-3.3714,-3.4488,-3.5131,-3.528,-3.6096,-3.6478,-3.5203,-3.5491,-3.5551,-3.5517,-3.5713,-3.6362,-3.7113,-3.7485,-3.7482,-3.6474,-3.7154,-3.6501,-3.526,-3.4366,-3.4321,-3.4203,-3.4311,-3.4186,-3.4059,-3.4134,-3.3841,-3.3668,-3.3481,-3.3229,-3.231,-3.1624,-3.1198,-3.0309,-2.9466,-2.871,-2.82,-2.7444,-2.629,-2.5398,-2.3442,-2.0237,-1.6622,-0.9745,-0.3934,0.4011,0.7419,0.9653,1.0569,1.0008,1.0112,1.1461,1.3083,1.4101,1.5081,1.6187,1.6658,1.7059,1.772,1.8293,1.8891,1.931,1.9322,1.955,1.9933,2.0397,2.0939,2.1412,2.1731,2.2033,2.2209,2.2317,2.1542,2.0835,2.0883,2.0863,2.0869,2.1125,2.1491,2.1662,2.1568,2.1625,2.1926,2.2387,2.2943,2.3733,2.4584,2.4811,2.4657,2.5078,2.5356,2.5024,2.4969,2.5479,2.5884,2.6117,2.6127,2.5607,2.486,2.4309,2.4759,2.5535,-1.3864,-1.4896,-1.8052,-2.093,-2.3493,-2.8089,-3.0434,-3.146,-3.1666,-3.2459,-3.3555,-3.2814,-3.2706,-3.2684,-3.3377,-3.3794,-3.3877,-3.4038,-3.4056,-3.4184,-3.4753,-3.5068,-3.5816,-3.6381,-3.6684,-3.6827,-3.7146,-3.7352,-3.5768,-3.6427,-3.6236,-3.5412,-3.487,-3.4833,-3.4981,-3.5047,-3.4906,-3.4737,-3.449,-3.4148,-3.3903,-3.4073,-3.3337,-3.2525,-3.2033,-3.1638,-3.0831,-2.995,-2.9536,-2.9232,-2.9026,-2.8162,-2.6872,-2.4966,-2.0628,-1.3427,-0.3311,0.4837,1.0526,1.2888,1.4325,1.5362,1.4506,1.3646,1.3726,1.5271,1.6213,1.6838,1.7575,1.7773,1.8089,1.8696,1.9261,1.9838,2.0419,2.062,2.0848,2.127,2.1799,2.2243,2.2674,2.2981,2.3208,2.3318,2.336,2.2711,2.218,2.2141,2.1966,2.1226,2.1534,2.212,2.2229,2.2185,2.2363,2.2974,2.3301,2.4006,2.4568,2.5287,2.5549,2.6008,2.6404,2.6599,2.6428,2.6585,2.7047,2.734,2.7512,2.7482,2.7727,2.7175,2.6426,2.6246,2.6607,-0.6506,-0.9198,-1.3618,-1.9563,-2.5853,-2.7663,-2.8966,-3.0039,-3.0813,-3.1542,-3.197,-3.2915,-3.2458,-3.1769,-3.2998,-3.3122,-3.3191,-3.3383,-3.3649,-3.3846,-3.4074,-3.5402,-3.6149,-3.6414,-3.6964,-3.7534,-3.7825,-3.7757,-3.7476,-3.7255,-3.6467,-3.5899,-3.5202,-3.5134,-3.521,-3.5313,-3.5273,-3.5093,-3.4767,-3.4506,-3.426,-3.4398,-3.3383,-3.2483,-3.1954,-3.1398,-3.0152,-2.957,-2.9227,-2.9288,-2.8708,-2.7876,-2.7055,-1.9663,-1.1467,0.1467,0.914,1.4755,1.6563,1.8125,1.9283,1.9759,1.9149,1.8157,1.7705,1.7756,1.8613,1.8875,1.9407,1.9876,2.0114,2.0509,2.0946,2.1376,2.1806,2.1862,2.2095,2.2434,2.2964,2.3742,2.4106,2.449,2.4692,2.4668,2.4627,2.3928,2.3535,2.3499,2.3152,2.2382,2.233,2.2981,2.3232,2.3341,2.3963,2.4568,2.4774,2.5051,2.5699,2.6299,2.6806,2.7315,2.7746,2.7975,2.8008,2.823,2.8576,2.8839,2.9102,2.9626,2.9863,2.9198,2.8647,2.8311,2.8108,0.5054,0.2279,-0.5203,-1.5682,-2.6033,-2.4987,-2.3276,-2.2694,-2.7425,-3.0404,-3.123,-3.1619,-3.1705,-3.1513,-3.1713,-3.1589,-3.1283,-3.1516,-3.1974,-3.2737,-3.328,-3.4066,-3.4933,-3.5861,-3.6084,-3.7037,-3.7953,-3.8125,-3.802,-3.7455,-3.6646,-3.5526,-3.5123,-3.525,-3.5391,-3.5533,-3.5022,-3.4719,-3.4475,-3.4574,-3.4333,-3.3945,-3.2791,-3.1576,-3.1098,-2.9899,-2.8564,-2.8109,-2.8127,-2.8415,-2.7839,-2.3617,-1.8498,-0.6904,0.2716,1.381,1.5647,1.8941,2.0768,2.201,2.2902,2.3242,2.3069,2.2304,2.1409,2.1047,2.0968,2.0879,2.1643,2.2252,2.2419,2.2569,2.2864,2.3152,2.3139,2.314,2.3378,2.3598,2.43,2.5135,2.5652,2.6112,2.63,2.6256,2.6058,2.5678,2.5218,2.4868,2.4475,2.3743,2.3781,2.4294,2.4512,2.4676,2.5329,2.5849,2.6023,2.6299,2.6931,2.7534,2.8117,2.8761,2.9343,2.9583,2.968,2.9811,2.9864,3.0427,3.0796,3.124,3.1524,3.1148,3.0533,3.0054,2.9922,1.914,1.8406,0.7454,-0.582,-2.168,-1.6485,-1.2496,-1.0412,-2.0143,-2.7849,-2.9671,-2.9624,-3.0058,-3.1199,-3.1393,-3.098,-3.0958,-3.1127,-3.1857,-3.1784,-3.2256,-3.3225,-3.4644,-3.4795,-3.5903,-3.6224,-3.6886,-3.8158,-3.7505,-3.7071,-3.6405,-3.4941,-3.4859,-3.4917,-3.4995,-3.4497,-3.3561,-3.2404,-3.2865,-3.3261,-3.2841,-3.2241,-3.1257,-2.9587,-2.8625,-2.7646,-2.6332,-2.5872,-2.5983,-2.6725,-2.298,-1.6528,-0.4132,0.8078,1.7591,2.1091,2.161,2.263,2.4284,2.5317,2.5808,2.6039,2.5959,2.5505,2.4794,2.3499,2.293,2.2643,2.3233,2.3744,2.3955,2.4225,2.453,2.4678,2.471,2.4625,2.4658,2.4994,2.5654,2.6364,2.675,2.724,2.7695,2.7603,2.7349,2.722,2.711,2.6607,2.6179,2.5469,2.5266,2.5616,2.5699,2.5929,2.6357,2.6813,2.7128,2.7549,2.8151,2.8699,2.9303,3.0062,3.0942,3.0976,3.0931,3.0892,3.1009,3.1462,3.1845,3.2212,3.2479,3.2755,3.2456,3.1828,3.1741,2.9739,3.1456,2.859,1.9413,0.7957,0.8628,0.2479,-0.6359,-0.4103,-1.32,-2.5915,-2.7137,-2.8798,-3.1735,-3.2596,-3.2517,-3.2242,-3.1787,-3.3004,-3.3333,-3.318,-3.3731,-3.5677,-3.566,-3.6282,-3.7017,-3.7669,-3.8127,-3.7506,-3.7133,-3.6562,-3.547,-3.4506,-3.3513,-3.3669,-3.2784,-3.1373,-3.0365,-3.0824,-3.1019,-3.0252,-2.9842,-2.9012,-2.8033,-2.7194,-2.6732,-2.5843,-2.5666,-2.5755,-2.5328,-1.3435,-0.3086,0.8213,1.8566,2.4725,2.7335,2.6154,2.6454,2.7187,2.7812,2.7951,2.818,2.8117,2.8107,2.7421,2.58,2.4857,2.4612,2.4627,2.5114,2.5485,2.5812,2.6067,2.6151,2.6185,2.6047,2.594,2.6466,2.7026,2.7467,2.7849,2.8231,2.8748,2.8788,2.8586,2.8604,2.8746,2.8623,2.8372,2.7854,2.6911,2.6996,2.6924,2.7107,2.7475,2.789,2.8293,2.8898,2.9523,3.007,3.0523,3.113,3.1757,3.2004,3.2092,3.1917,3.1864,3.2126,3.2533,3.3021,3.327,3.3506,3.3747,3.3386,3.3458,3.3763,3.5248,3.5781,3.2245,2.6095,2.2274,1.5251,0.8644,0.947,0.0765,-1.4687,-1.916,-2.4865,-3.1526,-3.3626,-3.2842,-3.2392,-3.2749,-3.2651,-3.314,-3.3119,-3.4691,-3.5461,-3.4936,-3.5892,-3.6497,-3.7878,-3.8224,-3.6711,-3.5854,-3.4894,-3.4027,-3.235,-3.172,-3.1916,-3.0891,-2.9287,-2.9161,-2.8817,-2.8097,-2.7174,-2.7051,-2.7073,-2.6402,-2.5409,-2.4833,-2.0965,-1.9379,-1.4964,-1.0654,-0.0,0.7815,1.5892,2.1312,2.5594,2.7314,2.7643,2.8272,2.9162,2.9503,2.9356,2.9497,2.9568,2.9303,2.9038,2.7601,2.7192,2.6961,2.6609,2.6939,2.6833,2.7047,2.7113,2.7178,2.7217,2.7158,2.7308,2.7658,2.841,2.9152,2.9282,2.9105,2.942,2.9248,2.9146,2.9419,2.9657,2.9553,2.9553,2.9827,2.8992,2.8514,2.842,2.8356,2.856,2.9055,2.962,3.0219,3.0796,3.1455,3.1916,3.2176,3.2517,3.2769,3.2845,3.2642,3.2674,3.2924,3.3348,3.3876,3.4043,3.4162,3.4405,3.4614,3.4478,3.4327,3.439,3.5208,3.567,3.4952,2.8376,2.5086,2.453,2.1781,1.4907,0.5414,-0.2624,-1.6466,-2.6206,-3.062,-3.0169,-2.9337,-2.7944,-2.8952,-2.9165,-2.914,-2.9247,-2.9798,-3.0694,-3.0917,-3.1845,-3.3108,-3.3584,-3.3128,-3.1364,-2.982,-3.0573,-3.0683,-3.0212,-3.0742,-2.9085,-2.6488,-2.4986,-2.4247,-2.3956,-2.3998,-2.4443,-2.4806,-2.4096,-2.2709,-2.1183,-1.6029,-0.9203,-0.2431,0.4984,1.0887,1.661,2.0307,2.3299,2.4798,2.6707,2.7323,2.8211,2.9355,2.9726,3.0007,3.0311,3.0365,3.0178,2.9844,2.9565,2.9185,2.8872,2.8525,2.8286,2.8172,2.8112,2.8157,2.8075,2.8119,2.8021,2.8287,2.8578,2.9429,3.0335,3.0246,2.9941,3.0163,2.999,2.9959,3.0212,3.0243,2.9972,2.9982,3.0533,3.0449,3.0212,3.0154,3.0028,2.9854,3.0219,3.0813,3.1244,3.1812,3.2612,3.3247,3.334,3.3442,3.3551,3.3551,3.3442,3.3497,3.371,3.4186,3.4532,3.4595,3.4617,3.4717,3.4888,3.4994,3.4552,3.3746,3.3639,3.4457,3.5214,3.2628,3.2388,3.3461,3.2638,3.0843,2.7241,2.5665,1.4875,-0.7233,-1.3834,-1.5998,-1.6994,-1.8035,-1.9876,-2.0501,-1.767,-1.9403,-1.9954,-1.7718,-2.1275,-2.1108,-2.0138,-2.1518,-2.0534,-2.0504,-2.3729,-2.7409,-2.838,-2.8141,-2.7837,-2.3814,-1.6323,-1.5752,-1.4822,-1.3527,-1.5591,-1.7465,-2.2349,-2.2047,-2.0883,-2.0259,-1.6545,-0.7744,0.229,1.0955,1.6821,2.0893,2.2913,2.3991,2.5354,2.6384,2.6918,2.7915,2.8909,2.946,2.9862,3.0453,3.0448,3.0454,3.0263,3.0283,2.9979,2.9812,2.9521,2.9307,2.9172,2.9147,2.9142,2.8851,2.8785,2.8404,2.8297,2.8805,2.9501,3.0039,3.0325,3.0793,3.1689,3.1464,3.1168,3.1409,3.1683,3.1465,3.1353,3.1576,3.174,3.1741,3.1705,3.1579,3.1308,3.1507,3.1987,3.2327,3.2742,3.3451,3.3993,3.4342,3.4427,3.4282,3.4342,3.4297,3.4427,3.4326,3.4515,3.4774,3.4944,3.5016,3.5083,3.5174,3.5282]}]]